[[{"header":{"parameterUnit":"m.s-1","parameterCategory":1,"la1":31.0,"la2":29.5877,"lo1":-88.7671,"lo2":-86.6584,"dy":0.0162,"dx":0.0185,"nx":115,"ny":88,"refTime":"2023-05-29T18:00:00:Z","depth":0,"parameterNumber":2,"parameterNumberName":"U-component_of_WINDS"},"data":[0.0,0.0,0.0,0.0,0.0,0.0,0.0,0.0,0.0,0.0,0.0,0.0,0.0,0.0,0.0,0.0,0.0,0.0,0.0,0.0,0.0,0.0,0.0,0.0,0.0,0.0,0.0,0.0,0.0,0.0,0.0,0.0,0.0,0.0,0.0,0.0,0.0,0.0,0.0,0.0,0.0,0.0,0.0,0.0,0.0,0.0,0.0,0.0,0.0,0.0,0.0,0.0,0.0,0.0,0.0,0.0,0.0,0.0,0.0,0.0,0.0,0.0,0.0,0.0,0.0,0.0,0.0,0.0,0.0,0.0,0.0,0.0,0.0,0.0,0.0,0.0,0.0,0.0,0.0,0.0,0.0,0.0,0.0,0.0,0.0,0.0,0.0,0.0,0.0,0.0,0.0,0.0,0.0,0.0,0.0,0.0,0.0,0.0,0.0,0.0,0.0,0.0,0.0,0.0,0.0,0.0,0.0,0.0,0.0,0.0,0.0,0.0,0.0,0.0,0.0,0.0,0.0,0.0,0.0,0.0,0.0,0.0,0.0,0.0,0.0,0.0,0.0,0.0,0.0,0.0,0.0,0.0,0.0,0.0,0.0,0.0,0.0,0.0,0.0,0.0,0.0,0.0,0.0,0.0,0.0,0.0,0.0,0.0,0.0,0.0,0.0,0.0,0.0,0.0,0.0,0.0,0.0,0.0,0.0,0.0,0.0,0.0,0.0,0.0,0.0,0.0,0.0,0.0,0.0,0.0,0.0,0.0,0.0,0.0,0.0,0.0,0.0,0.0,0.0,0.0,0.0,0.0,0.0,0.0,0.0,0.0,0.0,0.0,0.0,0.0,0.0,0.0,0.0,0.0,0.0,0.0,0.0,0.0,0.0,0.0,0.0,0.0,0.0,0.0,0.0,0.0,0.0,0.0,0.0,0.0,0.0,0.0,0.0,0.0,0.0,0.0,0.0,0.0,0.0,0.0,0.0,0.0,0.0,0.0,0.0,0.0,0.0,0.0,0.0,0.0,0.0,0.0,0.0,0.0,0.0,0.0,0.0,0.0,0.0,0.0,0.0,0.0,0.0,0.0,0.0,0.0,0.0,0.0,0.0,0.0,0.0,0.0,0.0,0.0,0.0,0.0,0.0,0.0,0.0,0.0,0.0,0.0,0.0,0.0,0.0,0.0,0.0,0.0,0.0,0.0,0.0,0.0,0.0,0.0,0.0,0.0,0.0,0.0,0.0,0.0,0.0,0.0,0.0,0.0,0.0,0.0,0.0,0.0,0.0,0.0,0.0,0.0,0.0,0.0,0.0,0.0,0.0,0.0,0.0,0.0,0.0,0.0,0.0,0.0,0.0,0.0,0.0,0.0,0.0,0.0,0.0,0.0,0.0,0.0,0.0,0.0,0.0,0.0,0.0,0.0,0.0,0.0,0.0,0.0,0.0,0.0,0.0,0.0,0.0,0.0,0.0,0.0,0.0,0.0,0.0,0.0,0.0,0.0,0.0,0.0,0.0,0.0,0.0,0.0,0.0,0.0,0.0,0.0,0.0,0.0,0.0,0.0,0.0,0.0,0.0,0.0,0.0,0.0,0.0,0.0,0.0,0.0,0.0,0.0,0.0,0.0,0.0,0.0,0.0,0.0,0.0,0.0,0.0,0.0,0.0,0.0,0.0,0.0,0.0,0.0,0.0,0.0,0.0,0.0,0.0,0.0,0.0,0.0,0.0,0.0,0.0,0.0,0.0,0.0,0.0,0.0,0.0,0.0,0.0,0.0,0.0,0.0,0.0,0.0,0.0,0.0,0.0,0.0,0.0,0.0,0.0,0.0,0.0,0.0,0.0,0.0,0.0,0.0,0.0,0.0,0.0,0.0,0.0,0.0,0.0,0.0,0.0,0.0,0.0,0.0,0.0,0.0,0.0,0.0,0.0,0.0,0.0,0.0,0.0,0.0,0.0,0.0,0.0,0.0,0.0,0.0,0.0,0.0,0.0,0.0,0.0,0.0,0.0,0.0,0.0,0.0,0.0,0.0,0.0,0.0,0.0,0.0,0.0,0.0,0.0,0.0,0.0,0.0,0.0,0.0,0.0,0.0,0.0,0.0,0.0,0.0,0.0,0.0,0.0,0.0,0.0,0.0,0.0,0.0,0.0,0.0,0.0,0.0,0.0,0.0,0.0,0.0,0.0,0.0,0.0,0.0,0.0,0.0,0.0,0.0,0.0,0.0,0.0,0.0,0.0,0.0,0.0,0.0,0.0,0.0,0.0,0.0,0.0,0.0,0.0,0.0,0.0,0.0,0.0,0.0,0.0,0.0,0.0,0.0,0.0,0.0,0.0,0.0,0.0,0.0,0.0,0.0,0.0,0.0,0.0,0.0,0.0,0.0,0.0,0.0,0.0,0.0,0.0,0.0,0.0,0.0,0.0,0.0,0.0,0.0,0.0,0.0,0.0,0.0,0.0,0.0,0.0,0.0,0.0,0.0,0.0,0.0,0.0,0.0,0.0,0.0,0.0,0.0,0.0,0.0,0.0,0.0,0.0,0.0,0.0,0.0,0.0,0.0,0.0,0.0,0.0,0.0,0.0,0.0,0.0,0.0,0.0,0.0,0.0,0.0,0.0,0.0,0.0,0.0,0.0,0.0,0.0,0.0,0.0,0.0,0.0,0.0,0.0,0.0,0.0,0.0,0.0,0.0,0.0,0.0,0.0,0.0,0.0,0.0,0.0,0.0,0.0,0.0,0.0,0.0,0.0,0.0,0.0,0.0,0.0,0.0,0.0,0.0,0.0,0.0,0.0,0.0,0.0,0.0,0.0,0.0,0.0,0.0,0.0,0.0,0.0,0.0,0.0,0.0,0.0,0.0,0.0,0.0,0.0,0.0,0.0,0.0,0.0,0.0,0.0,0.0,0.0,0.0,0.0,0.0,0.0,0.0,0.0,0.0,0.0,0.0,0.0,0.0,0.0,0.0,0.0,0.0,0.0,0.0,0.0,0.0,0.0,0.0,0.0,0.0,0.0,0.0,0.0,0.0,0.0,0.0,0.0,0.0,0.0,0.0,0.0,0.0,0.0,0.0,0.0,0.0,0.0,0.0,0.0,0.0,0.0,0.0,0.0,0.0,0.0,0.0,0.0,0.0,0.0,0.0,0.0,0.0,0.0,0.0,0.0,0.0,0.0,0.0,0.0,0.0,0.0,0.0,0.0,0.0,0.0,0.0,0.0,0.0,0.0,0.0,0.0,0.0,0.0,0.0,0.0,0.0,0.0,0.0,0.0,0.0,0.0,0.0,0.0,0.0,0.0,0.0,0.0,0.0,0.0,0.0,0.0,0.0,0.0,0.0,0.0,0.0,0.0,0.0,0.0,0.0,0.0,0.0,0.0,0.0,0.0,0.0,0.0,0.0,0.0,0.0,0.0,0.0,0.0,0.0,0.0,0.0,0.0,0.0,0.0,0.0,0.0,0.0,0.0,0.0,0.0,0.0,0.0,0.0,0.0,0.0,0.0,0.0,0.0,0.0,0.0,0.0,0.0,0.0,0.0,0.0,0.0,0.0,0.0,0.0,0.0,0.0,0.0,0.0,0.0,0.0,0.0,0.0,0.0,0.0,0.0,0.0,0.0,0.0,0.0,0.0,0.0,0.0,0.0,0.0,0.0,0.0,0.0,0.0,0.0,0.0,0.0,0.0,0.0,0.0,0.0,0.0,0.0,0.0,0.0,0.0,0.0,0.0,0.0,0.0,0.0,0.0,0.0,0.0,0.0,0.0,0.0,0.0,0.0,0.0,0.0,0.0,0.0,0.0,0.0,0.0,0.0,0.0,0.0,0.0,0.0,0.0,0.0,0.0,0.0,0.0,0.0,0.0,0.0,0.0,0.0,0.0,0.0,0.0,0.0,0.0,0.0,0.0,0.0,0.0,0.0,0.0,0.0,0.0,0.0,0.0,0.0,0.0,0.0,0.0,0.0,0.0,0.0,0.0,0.0,0.0,0.0,0.0,0.0,0.0,0.0,0.0,0.0,0.0,0.0,0.0,0.0,0.0,0.0,0.0,0.0,0.0,0.0,0.0,0.0,0.0,0.0,0.0,0.0,0.0,0.0,0.0,0.0,0.0,0.0,0.0,0.0,0.0,0.0,0.0,0.0,0.0,0.0,0.0,0.0,0.0,0.0,0.0,0.0,0.0,0.0,0.0,0.0,0.0,0.0,0.0,0.0,0.0,0.0,0.0,0.0,0.0,0.0,0.0,0.0,0.0,0.0,0.0,0.0,0.0,0.0,0.0,2.3782,0.0,0.0,0.0,0.0,0.0,0.0,0.0,0.0,0.0,0.0,0.0,0.0,0.0,0.0,0.0,0.0,0.0,0.0,0.0,0.0,0.0,0.0,0.0,0.0,0.0,0.0,0.0,0.0,0.0,0.0,0.0,0.0,0.0,0.0,0.0,0.0,0.0,0.0,0.0,0.0,0.0,0.0,0.0,0.0,0.0,0.0,0.0,0.0,0.0,0.0,0.0,0.0,0.0,0.0,0.0,0.0,0.0,0.0,0.0,0.0,0.0,0.0,0.0,0.0,0.0,0.0,0.0,0.0,0.0,0.0,0.0,0.0,0.0,0.0,0.0,0.0,0.0,0.0,0.0,0.0,0.0,0.0,0.0,0.0,0.0,0.0,0.0,0.0,0.0,0.0,0.0,0.0,0.0,0.0,0.0,0.0,0.0,0.0,0.0,0.0,0.0,0.0,0.0,0.0,0.0,0.0,0.0,0.0,0.0,0.0,2.3798,2.3798,2.3798,2.3798,2.3798,0.0,0.0,0.0,0.0,0.0,0.0,0.0,0.0,0.0,0.0,0.0,0.0,0.0,0.0,0.0,0.0,0.0,0.0,0.0,0.0,0.0,0.0,0.0,0.0,0.0,0.0,0.0,0.0,0.0,0.0,0.0,0.0,0.0,0.0,0.0,0.0,0.0,0.0,0.0,0.0,0.0,0.0,0.0,0.0,0.0,0.0,0.0,0.0,0.0,0.0,0.0,0.0,0.0,0.0,0.0,0.0,0.0,0.0,0.0,0.0,0.0,0.0,0.0,0.0,0.0,0.0,0.0,0.0,0.0,0.0,0.0,0.0,0.0,0.0,0.0,0.0,0.0,0.0,0.0,0.0,0.0,0.0,0.0,0.0,0.0,0.0,0.0,0.0,0.0,0.0,0.0,0.0,0.0,0.0,0.0,0.0,0.0,0.0,0.0,0.0,0.0,0.0,0.0,0.0,0.0,0.0,0.0,0.0,0.0,0.0,0.0,0.0,2.3798,2.3798,2.3798,0.0,0.0,0.0,0.0,0.0,0.0,0.0,0.0,0.0,0.0,0.0,0.0,0.0,0.0,0.0,0.0,0.0,0.0,0.0,0.0,0.0,0.0,0.0,0.0,0.0,0.0,0.0,0.0,0.0,0.0,0.0,0.0,0.0,0.0,0.0,0.0,0.0,0.0,0.0,0.0,0.0,0.0,0.0,0.0,0.0,0.0,0.0,0.0,0.0,0.0,0.0,0.0,0.0,0.0,0.0,0.0,0.0,0.0,0.0,0.0,0.0,0.0,0.0,0.0,0.0,0.0,0.0,0.0,0.0,0.0,0.0,0.0,0.0,0.0,0.0,0.0,0.0,0.0,0.0,0.0,0.0,0.0,0.0,0.0,0.0,0.0,0.0,0.0,0.0,0.0,0.0,0.0,0.0,0.0,0.0,0.0,0.0,0.0,0.0,0.0,0.0,0.0,0.0,0.0,0.0,0.0,0.0,0.0,0.0,0.0,2.3798,2.3798,2.3798,0.0,2.3798,0.0,0.0,0.0,0.0,0.0,0.0,0.0,0.0,0.0,0.0,0.0,0.0,0.0,0.0,0.0,0.0,0.0,0.0,0.0,0.0,0.0,0.0,0.0,0.0,0.0,0.0,0.0,0.0,0.0,0.0,0.0,0.0,0.0,0.0,0.0,0.0,0.0,0.0,0.0,0.0,0.0,0.0,0.0,0.0,0.0,0.0,0.0,0.0,0.0,0.0,0.0,0.0,0.0,0.0,0.0,0.0,0.0,0.0,0.0,0.0,0.0,0.0,0.0,0.0,0.0,0.0,0.0,0.0,0.0,0.0,0.0,0.0,0.0,0.0,0.0,0.0,0.0,0.0,0.0,0.0,0.0,0.0,0.0,0.0,0.0,0.0,0.0,0.0,0.0,0.0,0.0,0.0,0.0,0.0,0.0,0.0,0.0,0.0,0.0,0.0,0.0,0.0,0.0,0.0,0.0,0.0,0.0,0.0,0.0,0.0,2.3798,2.3798,2.3798,2.3798,0.0,0.0,0.0,0.0,0.0,0.0,0.0,0.0,0.0,0.0,0.0,0.0,0.0,0.0,0.0,0.0,0.0,0.0,0.0,0.0,0.0,0.0,0.0,0.0,0.0,0.0,0.0,0.0,0.0,0.0,0.0,0.0,0.0,0.0,0.0,0.0,0.0,0.0,0.0,0.0,0.0,0.0,0.0,0.0,0.0,0.0,0.0,0.0,0.0,0.0,0.0,0.0,0.0,0.0,0.0,0.0,0.0,0.0,0.0,0.0,0.0,0.0,0.0,0.0,0.0,0.0,0.0,0.0,0.0,0.0,0.0,0.0,0.0,0.0,0.0,0.0,0.0,0.0,0.0,0.0,0.0,0.0,0.0,0.0,0.0,0.0,0.0,0.0,0.0,0.0,0.0,0.0,0.0,0.0,0.0,0.0,0.0,0.0,0.0,0.0,0.0,0.0,0.0,0.0,0.0,0.0,0.0,0.0,0.0,0.0,2.3798,2.3798,2.3798,2.3798,2.3798,2.3798,0.0,0.0,0.0,0.0,0.0,0.0,0.0,0.0,0.0,0.0,0.0,0.0,0.0,0.0,0.0,0.0,0.0,0.0,0.0,0.0,0.0,0.0,0.0,0.0,0.0,0.0,0.0,0.0,0.0,0.0,0.0,0.0,0.0,0.0,0.0,0.0,0.0,0.0,0.0,0.0,0.0,0.0,0.0,0.0,0.0,0.0,0.0,0.0,0.0,0.0,0.0,0.0,0.0,0.0,0.0,0.0,0.0,0.0,0.0,0.0,0.0,0.0,0.0,0.0,0.0,0.0,0.0,0.0,0.0,0.0,0.0,0.0,0.0,0.0,0.0,0.0,0.0,0.0,0.0,0.0,0.0,0.0,0.0,0.0,0.0,0.0,0.0,0.0,0.0,0.0,0.0,0.0,0.0,0.0,0.0,0.0,0.0,0.0,0.0,0.0,0.0,0.0,0.0,0.0,0.0,0.0,0.0,0.0,2.3798,2.3798,2.3798,2.3798,2.3798,2.3798,0.0,0.0,0.0,0.0,0.0,0.0,0.0,0.0,0.0,0.0,0.0,0.0,0.0,0.0,0.0,0.0,0.0,0.0,0.0,0.0,0.0,0.0,0.0,0.0,0.0,0.0,0.0,0.0,0.0,0.0,0.0,0.0,0.0,0.0,0.0,0.0,0.0,0.0,0.0,0.0,0.0,0.0,0.0,0.0,0.0,0.0,0.0,0.0,0.0,0.0,0.0,0.0,0.0,0.0,0.0,0.0,0.0,0.0,0.0,0.0,0.0,0.0,0.0,0.0,0.0,0.0,0.0,0.0,0.0,0.0,0.0,0.0,0.0,0.0,0.0,0.0,0.0,0.0,0.0,0.0,0.0,0.0,0.0,0.0,0.0,0.0,0.0,0.0,0.0,0.0,0.0,0.0,0.0,0.0,0.0,0.0,0.0,0.0,0.0,0.0,0.0,0.0,0.0,0.0,0.0,0.0,0.0,0.0,0.0,2.3798,2.3798,2.3798,2.3798,2.3798,2.3798,0.0,0.0,0.0,0.0,0.0,0.0,0.0,0.0,0.0,0.0,0.0,0.0,0.0,0.0,0.0,0.0,0.0,0.0,0.0,0.0,0.0,0.0,0.0,0.0,0.0,0.0,0.0,0.0,0.0,0.0,0.0,0.0,0.0,0.0,0.0,0.0,0.0,0.0,0.0,0.0,0.0,0.0,0.0,0.0,0.0,0.0,0.0,0.0,0.0,0.0,0.0,0.0,0.0,0.0,0.0,0.0,0.0,0.0,0.0,0.0,0.0,0.0,0.0,0.0,0.0,0.0,0.0,0.0,0.0,0.0,0.0,0.0,0.0,0.0,0.0,0.0,0.0,0.0,0.0,0.0,0.0,0.0,0.0,0.0,0.0,0.0,0.0,0.0,0.0,0.0,0.0,0.0,0.0,0.0,0.0,0.0,0.0,0.0,0.0,0.0,0.0,0.0,0.0,0.0,0.0,0.0,0.0,0.0,0.0,2.3798,0.0,2.3798,2.3798,2.3798,2.3798,0.0,0.0,0.0,0.0,0.0,0.0,0.0,0.0,0.0,0.0,0.0,0.0,0.0,0.0,0.0,0.0,0.0,0.0,0.0,0.0,0.0,0.0,0.0,0.0,0.0,0.0,0.0,0.0,0.0,0.0,0.0,0.0,0.0,0.0,0.0,0.0,0.0,0.0,0.0,0.0,0.0,0.0,0.0,0.0,0.0,0.0,0.0,0.0,0.0,0.0,0.0,0.0,0.0,0.0,0.0,0.0,0.0,0.0,0.0,0.0,0.0,0.0,0.0,0.0,0.0,0.0,0.0,0.0,0.0,0.0,0.0,0.0,0.0,0.0,0.0,0.0,0.0,0.0,0.0,0.0,0.0,0.0,0.0,0.0,0.0,0.0,0.0,0.0,0.0,0.0,0.0,0.0,0.0,0.0,0.0,0.0,0.0,0.0,0.0,0.0,0.0,0.0,0.0,0.0,0.0,0.0,0.0,0.0,2.3857,2.3837,2.385,2.3927,2.3834,2.3909,2.3855,0.0,0.0,0.0,0.0,0.0,0.0,0.0,0.0,0.0,0.0,0.0,0.0,0.0,0.0,0.0,0.0,0.0,0.0,0.0,0.0,0.0,0.0,0.0,0.0,0.0,0.0,0.0,0.0,0.0,0.0,0.0,0.0,0.0,0.0,0.0,0.0,0.0,0.0,0.0,0.0,0.0,0.0,0.0,0.0,0.0,0.0,0.0,0.0,0.0,0.0,0.0,0.0,0.0,0.0,0.0,0.0,0.0,0.0,0.0,0.0,0.0,0.0,0.0,0.0,0.0,0.0,0.0,0.0,0.0,0.0,0.0,0.0,0.0,0.0,0.0,0.0,0.0,0.0,0.0,0.0,0.0,0.0,0.0,0.0,0.0,0.0,0.0,0.0,0.0,0.0,0.0,0.0,0.0,0.0,0.0,0.0,0.0,0.0,0.0,0.0,0.0,0.0,0.0,0.0,0.0,0.0,0.0,0.0,0.0,2.4673,2.5172,2.5458,2.5443,2.5458,2.5443,0.0,0.0,0.0,0.0,0.0,0.0,0.0,0.0,0.0,0.0,0.0,0.0,0.0,0.0,0.0,0.0,0.0,0.0,0.0,0.0,0.0,0.0,0.0,0.0,0.0,0.0,0.0,0.0,0.0,0.0,0.0,0.0,0.0,0.0,0.0,0.0,0.0,0.0,0.0,0.0,0.0,0.0,0.0,0.0,0.0,0.0,0.0,0.0,0.0,0.0,0.0,0.0,0.0,0.0,0.0,0.0,0.0,0.0,0.0,0.0,0.0,0.0,0.0,0.0,0.0,0.0,0.0,0.0,0.0,0.0,0.0,0.0,0.0,0.0,0.0,0.0,0.0,0.0,0.0,0.0,0.0,0.0,0.0,0.0,0.0,0.0,0.0,0.0,0.0,0.0,0.0,0.0,0.0,0.0,0.0,0.0,0.0,0.0,0.0,0.0,0.0,0.0,0.0,0.0,0.0,0.0,0.0,0.0,0.0,2.5945,2.6089,2.6183,2.6183,2.6183,2.6183,2.6183,0.0,0.0,0.0,0.0,0.0,0.0,0.0,0.0,0.0,0.0,0.0,0.0,0.0,0.0,0.0,0.0,0.0,0.0,0.0,0.0,0.0,0.0,0.0,0.0,0.0,0.0,0.0,0.0,0.0,0.0,0.0,0.0,0.0,0.0,0.0,0.0,0.0,0.0,0.0,0.0,0.0,0.0,0.0,0.0,0.0,0.0,0.0,0.0,0.0,0.0,0.0,0.0,0.0,0.0,0.0,0.0,0.0,0.0,0.0,0.0,0.0,0.0,0.0,0.0,0.0,0.0,0.0,0.0,0.0,0.0,0.0,0.0,0.0,0.0,0.0,0.0,0.0,0.0,0.0,0.0,0.0,0.0,0.0,0.0,0.0,0.0,0.0,0.0,0.0,0.0,0.0,0.0,0.0,0.0,0.0,0.0,0.0,0.0,0.0,0.0,0.0,0.0,0.0,0.0,0.0,0.0,0.0,0.0,2.7462,2.6717,2.6364,2.6361,2.6364,2.6346,0.0,0.0,0.0,0.0,0.0,0.0,0.0,0.0,0.0,0.0,0.0,0.0,0.0,0.0,0.0,0.0,0.0,0.0,0.0,0.0,0.0,0.0,0.0,0.0,0.0,0.0,0.0,0.0,0.0,0.0,0.0,0.0,0.0,0.0,0.0,0.0,0.0,0.0,0.0,0.0,0.0,0.0,0.0,0.0,0.0,0.0,0.0,0.0,0.0,0.0,0.0,0.0,0.0,0.0,0.0,0.0,0.0,0.0,0.0,0.0,0.0,0.0,0.0,0.0,0.0,0.0,0.0,0.0,0.0,0.0,0.0,0.0,0.0,0.0,0.0,0.0,0.0,0.0,0.0,0.0,0.0,0.0,0.0,0.0,0.0,0.0,0.0,0.0,0.0,0.0,0.0,0.0,0.0,0.0,0.0,0.0,0.0,0.0,0.0,0.0,0.0,0.0,0.0,0.0,0.0,0.0,0.0,0.0,0.0,2.8292,2.8075,2.7966,2.7981,2.7963,2.7948,0.0,0.0,0.0,0.0,0.0,0.0,0.0,0.0,0.0,0.0,0.0,0.0,0.0,0.0,0.0,0.0,0.0,0.0,0.0,0.0,0.0,0.0,0.0,0.0,0.0,0.0,0.0,0.0,0.0,0.0,0.0,0.0,0.0,0.0,0.0,0.0,0.0,0.0,0.0,0.0,0.0,0.0,0.0,0.0,0.0,0.0,0.0,0.0,0.0,0.0,0.0,0.0,0.0,0.0,0.0,0.0,0.0,0.0,0.0,0.0,0.0,0.0,0.0,0.0,0.0,0.0,0.0,0.0,0.0,0.0,0.0,0.0,0.0,0.0,0.0,0.0,0.0,0.0,0.0,0.0,0.0,0.0,0.0,0.0,0.0,0.0,0.0,0.0,0.0,0.0,0.0,0.0,0.0,0.0,0.0,0.0,0.0,0.0,0.0,0.0,0.0,0.0,0.0,0.0,0.0,0.0,0.0,0.0,2.8505,2.8555,2.8605,2.8596,2.8596,2.8556,2.8528,0.0,0.0,0.0,0.0,0.0,0.0,0.0,0.0,0.0,0.0,0.0,0.0,0.0,0.0,0.0,0.0,0.0,0.0,0.0,0.0,0.0,0.0,0.0,0.0,0.0,0.0,0.0,0.0,0.0,0.0,0.0,0.0,0.0,0.0,0.0,0.0,0.0,0.0,0.0,0.0,0.0,0.0,0.0,0.0,0.0,0.0,0.0,0.0,0.0,0.0,0.0,0.0,0.0,0.0,0.0,0.0,0.0,0.0,0.0,0.0,0.0,0.0,0.0,0.0,0.0,0.0,0.0,0.0,0.0,0.0,0.0,0.0,0.0,0.0,0.0,0.0,0.0,0.0,0.0,0.0,0.0,0.0,0.0,0.0,0.0,0.0,0.0,0.0,0.0,0.0,0.0,0.0,0.0,0.0,0.0,0.0,0.0,0.0,0.0,0.0,0.0,0.0,0.0,0.0,0.0,0.0,0.0,0.0,2.8421,2.84,2.8491,2.8517,2.8517,2.8486,2.8479,0.0,0.0,0.0,0.0,0.0,0.0,0.0,0.0,0.0,0.0,0.0,0.0,0.0,0.0,0.0,0.0,0.0,0.0,0.0,0.0,0.0,0.0,0.0,0.0,0.0,0.0,0.0,0.0,0.0,0.0,0.0,0.0,0.0,0.0,0.0,0.0,0.0,0.0,0.0,0.0,0.0,0.0,0.0,0.0,0.0,0.0,0.0,0.0,0.0,0.0,0.0,0.0,0.0,0.0,0.0,0.0,0.0,0.0,0.0,0.0,0.0,0.0,0.0,0.0,0.0,0.0,0.0,0.0,0.0,0.0,0.0,0.0,0.0,0.0,0.0,0.0,0.0,0.0,0.0,0.0,0.0,0.0,0.0,0.0,0.0,0.0,0.0,0.0,0.0,0.0,0.0,0.0,0.0,0.0,0.0,0.0,0.0,0.0,0.0,0.0,0.0,0.0,0.0,0.0,0.0,0.0,0.0,0.0,2.7911,2.7865,2.7872,2.7879,2.7901,2.8231,2.8411,0.0,0.0,0.0,0.0,0.0,0.0,0.0,0.0,0.0,0.0,0.0,0.0,0.0,0.0,0.0,0.0,0.0,0.0,0.0,0.0,0.0,0.0,0.0,0.0,0.0,0.0,0.0,0.0,0.0,0.0,0.0,0.0,0.0,0.0,0.0,0.0,0.0,0.0,0.0,0.0,0.0,0.0,0.0,0.0,0.0,0.0,0.0,0.0,2.8596,0.0,0.0,0.0,0.0,0.0,0.0,0.0,0.0,0.0,0.0,0.0,0.0,0.0,0.0,0.0,0.0,0.0,0.0,0.0,0.0,0.0,0.0,0.0,0.0,0.0,0.0,0.0,0.0,0.0,0.0,0.0,0.0,0.0,0.0,0.0,0.0,0.0,0.0,0.0,0.0,0.0,0.0,0.0,0.0,0.0,0.0,0.0,0.0,0.0,0.0,0.0,0.0,0.0,0.0,0.0,0.0,0.0,0.0,0.0,2.8261,2.8177,2.8547,2.8566,2.8245,2.8398,2.8329,0.0,0.0,0.0,0.0,0.0,0.0,0.0,0.0,0.0,0.0,0.0,0.0,0.0,0.0,0.0,0.0,0.0,0.0,0.0,0.0,0.0,0.0,0.0,0.0,0.0,0.0,0.0,0.0,0.0,0.0,0.0,0.0,0.0,0.0,0.0,0.0,0.0,0.0,0.0,0.0,0.0,0.0,0.0,0.0,0.0,0.0,0.0,0.0,0.0,0.0,0.0,0.0,0.0,0.0,0.0,0.0,0.0,0.0,0.0,0.0,0.0,0.0,0.0,0.0,0.0,0.0,0.0,0.0,0.0,0.0,0.0,0.0,0.0,0.0,0.0,0.0,0.0,0.0,0.0,0.0,0.0,0.0,0.0,0.0,0.0,0.0,0.0,0.0,0.0,0.0,0.0,0.0,0.0,0.0,0.0,0.0,0.0,0.0,0.0,0.0,0.0,0.0,0.0,0.0,0.0,0.0,0.0,2.8516,2.8798,2.8769,2.9414,2.9472,2.8842,2.8606,2.8245,2.7759,0.0,0.0,0.0,0.0,0.0,0.0,0.0,0.0,0.0,0.0,0.0,0.0,0.0,0.0,0.0,0.0,0.0,0.0,0.0,0.0,0.0,0.0,0.0,0.0,0.0,0.0,0.0,0.0,0.0,0.0,0.0,0.0,0.0,0.0,0.0,0.0,0.0,0.0,2.8596,2.8596,0.0,0.0,0.0,0.0,0.0,0.0,0.0,0.0,2.9409,0.0,0.0,0.0,0.0,0.0,0.0,0.0,0.0,0.0,0.0,0.0,0.0,0.0,0.0,0.0,0.0,0.0,0.0,0.0,0.0,0.0,0.0,0.0,0.0,0.0,0.0,0.0,0.0,0.0,0.0,0.0,0.0,0.0,0.0,0.0,0.0,0.0,0.0,0.0,0.0,0.0,0.0,0.0,0.0,0.0,0.0,0.0,0.0,0.0,0.0,0.0,0.0,0.0,0.0,0.0,0.0,2.8448,2.8466,2.8637,2.893,2.907,2.9096,2.8964,2.8286,2.793,2.7946,0.0,0.0,0.0,0.0,0.0,0.0,0.0,0.0,0.0,0.0,0.0,0.0,0.0,0.0,0.0,0.0,0.0,0.0,0.0,0.0,0.0,0.0,0.0,0.0,0.0,0.0,0.0,0.0,0.0,0.0,0.0,0.0,0.0,0.0,0.0,0.0,0.0,0.0,0.0,2.8596,2.8596,0.0,0.0,0.0,0.0,0.0,0.0,0.0,0.0,3.0379,0.0,0.0,0.0,0.0,0.0,0.0,0.0,0.0,0.0,0.0,0.0,0.0,0.0,0.0,0.0,0.0,0.0,0.0,0.0,0.0,0.0,0.0,0.0,0.0,0.0,0.0,0.0,0.0,0.0,0.0,0.0,0.0,0.0,0.0,0.0,0.0,0.0,0.0,0.0,0.0,0.0,0.0,0.0,0.0,0.0,0.0,0.0,0.0,0.0,0.0,0.0,0.0,0.0,0.0,0.0,2.8596,2.8913,2.924,2.9556,2.9948,2.9965,2.9567,2.8818,2.8275,0.0,0.0,0.0,0.0,0.0,0.0,0.0,0.0,0.0,0.0,0.0,0.0,0.0,0.0,0.0,0.0,0.0,0.0,0.0,0.0,0.0,0.0,0.0,0.0,0.0,0.0,0.0,0.0,0.0,0.0,0.0,0.0,0.0,0.0,0.0,0.0,0.0,0.0,0.0,0.0,2.9213,2.9388,2.9789,0.0,0.0,0.0,0.0,0.0,0.0,3.1266,3.0861,0.0,0.0,0.0,0.0,0.0,0.0,0.0,0.0,0.0,0.0,0.0,0.0,0.0,0.0,0.0,0.0,0.0,0.0,0.0,0.0,0.0,0.0,0.0,0.0,0.0,0.0,0.0,0.0,0.0,0.0,0.0,0.0,0.0,0.0,0.0,0.0,0.0,0.0,0.0,0.0,0.0,0.0,0.0,0.0,0.0,0.0,0.0,0.0,0.0,0.0,0.0,0.0,0.0,0.0,0.0,2.8812,2.9469,2.997,3.033,3.0908,3.092,3.0323,2.9605,2.8889,0.0,0.0,0.0,0.0,0.0,0.0,0.0,0.0,0.0,0.0,0.0,0.0,0.0,0.0,0.0,0.0,0.0,0.0,0.0,0.0,0.0,0.0,0.0,0.0,0.0,0.0,0.0,0.0,0.0,0.0,0.0,0.0,0.0,0.0,0.0,0.0,0.0,0.0,0.0,0.0,0.0,3.0092,3.0886,3.1006,0.0,0.0,0.0,0.0,3.2332,3.1912,0.0,0.0,0.0,0.0,0.0,0.0,0.0,0.0,0.0,0.0,0.0,0.0,0.0,0.0,0.0,0.0,0.0,0.0,0.0,0.0,0.0,0.0,0.0,0.0,0.0,0.0,0.0,0.0,0.0,0.0,0.0,0.0,0.0,0.0,0.0,0.0,0.0,0.0,0.0,0.0,0.0,0.0,0.0,0.0,0.0,0.0,0.0,0.0,0.0,0.0,0.0,0.0,0.0,0.0,0.0,0.0,2.9478,2.9973,3.0506,3.1058,3.1161,3.1145,3.106,3.0362,2.9627,0.0,0.0,0.0,0.0,0.0,0.0,0.0,0.0,0.0,0.0,0.0,0.0,0.0,0.0,0.0,0.0,0.0,0.0,0.0,0.0,0.0,0.0,0.0,0.0,0.0,0.0,0.0,0.0,0.0,0.0,0.0,0.0,0.0,0.0,0.0,0.0,0.0,0.0,0.0,0.0,0.0,3.011,3.0889,3.1006,3.1248,0.0,0.0,3.235,3.3136,3.319,0.0,0.0,0.0,0.0,0.0,0.0,0.0,0.0,0.0,0.0,0.0,0.0,0.0,0.0,0.0,0.0,0.0,0.0,0.0,0.0,0.0,0.0,0.0,0.0,0.0,0.0,0.0,0.0,0.0,0.0,0.0,0.0,0.0,0.0,0.0,0.0,0.0,0.0,0.0,0.0,0.0,0.0,0.0,0.0,0.0,0.0,0.0,0.0,0.0,0.0,0.0,0.0,0.0,0.0,0.0,2.9005,2.9545,3.0079,3.0621,3.1166,3.119,3.119,3.119,3.0497,2.9748,0.0,0.0,0.0,0.0,0.0,0.0,0.0,0.0,0.0,0.0,0.0,0.0,0.0,0.0,0.0,0.0,0.0,0.0,0.0,0.0,0.0,0.0,0.0,0.0,0.0,0.0,0.0,0.0,0.0,0.0,0.0,0.0,0.0,0.0,0.0,0.0,0.0,0.0,0.0,0.0,0.0,0.0,3.218,3.2368,0.0,0.0,0.0,3.2991,3.3331,0.0,0.0,0.0,0.0,0.0,0.0,0.0,0.0,0.0,0.0,0.0,0.0,0.0,0.0,0.0,0.0,0.0,0.0,0.0,0.0,0.0,0.0,0.0,0.0,0.0,0.0,0.0,0.0,0.0,0.0,0.0,0.0,0.0,0.0,0.0,0.0,0.0,0.0,0.0,0.0,0.0,0.0,0.0,0.0,0.0,0.0,0.0,0.0,0.0,0.0,0.0,0.0,0.0,0.0,0.0,0.0,0.0,2.9682,3.0289,3.0785,3.1183,3.119,3.119,3.1173,3.0649,0.0,0.0,0.0,0.0,0.0,0.0,0.0,0.0,0.0,0.0,0.0,0.0,0.0,0.0,0.0,0.0,0.0,0.0,0.0,0.0,0.0,0.0,0.0,0.0,0.0,0.0,0.0,2.8722,0.0,0.0,0.0,0.0,0.0,0.0,0.0,0.0,0.0,0.0,0.0,0.0,0.0,0.0,3.1789,3.3183,3.3393,3.3393,0.0,0.0,3.3393,3.3393,3.3393,3.3183,0.0,0.0,0.0,0.0,0.0,0.0,0.0,0.0,0.0,0.0,0.0,0.0,0.0,0.0,0.0,0.0,0.0,0.0,0.0,0.0,0.0,0.0,0.0,0.0,0.0,0.0,0.0,0.0,0.0,0.0,0.0,0.0,0.0,0.0,0.0,0.0,0.0,0.0,0.0,0.0,0.0,0.0,0.0,0.0,0.0,0.0,0.0,0.0,0.0,0.0,0.0,0.0,0.0,0.0,2.9594,3.023,3.0827,3.1164,3.119,3.119,3.119,3.119,3.1161,3.0768,0.0,0.0,0.0,0.0,0.0,0.0,0.0,0.0,0.0,0.0,0.0,0.0,0.0,0.0,0.0,0.0,0.0,0.0,0.0,0.0,0.0,0.0,0.0,0.0,0.0,0.0,0.0,0.0,0.0,0.0,0.0,0.0,0.0,0.0,0.0,0.0,0.0,0.0,0.0,0.0,0.0,3.2343,3.3188,3.3359,3.3393,0.0,3.3393,3.3393,3.3393,3.3393,3.3349,3.3239,0.0,0.0,0.0,0.0,0.0,0.0,0.0,0.0,0.0,0.0,0.0,0.0,0.0,0.0,0.0,0.0,0.0,0.0,0.0,0.0,0.0,0.0,0.0,0.0,0.0,0.0,0.0,0.0,0.0,0.0,0.0,0.0,0.0,0.0,0.0,0.0,0.0,0.0,0.0,0.0,0.0,0.0,0.0,0.0,0.0,0.0,0.0,0.0,0.0,0.0,0.0,0.0,0.0,2.9401,3.0116,3.0709,3.1042,3.1065,3.1161,3.119,3.119,3.119,3.084,0.0,0.0,0.0,0.0,0.0,0.0,0.0,0.0,0.0,0.0,0.0,0.0,0.0,0.0,0.0,0.0,0.0,0.0,0.0,0.0,0.0,0.0,0.0,0.0,0.0,0.0,0.0,0.0,3.0384,3.0302,2.9655,0.0,0.0,0.0,0.0,0.0,0.0,0.0,0.0,0.0,0.0,3.2372,3.3069,3.3304,0.0,0.0,3.3393,3.3396,3.3344,3.3337,3.3296,3.3155,3.2438,0.0,0.0,0.0,0.0,0.0,0.0,0.0,0.0,0.0,0.0,0.0,0.0,0.0,0.0,0.0,0.0,0.0,0.0,0.0,0.0,0.0,0.0,0.0,0.0,0.0,0.0,0.0,2.8192,0.0,0.0,0.0,0.0,0.0,0.0,0.0,0.0,0.0,0.0,0.0,0.0,0.0,0.0,0.0,0.0,0.0,0.0,0.0,0.0,0.0,0.0,0.0,0.0,2.9359,3.0292,3.0718,3.0965,3.1067,3.1156,3.119,3.119,3.119,3.0942,0.0,0.0,0.0,0.0,0.0,0.0,0.0,0.0,0.0,0.0,0.0,0.0,0.0,0.0,0.0,0.0,0.0,0.0,0.0,0.0,0.0,0.0,0.0,0.0,0.0,0.0,0.0,0.0,3.0661,3.0366,2.9819,0.0,0.0,0.0,0.0,0.0,0.0,0.0,0.0,0.0,0.0,3.2485,3.2968,3.3389,3.3632,3.3677,3.3673,3.3632,3.3588,3.3337,3.3102,3.2898,0.0,0.0,0.0,0.0,0.0,0.0,0.0,0.0,0.0,0.0,0.0,0.0,0.0,0.0,0.0,0.0,0.0,0.0,0.0,0.0,0.0,0.0,0.0,0.0,0.0,0.0,0.0,2.8206,0.0,0.0,2.8112,0.0,0.0,0.0,0.0,0.0,0.0,0.0,0.0,0.0,0.0,0.0,0.0,0.0,0.0,0.0,0.0,0.0,0.0,0.0,0.0,0.0,0.0,2.9577,3.0943,3.0985,3.1067,3.1197,3.119,3.119,3.119,3.119,3.1178,3.1161,0.0,0.0,0.0,0.0,0.0,0.0,0.0,0.0,0.0,0.0,0.0,0.0,0.0,0.0,0.0,0.0,0.0,0.0,0.0,0.0,0.0,0.0,0.0,0.0,0.0,0.0,3.1655,3.1102,3.0594,0.0,0.0,0.0,0.0,0.0,0.0,0.0,0.0,0.0,3.1625,3.2313,3.283,3.2928,3.3647,3.4221,3.4269,3.4295,3.4245,3.4205,3.3488,3.282,0.0,0.0,0.0,0.0,0.0,0.0,0.0,0.0,0.0,0.0,0.0,0.0,0.0,0.0,0.0,0.0,0.0,0.0,0.0,0.0,0.0,0.0,0.0,0.0,0.0,0.0,0.0,2.8798,2.8866,0.0,0.0,0.0,0.0,0.0,0.0,0.0,0.0,0.0,0.0,0.0,3.0227,3.0213,0.0,0.0,0.0,0.0,0.0,0.0,0.0,0.0,0.0,0.0,0.0,0.0,2.9871,3.0883,3.0945,3.0982,3.1081,3.1163,3.119,3.119,3.119,3.119,3.119,0.0,0.0,0.0,0.0,0.0,0.0,0.0,0.0,0.0,0.0,0.0,0.0,0.0,0.0,0.0,0.0,0.0,0.0,0.0,0.0,0.0,0.0,0.0,0.0,0.0,3.1731,0.0,0.0,0.0,0.0,0.0,0.0,0.0,0.0,0.0,0.0,3.1227,3.1896,3.2878,3.3311,3.3716,3.4165,3.4592,3.4918,0.0,0.0,0.0,0.0,0.0,0.0,0.0,0.0,0.0,0.0,0.0,0.0,0.0,0.0,3.1465,2.9592,2.922,2.9176,2.9153,0.0,0.0,0.0,0.0,0.0,0.0,0.0,0.0,0.0,0.0,0.0,0.0,0.0,0.0,2.9529,2.9612,2.96,0.0,0.0,0.0,0.0,0.0,0.0,0.0,0.0,3.0625,3.0756,3.0991,3.0846,3.0778,3.0716,3.0361,3.0222,0.0,0.0,0.0,0.0,0.0,0.0,0.0,0.0,2.9994,3.0806,3.0834,3.0898,3.0989,3.1082,3.1151,3.119,3.119,3.119,3.119,3.0729,3.0352,0.0,0.0,0.0,0.0,0.0,0.0,0.0,0.0,0.0,0.0,0.0,0.0,0.0,0.0,0.0,0.0,0.0,0.0,0.0,0.0,0.0,0.0,0.0,3.2056,0.0,0.0,0.0,0.0,0.0,0.0,0.0,0.0,0.0,3.1492,3.1954,3.2619,3.356,3.3979,3.4314,3.4738,0.0,0.0,0.0,0.0,0.0,0.0,0.0,3.4351,3.4079,3.388,3.3731,3.3555,3.3414,3.3273,3.3124,0.0,0.0,3.0726,3.0384,3.0386,3.0335,3.032,3.0315,3.032,3.0714,3.1185,0.0,0.0,0.0,0.0,3.0063,0.0,0.0,0.0,3.0229,3.0294,0.0,3.0365,0.0,0.0,0.0,0.0,3.0112,3.0141,0.0,0.0,3.1241,3.1675,3.2403,3.2086,3.1921,3.1881,3.1561,3.1343,3.1198,2.9821,2.9008,0.0,0.0,0.0,0.0,0.0,3.0005,3.0729,3.0778,3.0884,3.1091,3.1103,3.1144,3.1236,3.1246,3.1224,3.119,3.1178,3.0869,3.0178,3.0132,0.0,0.0,0.0,0.0,0.0,0.0,0.0,0.0,0.0,0.0,0.0,0.0,0.0,0.0,0.0,0.0,0.0,0.0,0.0,0.0,3.2169,0.0,0.0,0.0,0.0,0.0,0.0,0.0,0.0,0.0,3.1145,3.1597,3.2776,3.3693,3.3759,0.0,0.0,0.0,0.0,3.5808,3.5818,3.5704,3.5602,3.5536,3.4706,3.398,3.3628,0.0,0.0,3.3137,3.3077,3.3089,3.2995,3.3045,3.2984,3.3038,3.2876,3.2843,3.2848,3.2787,3.2937,3.2954,3.277,3.2932,3.0963,0.0,0.0,0.0,0.0,2.9947,3.0285,3.0915,3.085,3.0929,3.1039,3.1033,0.0,0.0,0.0,0.0,0.0,0.0,3.1261,3.1921,3.1777,3.1829,3.2082,3.2537,3.2601,3.2336,3.2777,3.2878,3.2612,3.1966,3.0901,2.9458,0.0,0.0,0.0,0.0,3.1178,3.1504,3.1999,3.2367,3.2574,3.2569,3.2369,3.2,3.1989,3.1747,3.1212,3.119,3.1116,3.0886,3.0886,0.0,0.0,0.0,0.0,0.0,0.0,0.0,0.0,0.0,0.0,0.0,0.0,0.0,0.0,0.0,0.0,0.0,0.0,0.0,3.2174,3.2264,3.2292,0.0,0.0,0.0,0.0,0.0,0.0,0.0,0.0,0.0,3.3044,3.3158,3.3612,0.0,0.0,3.524,3.5738,3.5932,3.6053,3.6201,3.5979,0.0,3.5902,3.55,3.5066,3.4891,3.4712,3.4553,3.4381,3.4352,3.4335,3.4339,3.4333,3.4328,3.4291,3.3472,3.2868,3.2796,3.2785,3.2779,3.2802,3.3173,3.3577,3.2461,3.1564,3.1044,3.0851,3.0927,3.0851,3.1151,3.1668,3.1635,3.1665,3.1749,3.1672,3.1409,3.0996,3.1004,0.0,0.0,0.0,3.2135,3.2462,3.2428,3.2545,3.2731,3.2905,3.2923,3.2798,3.313,3.3189,3.3015,3.279,3.2104,3.0924,0.0,3.0825,3.0869,3.1641,3.2067,3.2177,3.2652,3.2984,3.3155,3.3233,3.3096,3.2769,3.2745,3.2396,3.1674,3.1623,3.1488,3.1212,3.119,3.098,0.0,0.0,0.0,0.0,0.0,0.0,0.0,0.0,0.0,0.0,0.0,2.9028,2.9507,0.0,0.0,0.0,3.1689,3.1942,3.2309,3.2227,0.0,0.0,0.0,0.0,0.0,0.0,0.0,3.2965,3.299,3.323,3.398,3.4002,3.4235,3.4995,3.5571,3.6068,3.6488,0.0,3.6908,3.7023,3.6813,3.6673,3.6757,3.657,3.6374,3.6186,3.6019,3.5868,3.5795,3.5777,3.5771,3.5777,3.5771,3.5777,3.5783,3.5038,3.4325,3.4077,3.4242,3.4441,3.4441,3.4806,3.5126,3.4203,3.4096,3.3014,3.2477,3.2384,3.2494,3.2568,3.2555,3.2564,3.2581,3.2555,3.2446,3.2398,3.2389,3.238,0.0,3.2008,3.2731,3.2992,3.2949,3.311,3.341,3.3818,3.3201,3.303,3.3202,3.3017,3.2898,3.289,3.2879,3.2884,3.2867,3.2879,3.2829,3.2707,3.2763,3.279,3.279,3.2968,3.3139,3.3277,3.347,3.3553,3.348,3.3485,3.3136,3.2446,3.2322,3.1989,3.1314,3.1246,3.1146,3.0988,0.0,0.0,0.0,0.0,0.0,0.0,0.0,0.0,0.0,0.0,0.0,0.0,0.0,0.0,3.1866,3.2103,0.0,3.2278,3.2242,0.0,0.0,0.0,3.2816,3.2499,3.3039,3.3422,3.3372,0.0,0.0,3.4531,3.5161,3.5402,3.5035,3.619,3.7024,3.695,3.7492,3.7938,3.7842,3.7803,3.7702,3.7572,3.7545,3.7416,3.7188,3.7182,3.7026,3.7013,3.7029,3.7063,3.7019,3.7102,3.7069,3.7102,3.7003,3.698,3.6257,3.6589,3.7019,3.6903,3.6897,3.6897,3.4172,3.4128,3.3984,3.3911,3.3875,3.3909,3.3947,3.4012,3.3994,3.4058,3.4148,3.4108,3.4053,3.3957,3.3899,3.3782,3.3635,3.3515,3.3381,3.3271,3.3016,3.2851,3.2829,3.3582,3.3734,3.342,3.43,3.4624,3.4381,3.4375,3.4375,3.4375,3.4375,3.3795,3.2763,3.326,3.3541,3.3536,3.4122,3.4543,3.4772,3.4981,3.4799,3.4257,3.4223,3.3902,3.3164,3.2588,3.222,3.2034,3.1505,3.1141,3.1005,3.0304,0.0,0.0,0.0,0.0,0.0,0.0,0.0,0.0,0.0,2.917,3.0034,0.0,3.1411,0.0,3.2198,3.2898,3.3617,3.3387,0.0,0.0,3.3279,3.3093,3.3031,3.3017,3.3282,3.3907,3.4376,3.4948,3.5717,3.6405,3.6786,3.6592,3.7023,3.7356,3.7376,3.7414,3.747,3.7504,3.744,3.7261,3.7342,3.7253,3.7255,3.7159,3.7131,3.7119,3.7119,3.7119,3.7119,3.7119,3.7119,3.7119,3.7152,3.7526,3.7851,3.7675,3.7394,3.7119,3.7119,3.7135,3.7135,3.5208,3.5195,3.5379,3.5456,3.5355,3.4691,3.4417,3.4477,3.4465,3.4501,3.4567,3.4493,3.4428,3.4367,3.443,3.4272,3.3937,3.3952,3.3808,3.3571,3.3451,3.3437,3.3547,3.4117,3.4271,3.4109,3.5152,3.5571,3.5425,3.5727,3.5899,3.5876,3.587,3.5462,3.4684,3.4402,3.4298,3.4298,3.4801,3.5181,3.5389,3.5515,3.5391,3.5002,3.4991,3.4641,3.3914,3.3507,3.2982,3.2332,3.1866,3.1397,3.0967,3.0509,3.005,0.0,0.0,0.0,0.0,0.0,0.0,0.0,0.0,0.0,0.0,0.0,3.1734,3.2261,3.2753,3.3264,3.3752,3.3578,3.3446,3.3543,3.358,3.3566,3.3473,3.3955,3.4469,3.4955,3.5584,3.6129,3.6572,3.7236,3.7679,3.7609,3.7996,3.8175,3.7913,3.7995,3.8208,3.826,3.8215,3.817,3.817,3.8118,3.8069,3.8086,3.8076,3.8086,3.8069,3.8079,3.8069,3.8092,3.8092,3.8092,3.8102,3.8384,3.8676,3.8632,3.8384,3.8119,3.8086,3.8086,3.8086,3.6776,3.6774,3.6968,3.6994,3.683,3.5506,3.4889,3.4796,3.4741,3.4734,3.4731,3.4593,3.4517,3.4522,3.4692,3.4508,3.4065,3.4491,3.4509,3.4225,3.4327,3.4608,3.5007,3.4833,3.488,3.5101,3.5819,3.6141,3.6158,3.6798,3.7119,3.7119,3.7119,3.7119,3.7046,3.5804,3.5187,3.5181,3.5441,3.5566,3.5597,3.5678,3.5684,3.5583,3.5594,3.5306,3.4675,3.4562,3.3902,3.264,3.2356,3.1906,3.12,3.0953,3.0496,0.0,2.9589,0.0,0.0,0.0,0.0,0.0,0.0,0.0,0.0,3.157,3.2405,3.332,3.3488,3.3548,3.3558,3.3532,3.3485,3.3483,3.3996,3.4306,3.4276,3.5363,3.6135,3.6141,3.6781,3.7228,3.7278,3.7891,3.8331,3.8394,3.8818,3.8964,3.8526,3.8844,3.9216,3.9451,3.9475,3.9265,3.9299,3.9282,3.9216,3.9265,3.9199,3.9315,3.9226,3.9232,3.9265,3.9265,3.9192,3.9226,3.9315,3.9282,3.9282,3.9242,3.9216,3.9199,3.9199,3.9176,3.9315,3.8196,3.8207,3.8251,3.8246,3.82,3.7936,3.726,3.6364,3.6466,3.6505,3.649,3.6327,3.6219,3.6231,3.6206,3.6281,3.6433,3.6264,3.6253,3.6394,3.598,3.5748,3.5655,3.6013,3.612,3.5997,3.6606,3.6897,3.688,3.7036,3.7119,3.7119,3.7119,3.7119,3.7096,0.0,0.0,0.0,3.6831,3.6646,3.6115,3.6244,3.6064,3.5548,3.5594,0.0,3.5368,3.4832,3.4332,3.3931,3.3326,0.0,0.0,0.0,0.0,0.0,0.0,0.0,0.0,0.0,0.0,0.0,3.2099,3.1906,3.1497,3.2203,3.3028,3.3779,3.3879,3.4214,3.4919,3.4742,3.4929,3.5731,3.5714,3.5853,3.639,3.6725,3.6887,3.6914,3.7536,3.7977,3.8033,3.8632,3.907,3.9053,3.9199,3.9249,3.911,3.9192,3.9312,3.9332,3.9339,3.9339,3.9339,3.9312,3.9315,3.9315,3.9315,3.9315,3.9315,3.9315,3.9315,3.9315,3.9315,3.9315,3.9315,3.9315,3.9315,3.9315,3.9315,3.9315,3.9315,3.9315,3.9315,3.8639,3.8689,3.8706,3.8706,0.0,3.8761,3.8397,3.7833,3.7796,3.7823,3.7882,3.7887,3.7882,3.7878,3.7845,3.7655,3.7369,3.7196,3.6933,3.66,3.6496,3.6384,3.6265,3.6672,3.6788,3.6665,3.7332,3.7652,3.7675,3.8013,3.8192,3.8185,3.8179,3.8192,3.8185,3.8185,3.7814,3.7119,3.7215,3.7124,3.6741,3.6556,3.6318,3.6013,3.5706,0.0,0.0,0.0,0.0,0.0,0.0,0.0,0.0,3.2486,3.2226,3.215,3.178,3.1763,3.2094,3.2144,3.2293,3.268,3.3039,3.3083,3.2707,3.3089,3.366,3.4368,3.4445,3.478,3.5591,3.5554,3.5806,3.6642,3.665,3.6698,3.7046,3.7443,3.7636,3.7702,3.8295,3.8748,3.8742,3.9043,3.9282,3.9315,3.9315,3.9315,3.9315,3.9315,3.9315,3.9315,3.9315,3.9315,3.9315,3.9315,3.9315,3.9315,3.9315,3.9315,3.9315,3.9315,3.9315,3.9315,3.9315,3.9315,3.9315,3.9315,3.9315,3.9315,3.9315,3.9315,3.9315,3.9315,3.9315,3.9076,3.9177,3.92,3.9244,3.9287,3.932,3.9308,3.9279,3.8865,0.0,0.0,3.9011,3.9031,3.899,3.8986,3.8574,3.7855,3.7819,3.7428,3.6759,3.6963,3.7082,3.7072,3.7307,3.741,3.7439,3.8086,3.8404,3.8421,3.9004,3.9315,3.9315,3.9315,3.9315,3.9315,3.9315,3.8718,3.7556,3.7601,3.7586,3.7459,3.7006,3.6658,3.6468,3.5939,3.5638,3.5554,3.5543,3.5211,3.4494,3.4382,3.4024,3.3317,3.3039,3.2912,3.2879,3.2757,3.2735,3.2879,3.2906,3.2956,3.3072,3.3779,3.4143,3.401,3.411,3.4441,3.5038,3.5203,3.5535,3.6119,3.6191,3.6506,3.7205,3.7311,3.7328,3.751,3.8007,3.8387,3.847,3.8914,3.9299,3.9275,3.9282,3.9315,3.9325,3.9448,3.955,3.9607,3.9491,3.9315,3.9315,3.9315,3.9332,3.9497,3.954,3.9524,3.9772,3.9739,3.9673,3.9673,3.9673,3.9673,3.9799,3.969,3.9733,3.969,3.9772,3.9666,3.968,3.9673,3.969,3.9673,3.9673,3.964,4.0584,4.0625,4.0741,4.0787,4.0799,4.0844,4.0884,4.0774,3.9569,3.8995,3.888,3.898,3.881,3.8499,3.8559,3.8528,3.8405,3.8573,3.8733,3.8851,3.8619,3.851,3.851,3.8539,3.855,3.8578,3.895,3.9143,3.9153,3.9249,3.9315,3.9315,3.9315,3.9315,3.9315,3.9315,3.9199,3.9,3.902,3.8708,3.8099,3.8091,3.7517,3.6319,3.6271,3.5973,3.5371,3.536,3.5218,3.5019,3.4962,3.4859,3.462,3.3983,3.3657,3.3619,3.3039,3.2995,3.3585,3.3635,3.3917,3.4557,3.5269,3.5429,3.4839,3.5313,3.5744,3.5876,3.6373,3.6814,3.693,3.694,3.7238,3.7924,3.8033,3.8271,3.8821,3.901,3.9093,3.9093,3.9226,3.9315,3.9365,3.9365,3.9375,3.9441,3.9905,4.0412,4.0663,4.0047,3.9398,3.9315,3.9315,3.958,4.0094,4.0236,4.0445,4.1044,4.1021,4.0938,4.0945,4.0945,4.0938,4.107,4.0961,4.1004,4.1004,4.111,4.0994,4.0931,4.0921,4.0971,4.0938,4.0971,4.067,4.0941,4.1011,4.107,4.1076,4.0994,4.1082,4.103,4.0784,4.0268,4.0126,4.0243,4.0137,3.9991,3.979,3.9566,3.9291,3.9003,3.9199,3.9185,3.904,3.906,3.9074,3.9067,3.9079,3.9056,3.9087,3.9215,3.9315,3.9315,3.9315,3.9315,3.9315,3.9315,3.9315,3.9315,3.9315,3.9315,3.9315,3.9315,3.9126,3.8805,3.8459,3.7999,3.7386,3.7086,3.6757,3.6495,3.61,3.5835,3.5704,3.531,3.5035,3.4894,3.4574,3.4391,3.4375,3.4083,3.4044,3.4375,3.4773,3.5131,3.5495,3.6185,3.645,3.6125,3.64,3.6593,3.6605,3.6924,3.7261,3.7636,3.7685,3.7996,3.8725,3.8782,3.8937,3.9226,3.9315,3.9315,3.9315,3.9315,3.9464,3.9855,3.9895,4.0064,4.0372,4.0786,4.1103,4.1385,4.0888,4.0438,4.0455,4.0438,4.0571,4.0878,4.0952,4.1094,4.1371,4.1411,4.1411,4.1411,4.1428,4.1444,4.1411,4.1428,4.1411,4.1444,4.1411,4.1411,4.1411,4.1411,4.1411,4.1411,4.1411,4.1153,4.1041,4.1134,4.1163,4.1117,4.1065,4.1163,4.0988,4.0638,4.0789,4.096,4.1117,4.0936,4.0795,4.0659,4.0327,3.988,3.9451,3.9537,3.9369,3.8962,3.9175,3.9315,3.9315,3.9315,3.9315,3.9315,3.9315,3.9315,3.9315,3.9315,3.9315,3.9315,3.9315,3.9315,3.9315,3.9315,3.9315,3.9315,3.9315,3.9315,3.9282,3.8732,3.8407,3.8301,3.7812,3.7484,3.7371,3.6856,3.6508,3.6378,3.5712,3.5255,3.516,3.4988,3.4911,3.4911,3.4911,3.4988,3.5181,3.5849,3.6251,3.6268,3.693,3.7338,3.7354,3.7516,3.7526,3.7394,3.7526,3.7887,3.8344,3.8437,3.8682,3.9249,3.9315,3.9282,3.9299,3.9431,3.954,3.9547,3.9656,4.0047,4.0462,4.0627,4.0878,4.1461,4.1652,4.1692,4.1841,4.1891,4.1891,4.1825,4.1643,4.1461,4.1586,4.165,4.1742,4.1818,4.195,4.204,4.2024,4.1957,4.1941,4.2024,4.1974,4.204,4.1941,4.1957,4.2,4.205,4.2083,4.2007,4.204,4.204,4.1733,4.118,4.1203,4.1324,4.1437,4.151,4.1532,4.1306,4.0966,4.096,4.0772,4.052,4.0413,4.0167,3.9838,3.978,3.9593,3.9332,3.9332,3.9299,3.9258,3.9302,3.9315,3.9315,3.9315,3.9315,3.9315,3.9315,3.9315,3.9315,3.9315,3.9315,3.9315,3.9315,3.9315,3.9315,3.9315,3.9315,3.9315,3.9315,3.9315,3.9315,3.9242,3.8894,3.8241,3.8152,3.7811,3.7262,3.7084,3.7034,3.6966,3.6309,3.5928,3.5849,3.528,3.4928,3.4961,3.4938,3.5181,3.5876,3.6605,3.699,3.7063,3.7675,3.8099,3.8133,3.8689,3.8795,3.8361,3.8699,3.902,3.9192,3.9176,3.9176,3.9265,3.9342,3.9315,3.9431,3.9905,4.0303,4.0286,4.0736,4.1245,4.1262,4.1368,4.165,4.2298,4.2397,4.2587,4.3035,4.3159,4.3168,4.3043,4.2338,4.1858,4.2232,4.2397,4.2596,4.3126,4.3333,4.3225,4.3142,4.3208,4.335,4.2977,4.3208,4.3175,4.3241,4.34,4.33,4.3085,4.3135,4.3324,4.339,4.3275,4.2844,4.1243,4.1323,4.1363,4.1431,4.1482,4.1464,4.1266,4.0902,4.0954,4.0787,4.0404,4.0176,3.9967,3.9799,3.9573,3.9398,3.9315,3.9315,3.9315,3.9315,3.9315,3.9315,3.9315,3.9315,3.9315,3.9315,3.9315,3.9315,3.9315,3.9315,3.9315,3.9315,3.9315,3.9315,3.9315,3.9315,3.9315,3.9315,3.9315,3.9315,3.9315,3.9315,3.9159,3.8888,3.8848,3.8715,3.839,3.799,3.7735,3.7702,3.7029,3.6655,3.6655,3.6367,3.6208,3.6201,3.6201,3.6324,3.6632,3.7344,3.7752,3.7752,3.8427,3.8854,3.8848,3.9149,3.9166,3.8954,3.912,3.9315,3.9315,3.9315,3.9315,3.9365,3.9673,3.9938,3.9971,4.0578,4.0994,4.1011,4.1236,4.161,4.2007,4.243,4.2802,4.3109,4.3135,4.3284,4.3565,4.3615,4.3615,4.3539,4.3026,4.2861,4.3092,4.3142,4.3291,4.3499,4.3615,4.3615,4.3615,4.3615,4.3598,4.3615,4.3615,4.3615,4.3532,4.3615,4.3615,4.3615,4.3615,4.3615,4.3615,4.3615,4.3258,4.1351,4.1448,4.1454,4.1442,4.1459,4.1459,4.136,4.1219,4.1295,4.1217,4.1036,4.0659,4.052,4.0394,3.9668,3.9315,3.9315,3.9315,3.9315,3.9315,3.9315,3.9315,3.9315,3.9315,3.9415,3.9567,3.9612,3.9718,3.9809,3.9656,3.9613,3.9574,3.9408,3.9315,3.9315,3.9315,3.9315,3.9315,3.9315,3.9315,3.9315,3.9315,3.9315,3.9315,3.9315,3.9315,3.9275,3.8782,3.8487,3.8493,3.7785,3.7394,3.7387,3.7205,3.7119,3.7135,3.7288,3.741,3.7417,3.8089,3.8503,3.8536,3.9027,3.9315,3.9315,3.9315,3.9315,3.9305,3.9488,3.958,3.9315,3.9481,3.9597,3.9663,4.0253,4.0654,4.071,4.1286,4.1702,4.1709,4.1967,4.2189,4.2736,4.3208,4.3532,4.3549,4.3582,4.3615,4.3615,4.3615,4.3615,4.3615,4.3582,4.3582,4.3615,4.3549,4.3615,4.3615,4.3615,4.3615,4.3615,4.3615,4.3615,4.3615,4.3615,4.3615,4.3615,4.3615,4.3615,4.3615,4.3615,4.3615,4.3615,4.3615,4.3615,4.1588,4.1605,4.1616,4.1664,4.1617,4.1652,4.1857,4.2163,4.2157,4.2361,4.2518,4.2147,4.1984,4.1792,4.0181,3.9325,3.9348,3.9415,3.9448,3.9424,3.9391,3.9348,3.9315,3.9315,3.969,4.0299,4.0331,4.0628,4.1156,4.0644,4.0359,4.0326,3.9739,3.9365,3.9408,3.9415,3.9338,3.9375,3.9332,3.9315,3.9315,3.9315,3.9315,3.9315,3.9315,3.9315,3.9299,3.9265,3.9249,3.9242,3.8543,3.8149,3.8099,3.752,3.7218,3.7238,3.7785,3.8156,3.8238,3.8798,3.9192,3.9209,3.9249,3.9315,3.9315,3.9381,3.9398,3.9342,3.9988,4.0081,3.9623,4.0021,4.0336,4.0386,4.0952,4.1312,4.1385,4.2007,4.2414,4.2553,4.2943,4.3251,4.3473,4.3556,4.3598,4.3615,4.3615,4.3615,4.3615,4.3615,4.3615,4.3615,4.3615,4.3615,4.3615,4.3615,4.3615,4.3615,4.3615,4.3615,4.3615,4.3615,4.3615,4.3615,4.3615,4.3615,4.3615,4.3615,4.3615,4.3615,4.3615,4.3615,4.3615,4.3615,4.3615,4.192,4.2424,4.2886,4.3067,4.3061,4.3079,4.3168,4.3302,4.3284,4.3204,4.3053,4.2674,4.2316,4.1977,4.1056,4.0647,4.064,4.0637,4.0647,4.0647,4.0647,4.0647,4.0644,4.0651,4.0753,4.0997,4.105,4.1149,4.1347,4.1129,4.1044,4.1021,4.0786,4.063,4.0557,4.0213,4.0004,3.9962,3.9557,3.9315,3.9348,3.9315,3.9315,3.9315,3.9315,3.9315,3.9315,3.9315,3.9315,3.9315,3.902,3.8921,3.8888,3.8656,3.8513,3.8523,3.8755,3.8897,3.8937,3.9159,3.9315,3.9315,3.9315,3.9332,3.9398,3.9713,4.0004,4.012,4.062,4.0845,4.0772,4.0905,4.1028,4.1143,4.1659,4.209,4.2239,4.2745,4.3192,4.3225,4.3466,4.3598,4.3615,4.3615,4.3615,4.3615,4.3615,4.3615,4.3615,4.3615,4.3615,4.3615,4.3615,4.3615,4.3615,4.3615,4.3615,4.3615,4.3615,4.3615,4.3615,4.3615,4.3615,4.3615,4.3615,4.3615,4.3615,4.3615,4.3615,4.3615,4.3615,4.3615,4.3615,4.3615,4.3615,4.2652,4.3178,4.3676,4.3892,4.3892,4.3892,4.4068,4.4261,4.4296,4.4258,4.4133,4.3658,4.3235,4.2851,4.2344,4.2099,4.205,4.1643,4.1411,4.1411,4.1411,4.1411,4.1425,4.1418,4.1534,4.1785,4.2022,4.2105,4.2083,4.1875,4.1775,4.1735,4.155,4.1411,4.1328,4.0928,4.0727,4.062,4.0223,3.9991,3.9971,3.9974,3.9849,3.969,3.9663,3.9531,3.9332,3.9315,3.9315,3.9315,3.9315,3.9315,3.9315,3.9315,3.9315,3.9315,3.9299,3.9315,3.9315,3.9315,3.9315,3.9332,3.9547,3.9656,3.9713,4.0303,4.0677,4.0869,4.1335,4.1735,4.1808,4.1974,4.2007,4.1917,4.2414,4.2828,4.2894,4.3291,4.3549,4.3565,4.3582,4.3615,4.3615,4.3615,4.3615,4.3615,4.3615,4.3615,4.3615,4.3615,4.3615,4.3615,4.3615,4.3615,4.3615,4.3615,4.3615,4.3615,4.3615,4.3615,4.3615,4.3615,4.3615,4.3615,4.3615,4.3615,4.3615,4.3615,4.3615,4.3615,4.3615,4.3615,4.3615,4.3615,4.3615,4.3886,4.3927,4.3921,4.4062,4.4115,4.4138,4.4431,4.5021,4.5109,4.5347,4.5521,4.5131,4.4572,4.4493,4.3635,4.349,4.3192,4.2165,4.1659,4.1643,4.1593,4.1593,4.1603,4.1651,4.1963,4.2513,4.3208,4.3508,4.339,4.2811,4.2504,4.2364,4.1901,4.1685,4.1494,4.1517,4.1418,4.1368,4.1262,4.1262,4.1394,4.1252,4.0945,4.0468,4.0402,4.0097,3.9441,3.9348,3.9315,3.9315,3.9315,3.9315,3.9315,3.9315,3.9315,3.9315,3.9315,3.9315,3.9348,3.9398,3.9441,3.9613,4.0038,4.0402,4.0485,4.1018,4.1411,4.151,4.205,4.2528,4.262,4.301,4.3135,4.2688,4.3085,4.3457,4.3523,4.3589,4.3615,4.3615,4.3615,4.3615,4.3615,4.3615,4.3615,4.3615,4.3615,4.3615,4.3615,4.3615,4.3615,4.3615,4.3615,4.3615,4.3615,4.3615,4.3615,4.3615,4.3615,4.3615,4.3615,4.3615,4.3615,4.3615,4.3615,4.3615,4.3615,4.3615,4.3615,4.3615,4.3615,4.3615,4.3615,4.3615,4.3615,4.4711,4.4782,4.5279,4.5489,4.5477,4.5489,4.5641,4.5846,4.5869,4.5653,4.531,4.5023,4.4573,4.4061,4.371,4.3615,4.3565,4.3092,4.291,4.287,4.2885,4.2868,4.2886,4.2892,4.3048,4.3251,4.3473,4.3615,4.3565,4.3357,4.3258,4.3184,4.3026,4.2927,4.2811,4.243,4.2149,4.2099,4.1643,4.1411,4.1411,4.1428,4.1295,4.1127,4.1094,4.0961,4.0722,3.9815,3.9332,3.9332,3.9315,3.9315,3.9315,3.9315,3.9315,3.9315,3.9315,3.958,3.9995,4.0078,4.0256,4.0647,4.0961,4.1084,4.116,4.1742,4.2132,4.2215,4.2804,4.3258,4.3291,4.344,4.3466,4.3284,4.3466,4.3615,4.3615,4.3615,4.3615,4.3615,4.3615,4.3615,4.3615,4.3615,4.3615,4.3615,4.3615,4.3615,4.3615,4.3615,4.3615,4.3615,4.3615,4.3615,4.3615,4.3615,4.3615,4.3615,4.3615,4.3615,4.3615,4.3615,4.3615,4.3615,4.3615,4.3615,4.3615,4.3615,4.3615,4.3615,4.3615,4.3615,4.3615,4.3615,4.3615,4.5513,4.5553,4.6003,4.6208,4.6208,4.6208,4.6208,4.6208,4.6208,4.5792,4.5219,4.4965,4.4521,4.3919,4.3676,4.3622,4.3615,4.3615,4.3615,4.3615,4.3615,4.3615,4.3615,4.3615,4.3615,4.3615,4.3615,4.3615,4.3615,4.3615,4.3598,4.3598,4.3615,4.3582,4.3565,4.3159,4.2903,4.2835,4.2463,4.2222,4.2222,4.2199,4.2073,4.1858,4.1808,4.1652,4.1378,4.0521,3.9971,3.9713,3.9464,3.9315,3.9315,3.954,3.972,3.9763,3.9981,4.0322,4.072,4.0763,4.0921,4.1328,4.1643,4.1799,4.1941,4.248,4.2877,4.2986,4.33,4.3615,4.3598,4.3615,4.3615,4.3598,4.3598,4.3615,4.3615,4.3615,4.3615,4.3615,4.3615,4.3615,4.3615,4.3615,4.3615,4.3615,4.3615,4.3615,4.3615,4.3615,4.3615,4.3615,4.3615,4.3615,4.3615,4.3615,4.3615,4.3615,4.3615,4.3615,4.3615,4.3615,4.3615,4.3615,4.3615,4.3615,4.3615,4.3615,4.3615,4.3615,4.3615,4.3615,4.3615,4.3615,4.3615,4.619,4.6208,4.6208,4.6208,4.6208,4.6208,4.6208,4.6208,4.6208,4.5936,4.5478,4.5057,4.4636,4.4196,4.3756,4.3615,4.3615,4.3615,4.3615,4.3615,4.3615,4.3615,4.3615,4.3615,4.3615,4.3615,4.3615,4.3615,4.3615,4.3615,4.3615,4.3615,4.3615,4.3615,4.3582,4.3589,4.3515,4.3473,4.349,4.3433,4.3457,4.349,4.3208,4.2589,4.2553,4.2305,4.1808,4.1501,4.1094,4.0485,3.9882,3.964,3.9607,4.0087,4.0462,4.0462,4.1037,4.1286,4.1411,4.1477,4.1553,4.1768,4.2248,4.2563,4.2653,4.3092,4.3449,4.3466,4.3565,4.3615,4.3615,4.3615,4.3615,4.3615,4.3615,4.3615,4.3615,4.3615,4.3615,4.3615,4.3615,4.3615,4.3615,4.3615,4.3615,4.3615,4.3615,4.3615,4.3615,4.3615,4.3615,4.3615,4.3615,4.3615,4.3615,4.3615,4.3615,4.3615,4.3615,4.3615,4.3615,4.3615,4.3615,4.3615,4.3615,4.3615,4.3615,4.3615,4.3615,4.3615,4.3615,4.3615,4.3615,4.3615,4.3615,4.6208,4.6208,4.6208,4.6208,4.6208,4.6208,4.6208,4.6208,4.6208,4.5795,4.5191,4.4958,4.4496,4.3798,4.3686,4.3615,4.3615,4.3615,4.3615,4.3615,4.3615,4.3615,4.3615,4.3615,4.3615,4.3615,4.3615,4.3615,4.3615,4.3615,4.3615,4.3615,4.3615,4.3615,4.3615,4.3615,4.3615,4.3615,4.3615,4.3615,4.3615,4.3615,4.3523,4.3357,4.3291,4.3192,4.296,4.248,4.1875,4.1196,4.0994,4.0831,4.0779,4.1011,4.1136,4.1186,4.1342,4.1676,4.2106,4.2215,4.2447,4.2953,4.3092,4.33,4.3324,4.349,4.3615,4.3615,4.3615,4.3615,4.3615,4.3615,4.3615,4.3615,4.3615,4.3615,4.3615,4.3615,4.3615,4.3615,4.3615,4.3615,4.3615,4.3615,4.3615,4.3615,4.3615,4.3615,4.3615,4.3615,4.3615,4.3615,4.3615,4.3615,4.3615,4.3615,4.3615,4.3615,4.3615,4.3615,4.3615,4.3615,4.3615,4.3615,4.3615,4.3615,4.3615,4.3615,4.3615,4.3615,4.3615,4.3615,4.3615,4.3615,4.3615,4.6208,4.6208,4.6208,4.6208,4.6208,4.6208,4.6208,4.6208,4.619,4.5836,4.5262,4.4971,4.4542,4.3914,4.3711,4.3615,4.3615,4.3615,4.3615,4.3615,4.3615,4.3615,4.3615,4.3615,4.3615,4.3615,4.3615,4.3615,4.3615,4.3615,4.3615,4.3615,4.3615,4.3615,4.3615,4.3615,4.3615,4.3615,4.3615,4.3615,4.3615,4.3615,4.3598,4.3598,4.3615,4.3615,4.3532,4.3175,4.2497,4.1669,4.1411,4.1411,4.1444,4.1726,4.1851,4.1875,4.2139,4.2553,4.2828,4.2953,4.3159,4.3482,4.3615,4.3615,4.3582,4.3615,4.3615,4.3615,4.3615,4.3615,4.3615,4.3615,4.3615,4.3615,4.3615,4.3615,4.3615,4.3615,4.3615,4.3615,4.3615,4.3615,4.3615,4.3615,4.3615,4.3615,4.3615,4.3615,4.3615,4.3615,4.3615,4.3615,4.3615,4.3615,4.3615,4.3615,4.3615,4.3615,4.3615,4.3615,4.3615,4.3615,4.3615,4.3615,4.3615,4.3615,4.3615,4.3615,4.3615,4.3615,4.3615,4.3615,4.3615,4.3615,4.3615,4.6208,4.6208,4.6208,4.6208,4.6208,4.6208,4.6208,4.6208,4.6208,4.5948,4.5521,4.5101,4.4667,4.4288,4.3793,4.3615,4.3615,4.3615,4.3615,4.3615,4.3615,4.3615,4.3615,4.3615,4.3615,4.3615,4.3615,4.3615,4.3615,4.3615,4.3615,4.3615,4.3615,4.3615,4.3615,4.3615,4.3615,4.3615,4.3615,4.3615,4.3615,4.3615,4.3615,4.3615,4.3615,4.3615,4.3615,4.349,4.2977,4.1726,4.1633,4.1775,4.1825,4.2338,4.257,4.2679,4.3076,4.344,4.3573,4.3499,4.3549,4.3615,4.3615,4.3615,4.3615,4.3615,4.3615,4.3615,4.3615,4.3615,4.3615,4.3615,4.3615,4.3615,4.3615,4.3615,4.3615,4.3615,4.3615,4.3615,4.3615,4.3615,4.3615,4.3615,4.3615,4.3615,4.3615,4.3615,4.3615,4.3615,4.3615,4.3615,4.3615,4.3615,4.3615,4.3615,4.3615,4.3615,4.3615,4.3615,4.3615,4.3615,4.3615,4.3615,4.3615,4.3615,4.3615,4.3615,4.3615,4.3615,4.3615,4.3615,4.3615,4.3615,4.3615,4.6208,4.6208,4.6208,4.6208,4.6208,4.6208,4.6208,4.6208,4.6208,4.5972,4.5562,4.5107,4.4708,4.4296,4.3864,4.3615,4.3622,4.3615,4.3615,4.3615,4.3615,4.3615,4.3615,4.3615,4.3615,4.3615,4.3615,4.3615,4.3615,4.3615,4.3615,4.3615,4.3615,4.3615,4.3615,4.3615,4.3615,4.3615,4.3615,4.3615,4.3615,4.3615,4.3615,4.3615,4.3615,4.3615,4.3615,4.3615,4.3433,4.3201,4.3052,4.296,4.301,4.3175,4.3275,4.3317,4.3433,4.3615,4.3615,4.3615,4.3615,4.3615,4.3615,4.3615,4.3615,4.3615,4.3615,4.3615,4.3615,4.3615,4.3615,4.3615,4.3615,4.3615,4.3615,4.3615,4.3615,4.3615,4.3615,4.3615,4.3615,4.3615,4.3615,4.3615,4.3615,4.3615,4.3615,4.3615,4.3615,4.3615,4.3615,4.3615,4.3615,4.3615,4.3615,4.3615,4.3615,4.3615,4.3615,4.3615,4.3615,4.3615,4.3615,4.3615,4.3615,4.3615,4.3615,4.3615,4.3615,4.3615,4.3615,4.3615,4.3615,4.3615,4.3615,4.6208,4.6208,4.6208,4.6208,4.6208,4.6208,4.6208,4.6208,4.6208,4.6078,4.5813,4.542,4.4998,4.456,4.4124,4.3833,4.3628,4.3615,4.3615,4.3615,4.3615,4.3615,4.3615,4.3615,4.3615,4.3615,4.3615,4.3615,4.3615,4.3615,4.3615,4.3615,4.3615,4.3615,4.3615,4.3615,4.3615,4.3615,4.3615,4.3615,4.3615,4.3615,4.3615,4.3615,4.3615,4.3615,4.3615,4.3615,4.3615,4.3615,4.3615,4.3615,4.3615,4.3615,4.3615,4.3615,4.3615,4.3615,4.3615,4.3615,4.3615,4.3615,4.3615,4.3615,4.3615,4.3615,4.3615,4.3615,4.3615,4.3615,4.3615,4.3615,4.3615,4.3615,4.3615,4.3615,4.3615,4.3615,4.3615,4.3615,4.3615,4.3615,4.3615,4.3615,4.3615,4.3615,4.3615,4.3615,4.3615,4.3615,4.3615,4.3615,4.3615,4.3615,4.3615,4.3615,4.3615,4.3615,4.3615,4.3615,4.3615,4.3615,4.3615,4.3615,4.3615,4.3615,4.3615,4.3615,4.3615,4.3615,4.3615,4.3615,4.3615,4.3615,4.3615,4.6208,4.6208,4.6208,4.6208,4.6208,4.6208,4.6208,4.6208,4.6208,4.6184,4.6116,4.5784,4.5264,4.4867,4.4453,4.4054,4.371,4.3615,4.3615,4.3615,4.3615,4.3615,4.3615,4.3615,4.3615,4.3615,4.3615,4.3615,4.3615,4.3615,4.3615,4.3615,4.3615,4.3615,4.3615,4.3615,4.3615,4.3615,4.3615,4.3615,4.3615,4.3615,4.3615,4.3615,4.3615,4.3615,4.3615,4.3615,4.3615,4.3615,4.3615,4.3615,4.3615,4.3615,4.3615,4.3615,4.3615,4.3615,4.3615,4.3615,4.3615,4.3615,4.3615,4.3615,4.3615,4.3615,4.3615,4.3615,4.3615,4.3615,4.3615,4.3615,4.3615,4.3615,4.3615,4.3615,4.3615,4.3615,4.3615,4.3615,4.3615,4.3615,4.3615,4.3615,4.3615,4.3615,4.3615,4.3615,4.3615,4.3615,4.3615,4.3615,4.3615,4.3615,4.3615,4.3615,4.3615,4.3615,4.3615,4.3615,4.3615,4.3615,4.3615,4.3615,4.3615,4.3615,4.3615,4.3615,4.3615,4.3615,4.3615,4.3615,4.3615,4.3615,4.3615,4.6208,4.6208,4.6208,4.6208,4.6208,4.6208,4.6208,4.6208,4.6208,4.6208,4.6141,4.579,4.5372,4.4913,4.448,4.4035,4.371,4.3615,4.3615,4.3615,4.3615,4.3615,4.3615,4.3615,4.3615,4.3615,4.3615,4.3615,4.3615,4.3615,4.3615,4.3615,4.3615,4.3615,4.3615,4.3615,4.3615,4.3615,4.3615,4.3615,4.3615,4.3615,4.3615,4.3615,4.3615,4.3615,4.3615,4.3615,4.3615,4.3615,4.3615,4.3615,4.3615,4.3615,4.3615,4.3615,4.3615,4.3615,4.3615,4.3615,4.3615,4.3615,4.3615,4.3615,4.3615,4.3615,4.3615,4.3615,4.3615,4.3615,4.3615,4.3615,4.3615,4.3615,4.3615,4.3615,4.3615,4.3615,4.3615,4.3615,4.3615,4.3615,4.3615,4.3615,4.3615,4.3615,4.3615,4.3615,4.3615,4.3615,4.3615,4.3615,4.3615,4.3615,4.3615,4.3615,4.3615,4.3615,4.3615,4.3615,4.3615,4.3615,4.3615,4.3615,4.3615,4.3615,4.3615,4.3615,4.3615,4.3615,4.3615,4.3615,4.3615,4.3615,4.3615,4.6208,4.6208,4.6208,4.6208,4.6208,4.6208,4.6208,4.6208,4.6208,4.6208,4.6147,4.5974,4.5671,4.5236,4.4804,4.4255,4.3747,4.3615,4.3615,4.3615,4.3615,4.3615,4.3615,4.3615,4.3615,4.3615,4.3615,4.3615,4.3615,4.3615,4.3615,4.3615,4.3615,4.3615,4.3615,4.3615,4.3615,4.3615,4.3615,4.3615,4.3615,4.3615,4.3615,4.3615,4.3615,4.3615,4.3615,4.3615,4.3615,4.3615,4.3615,4.3615,4.3615,4.3615,4.3615,4.3615,4.3615,4.3615,4.3615,4.3615,4.3615,4.3615,4.3615,4.3615,4.3615,4.3615,4.3615,4.3615,4.3615,4.3615,4.3615,4.3615,4.3615,4.3615,4.3615,4.3615,4.3615,4.3615,4.3615,4.3615,4.3615,4.3615,4.3615,4.3615,4.3615,4.3615,4.3615,4.3615,4.3615,4.3615,4.3615,4.3615,4.3615,4.3615,4.3615,4.3615,4.3615,4.3615,4.3615,4.3615,4.3615,4.3615,4.3615,4.3615,4.3615,4.3615,4.3615,4.3615,4.3615,4.3615,4.3615,4.3615,4.3615,4.3615,4.3615,4.6208,4.6208,4.6208,4.6208,4.6208,4.6208,4.6208,4.6208,4.6208,4.6208,4.6208,4.6159,4.5949,4.5529,4.4974,4.4347,4.3645,4.3615,4.3615,4.3615,4.3615,4.3615,4.3615,4.3615,4.3615,4.3615,4.3615,4.3615,4.3615,4.3615,4.3615,4.3615,4.3615,4.3615,4.3615,4.3615,4.3615,4.3615,4.3615,4.3615,4.3615,4.3615,4.3615,4.3615,4.3615,4.3615,4.3615,4.3615,4.3615,4.3615,4.3615,4.3615,4.3615,4.3615,4.3615,4.3615,4.3615,4.3615,4.3615,4.3615,4.3615,4.3615,4.3615,4.3615,4.3615,4.3615,4.3615,4.3615,4.3615,4.3615,4.3615,4.3615,4.3615,4.3615,4.3615,4.3615,4.3615,4.3615,4.3615,4.3615,4.3615,4.3615,4.3615,4.3615,4.3615,4.3615,4.3615,4.3615,4.3615,4.3615,4.3615,4.3615,4.3615,4.3615,4.3615,4.3615,4.3615,4.3615,4.3615,4.3615,4.3615,4.3615,4.3615,4.3615,4.3615,4.3615,4.3615,4.3615,4.3615,4.3615,4.3615,4.3615,4.3615,4.3615,4.3615,4.6208,4.6208,4.6208,4.6208,4.6208,4.6208,4.6208,4.6208,4.6208,4.6208,4.6208,4.6171,4.5954,4.5424,4.4718,4.4116,4.3739,4.3615,4.3615,4.3615,4.3615,4.3615,4.3615,4.3615,4.3615,4.3615,4.3615,4.3615,4.3615,4.3615,4.3615,4.3615,4.3615,4.3615,4.3615,4.3615,4.3615,4.3615,4.3615,4.3615,4.3615,4.3615,4.3615,4.3615,4.3615,4.3615,4.3615,4.3615,4.3615,4.3615,4.3615,4.3615,4.3615,4.3615,4.3615,4.3615,4.3615,4.3615,4.3615,4.3615,4.3615,4.3615,4.3615,4.3615,4.3615,4.3615,4.3615,4.3615,4.3615,4.3615,4.3615,4.3615,4.3615,4.3615,4.3615,4.3615,4.3615,4.3615,4.3615,4.3615,4.3615,4.3615,4.3615,4.3615,4.3615,4.3615,4.3615,4.3615,4.3615,4.3615,4.3615,4.3615,4.3615,4.3615,4.3615,4.3615,4.3615,4.3615,4.3615,4.3615,4.3615,4.3615,4.3615,4.3615,4.3615,4.3615,4.3615,4.3615,4.3615,4.3615,4.3615,4.3615,4.3615,4.3615,4.3615,4.6208,4.6208,4.6208,4.6208,4.6208,4.6208,4.6208,4.6208,4.6208,4.6208,4.6141,4.5942,4.5503,4.4903,4.4406,4.4035,4.3687,4.3615,4.3615,4.3615,4.3615,4.3615,4.3615,4.3615,4.3615,4.3615,4.3615,4.3615,4.3615,4.3615,4.3615,4.3615,4.3615,4.3615,4.3615,4.3615,4.3615,4.3615,4.3615,4.3615,4.3615,4.3615,4.3615,4.3615,4.3615,4.3615,4.3615,4.3615,4.3615,4.3615,4.3615,4.3615,4.3615,4.3615,4.3615,4.3615,4.3615,4.3615,4.3615,4.3615,4.3615,4.3615,4.3615,4.3615,4.3615,4.3615,4.3615,4.3615,4.3615,4.3615,4.3615,4.3615,4.3615,4.3615,4.3615,4.3615,4.3615,4.3615,4.3615,4.3615,4.3615,4.3615,4.3615,4.3615,4.3615,4.3615,4.3615,4.3615,4.3615,4.3615,4.3615,4.3615,4.3615,4.3615,4.3615,4.3615,4.3615,4.3615,4.3615,4.3615,4.3615,4.3615,4.3615,4.3615,4.3615,4.3615,4.3615,4.3615,4.3615,4.3615,4.3615,4.3615,4.3615,4.3615,4.3631,4.6208,4.6208,4.6208,4.6208,4.6208,4.6208,4.6208,4.6208,4.6208,4.6208,4.6097,4.5767,4.5133,4.4456,4.4296,4.4051,4.363,4.3615,4.3615,4.3615,4.3615,4.3615,4.3615,4.3615,4.3615,4.3615,4.3615,4.3615,4.3615,4.3615,4.3615,4.3615,4.3615,4.3615,4.3615,4.3615,4.3615,4.3615,4.3615,4.3615,4.3615,4.3615,4.3615,4.3615,4.3615,4.3615,4.3615,4.3615,4.3615,4.3615,4.3615,4.3615,4.3615,4.3615,4.3615,4.3615,4.3615,4.3615,4.3615,4.3615,4.3615,4.3615,4.3615,4.3615,4.3615,4.3615,4.3615,4.3615,4.3615,4.3615,4.3615,4.3615,4.3615,4.3615,4.3615,4.3615,4.3615,4.3615,4.3615,4.3615,4.3615,4.3615,4.3615,4.3615,4.3615,4.3615,4.3615,4.3615,4.3615,4.3615,4.3615,4.3615,4.3615,4.3615,4.3615,4.3615,4.3615,4.3615,4.3615,4.3615,4.3615,4.3615,4.3615,4.3615,4.3615,4.3615,4.3615,4.3615,4.3615,4.3615,4.3615,4.3615,4.3615,4.3631,4.3788,4.6208,4.6208,4.6208,4.6208,4.6208,4.6208,4.6208,4.6208,4.6208,4.6178,4.6085,4.5716,4.5065,4.4463,4.4217,4.3993,4.3613,4.3615,4.3615,4.3615,4.3615,4.3615,4.3615,4.3615,4.3615,4.3615,4.3615,4.3615,4.3615,4.3615,4.3615,4.3615,4.3615,4.3615,4.3615,4.3615,4.3615,4.3615,4.3615,4.3615,4.3615,4.3615,4.3615,4.3615,4.3615,4.3615,4.3615,4.3615,4.3615,4.3615,4.3615,4.3615,4.3615,4.3615,4.3615,4.3615,4.3615,4.3615,4.3615,4.3615,4.3615,4.3615,4.3615,4.3615,4.3615,4.3615,4.3615,4.3615,4.3615,4.3615,4.3615,4.3615,4.3615,4.3615,4.3615,4.3615,4.3615,4.3615,4.3615,4.3615,4.3615,4.3615,4.3615,4.3615,4.3615,4.3615,4.3615,4.3615,4.3615,4.3615,4.3615,4.3615,4.3615,4.3615,4.3615,4.3615,4.3615,4.3615,4.3615,4.3615,4.3615,4.3615,4.3615,4.3615,4.3615,4.3615,4.3615,4.3615,4.3615,4.3615,4.3615,4.3615,4.3705,4.3804,4.4084,4.6208,4.6208,4.6208,4.6208,4.6208,4.6208,4.6208,4.6208,4.6208,4.6054,4.5822,4.5337,4.4845,4.4357,4.3964,4.3782,4.3613,4.3615,4.3615,4.3615,4.3615,4.3615,4.3615,4.3615,4.3615,4.3615,4.3615,4.3615,4.3615,4.3615,4.3615,4.3615,4.3615,4.3615,4.3615,4.3615,4.3615,4.3615,4.3615,4.3615,4.3615,4.3615,4.3615,4.3615,4.3615,4.3615,4.3615,4.3615,4.3615,4.3615,4.3615,4.3615,4.3615,4.3615,4.3615,4.3615,4.3615,4.3615,4.3615,4.3615,4.3615,4.3615,4.3615,4.3615,4.3615,4.3615,4.3615,4.3615,4.3615,4.3615,4.3615,4.3615,4.3615,4.3615,4.3615,4.3615,4.3615,4.3615,4.3615,4.3615,4.3615,4.3615,4.3615,4.3615,4.3615,4.3615,4.3615,4.3615,4.3615,4.3615,4.3615,4.3615,4.3615,4.3615,4.3615,4.3615,4.3615,4.3615,4.3615,4.3615,4.3615,4.3615,4.3615,4.3615,4.3615,4.3615,4.3615,4.3615,4.3615,4.3615,4.3615,4.3615,4.3755,4.3977,4.4456,4.601,4.619,4.6208,4.6208,4.6208,4.6208,4.6208,4.6208,4.6208,4.5968,4.558,4.5218,4.4783,4.4321,4.4015,4.3732,4.3658,4.3615,4.3615,4.3615,4.3615,4.3615,4.3615,4.3615,4.3615,4.3615,4.3615,4.3615,4.3615,4.3615,4.3615,4.3615,4.3615,4.3615,4.3615,4.3615,4.3615,4.3615,4.3615,4.3615,4.3615,4.3615,4.3615,4.3615,4.3615,4.3615,4.3615,4.3615,4.3615,4.3615,4.3615,4.3615,4.3615,4.3615,4.3615,4.3615,4.3615,4.3615,4.3615,4.3615,4.3615,4.3615,4.3615,4.3615,4.3615,4.3615,4.3615,4.3615,4.3615,4.3615,4.3615,4.3615,4.3615,4.3615,4.3615,4.3615,4.3615,4.3615,4.3615,4.3615,4.3615,4.3615,4.3615,4.3615,4.3672,4.3648,4.3615,4.3615,4.3615,4.3615,4.3615,4.3615,4.3615,4.3615,4.3615,4.3631,4.3655,4.3615,4.3615,4.3615,4.3615,4.3681,4.3664,4.3615,4.3615,4.3615,4.3631,4.3648,4.3631,4.3615,4.3631,4.3705,4.4101,4.4406,4.4961,4.5536,4.6173,4.6126,4.612,4.605,4.6179,4.6179,4.6085,4.6103,4.5882,4.5567,4.5472,4.5069,4.4477,4.4243,4.3964,4.365,4.3615,4.3615,4.3615,4.3615,4.3615,4.3615,4.3615,4.3615,4.3615,4.3615,4.3615,4.3615,4.3615,4.3615,4.3615,4.3615,4.3615,4.3615,4.3615,4.3615,4.3615,4.3615,4.3615,4.3615,4.3615,4.3615,4.3615,4.3615,4.3615,4.3615,4.3615,4.3615,4.3615,4.3615,4.3615,4.3615,4.3615,4.3615,4.3615,4.3615,4.3615,4.3615,4.3615,4.3615,4.3615,4.3615,4.3615,4.3615,4.3615,4.3615,4.3615,4.3615,4.3615,4.3615,4.3615,4.3615,4.3615,4.3615,4.3615,4.3615,4.3615,4.3615,4.3615,4.3615,4.3615,4.3615,4.3631,4.3705,4.3688,4.3631,4.3615,4.3648,4.3615,4.3622,4.3615,4.3631,4.3821,4.3821,4.3738,4.3705,4.3648,4.3837,4.4102,4.4102,4.4169,4.4053,4.3804,4.3986,4.4325,4.402,4.3698,4.3887,4.4093,4.3845,4.3911,4.4357,4.4928,4.5565,4.4612,4.467,4.467,4.467,4.4822,4.5799,4.5939,4.5524,4.5466,4.5405,4.535,4.5468,4.5288,4.4776,4.4392,4.408,4.3673,4.3615,4.3615,4.3615,4.3615,4.3615,4.3615,4.3615,4.3615,4.3615,4.3615,4.3615,4.3615,4.3615,4.3615,4.3615,4.3615,4.3615,4.3615,4.3615,4.3615,4.3615,4.3615,4.3615,4.3615,4.3615,4.3615,4.3615,4.3615,4.3615,4.3615,4.3615,4.3615,4.3615,4.3615,4.3615,4.3615,4.3615,4.3615,4.3615,4.3615,4.3615,4.3615,4.3615,4.3615,4.3615,4.3615,4.3615,4.3615,4.3615,4.3615,4.3615,4.3615,4.3615,4.3615,4.3615,4.3615,4.3615,4.3615,4.3615,4.3615,4.3615,4.3615,4.3615,4.3615,4.3655,4.3688,4.4176,4.4309,4.4193,4.416,4.3904,4.3847,4.3705,4.3639,4.3615,4.3672,4.3944,4.4101,4.425,4.4531,4.4714,4.4929,4.5194,4.5128,4.4805,4.4879,4.4846,4.4962,4.5061,4.4813,4.4614,4.4622,4.4629,4.4539,4.4482,4.4828,4.5557,4.6385,4.3939,4.4026,4.3939,4.3892,4.405,4.498,4.5103,4.4717,4.4688,4.4676,4.4767,4.5171,4.5051,4.4625,4.4482,4.4114,4.3665,4.3615,4.3615,4.3615,4.3615,4.3615,4.3615,4.3615,4.3615,4.3615,4.3615,4.3615,4.3615,4.3615,4.3615,4.3615,4.3615,4.3615,4.3615,4.3615,4.3615,4.3615,4.3615,4.3615,4.3615,4.3615,4.3615,4.3615,4.3615,4.3615,4.3615,4.3615,4.3615,4.3615,4.3615,4.3615,4.3615,4.3615,4.3615,4.3615,4.3615,4.3615,4.3615,4.3615,4.3615,4.3615,4.3615,4.3615,4.3615,4.3615,4.3615,4.3615,4.3615,4.3615,4.3615,4.3615,4.3615,4.3615,4.3615,4.3615,4.3615,4.3615,4.3615,4.3615,4.3681,4.3722,4.4027,4.4598,4.5086,4.4903,4.473,4.4507,4.4301,4.4209,4.416,4.4193,4.4292,4.4664,4.492,4.5027,4.5342,4.5747,4.5888,4.6004,4.5723,4.5367,4.564,4.5822,4.5657,4.5566,4.5673,4.5615,4.5449,4.5432,4.5507,4.5474,4.5458,4.6104,4.6949,4.3533,4.4132,4.3932,4.3763,4.381,4.3804,4.3822,4.3869,4.3845,4.3851,4.392,4.4709,4.4664,4.4139,4.4554,4.437,4.373,4.3613,4.3615,4.3615,4.3615,4.3615,4.3615,4.3615,4.3615,4.3615,4.3615,4.3615,4.3615,4.3615,4.3615,4.3615,4.3615,4.3615,4.3615,4.3615,4.3615,4.3615,4.3615,4.3615,4.3615,4.3615,4.3615,4.3615,4.3615,4.3615,4.3615,4.3615,4.3615,4.3615,4.3615,4.3615,4.3615,4.3615,4.3615,4.3615,4.3615,4.3615,4.3615,4.3615,4.3615,4.3615,4.3615,4.3615,4.3615,4.3615,4.3615,4.3615,4.3615,4.3615,4.3615,4.3615,4.3615,4.3615,4.3615,4.3615,4.3615,4.3615,4.3615,4.3648,4.3755,4.4011,4.4705,4.5283,4.5855,4.5864,4.5814,4.598,4.574,4.5284,4.5251,4.5242,4.5384,4.5599,4.5772,4.5822,4.6137,4.6535,4.6419,4.6435,4.6153,4.612,4.6419,4.6485,4.6137,4.6038,4.6153,4.6161,4.6062,4.6128,4.6286,4.6336,4.6286,4.6609,4.7289,4.2557,4.2564,4.2349,4.2266,4.2254,4.2271,4.257,4.3033,4.2835,4.2835,4.3173,4.4219,4.4172,4.389,4.4561,4.4253,4.3906,4.3615,4.3615,4.3615,4.3615,4.3615,4.3615,4.3615,4.3615,4.3615,4.3615,4.3615,4.3615,4.3615,4.3615,4.3615,4.3615,4.3615,4.3615,4.3615,4.3615,4.3615,4.3615,4.3615,4.3615,4.3615,4.3615,4.3615,4.3615,4.3615,4.3615,4.3615,4.3615,4.3615,4.3615,4.3615,4.3615,4.3615,4.3615,4.3615,4.3615,4.3615,4.3615,4.3615,4.3615,4.3615,4.3615,4.3615,4.3615,4.3615,4.3615,4.3615,4.3631,4.3631,4.3755,4.3804,4.3887,4.3994,4.3994,4.4003,4.4003,4.4003,4.4003,4.4086,4.4169,4.4796,4.5482,4.6104,4.6617,4.6725,4.6874,4.7057,4.699,4.6485,4.6236,4.622,4.622,4.6361,4.651,4.6576,4.6941,4.7239,4.709,4.7081,4.7164,4.7206,4.7305,4.7222,4.6957,4.6783,4.6667,4.67,4.6816,4.6899,4.7048,4.7073,4.7156,4.7355,4.752,4.2287,4.2051,4.1924,4.1829,4.1724,4.1736,4.1986,4.2238,4.1905,4.1892,4.2192,4.2958,4.3258,4.3193,4.3765,4.3949,4.3658,4.3615,4.3615,4.3615,4.3615,4.3615,4.3615,4.3615,4.3615,4.3615,4.3615,4.3615,4.3615,4.3615,4.3615,4.3615,4.3615,4.3615,4.3615,4.3615,4.3615,4.3615,4.3615,4.3615,4.3615,4.3615,4.3615,4.3615,4.3615,4.3615,4.3615,4.3615,4.3615,4.3615,4.3615,4.3615,4.3615,4.3615,4.3615,4.3615,4.3615,4.3615,4.3615,4.3615,4.3615,4.3615,4.3615,4.3615,4.3615,4.3615,4.3615,4.3615,4.3655,4.3705,4.3887,4.4077,4.4283,4.4498,4.4515,4.4531,4.4531,4.4531,4.4573,4.4656,4.5078,4.5682,4.6319,4.6932,4.7338,4.7404,4.7487,4.7603,4.7587,4.7313,4.7106,4.7073,4.7007,4.7007,4.7139,4.7239,4.7454,4.7653,4.7686,4.7736,4.8001,4.7934,4.7719,4.7785,4.7868,4.7603,4.7247,4.7545,4.7694,4.7678,4.7554,4.7554,4.757,4.7686,4.7835,4.2495,4.2313,4.23,4.2082,4.1918,4.187,4.1786,4.156,4.1186,4.0994,4.1148,4.1421,4.1833,4.2186,4.2969,4.3413,4.3409,4.349,4.3615,4.3615,4.3615,4.3615,4.3615,4.3615,4.3615,4.3615,4.3615,4.3615,4.3615,4.3615,4.3615,4.3615,4.3615,4.3615,4.3615,4.3615,4.3615,4.3615,4.3615,4.3615,4.3615,4.3615,4.3615,4.3615,4.3615,4.3615,4.3615,4.3615,4.3615,4.3615,4.3615,4.3615,4.3615,4.3615,4.3615,4.3615,4.3615,4.3615,4.3615,4.3615,4.3615,4.3615,4.3615,4.3615,4.3615,4.3615,4.3615,4.3705,4.3755,4.4068,4.43,4.4671,4.4953,4.5119,4.5185,4.5202,4.5202,4.5251,4.5367,4.5516,4.5897,4.6501,4.6941,4.7504,4.7636,4.786,4.7926,4.8001,4.7951,4.7802,4.7736,4.7686,4.7587,4.7487,4.762,4.7719,4.7835,4.7984,4.8001,4.8001,4.8001,4.8001,4.8001,4.8001,4.8001,4.8001,4.7868,4.7984,4.7984,4.7934,4.7868,4.7951,4.7984,4.7968,4.7968,4.2562,4.2477,4.215,4.1938,4.1892,4.1747,4.1665,4.1526,4.0837,4.071,4.0963,4.1084,4.1168,4.1358,4.2509,4.3005,4.2922,4.3407,4.3565,4.3615,4.3615,4.3615,4.3615,4.3615,4.3615,4.3615,4.3615,4.3615,4.3615,4.3615,4.3615,4.3615,4.3615,4.3615,4.3615,4.3615,4.3615,4.3615,4.3615,4.3615,4.3615,4.3615,4.3615,4.3615,4.3615,4.3615,4.3615,4.3615,4.3615,4.3615,4.3615,4.3615,4.3615,4.3615,4.3615,4.3615,4.3615,4.3615,4.3615,4.3615,4.3615,4.3615,4.3615,4.3615,4.3615,4.3615,4.3672,4.3779,4.4035,4.439,4.4812,4.5242,4.5657,4.5806,4.5938,4.5946,4.5922,4.6038,4.617,4.6452,4.68,4.7156,4.7587,4.7802,4.7951,4.8001,4.7984,4.8001,4.8001,4.7918,4.7901,4.7868,4.7901,4.7901,4.8001,4.8001,4.8001,4.8001,4.8001,4.8001,4.8001,4.8001,4.8001,4.8001,4.8001,4.8001,4.8001,4.8001,4.8001,4.8001,4.8001,4.8001,4.8001,4.7984,4.8001,4.2693,4.2562,4.2325,4.2213,4.2182,4.1993,4.1762,4.1396,4.0731,4.0452,4.0455,4.0365,4.0391,4.0712,4.1912,4.2624,4.2575,4.3275,4.3532,4.3615,4.3615,4.3615,4.3615,4.363,4.3615,4.3615,4.3615,4.3615,4.3615,4.3615,4.3615,4.3615,4.3615,4.3615,4.3615,4.3615,4.3615,4.3615,4.3615,4.3615,4.3615,4.3615,4.3615,4.3615,4.3615,4.3615,4.3615,4.3615,4.3615,4.3615,4.3615,4.3615,4.3615,4.3615,4.3615,4.3615,4.3615,4.3615,4.3615,4.3615,4.3615,4.3615,4.3615,4.3615,4.3615,4.3615,4.3615,4.3755,4.4274,4.4663,4.5358,4.5855,4.6518,4.6874,4.699,4.7057,4.704,4.709,4.7173,4.7289,4.7487,4.7554,4.7868,4.7885,4.8001,4.8001,4.8001,4.8001,4.8001,4.8001,4.8001,4.8001,4.8001,4.8001,4.8001,4.8001,4.8001,4.8001,4.8001,4.8001,4.8001,4.8001,4.8001,4.8001,4.8001,4.8001,4.8001,4.8001,4.8001,4.8001,4.8001,4.8001,4.8001,4.8001,4.8001,4.2796,4.2649,4.2609,4.2599,4.2555,4.2308,4.1934,4.1401,4.0695,4.0224,4.0001,3.9577,3.9733,4.0289,4.1103,4.1742,4.2454,4.3208,4.3523,4.3615,4.3615,4.3659,4.3674,4.3667,4.3682,4.3682,4.3682,4.3645,4.3615,4.3615,4.3615,4.3615,4.3615,4.3615,4.3615,4.3615,4.3615,4.3615,4.3615,4.3615,4.3615,4.3615,4.3615,4.3615,4.3615,4.3615,4.3615,4.3615,4.3615,4.3615,4.3615,4.3615,4.3615,4.3615,4.3615,4.3615,4.3615,4.3615,4.3615,4.3615,4.3615,4.3615,4.3615,4.3615,4.3615,4.3615,4.3615,4.3878,4.439,4.5068,4.5756,4.6568,4.7255,4.7686,4.7802,4.7885,4.7885,4.7885,4.7918,4.7951,4.7951,4.7951,4.7968,4.8001,4.8001,4.8001,4.8001,4.8001,4.8001,4.8001,4.8001,4.8001,4.8001,4.8001,4.8001,4.8001,4.8001,4.8001,4.8001,4.8001,4.8001,4.8001,4.8001,4.8001,4.8001,4.8001,4.8001,4.8001,4.8001,4.8001,4.8001,4.8001,4.8001,4.8001,4.8001,4.2868,4.2816,4.2665,4.2609,4.253,4.2003,4.1751,4.1601,4.064,4.0198,4.0056,3.9612,3.9431,3.9597,4.0888,4.1593,4.1908,4.2916,4.3488,4.3615,4.3665,4.3724,4.3793,4.3822,4.3846,4.3831,4.3785,4.3734,4.3637,4.3615,4.3615,4.3615,4.3615,4.3615,4.3615,4.3615,4.3615,4.3615,4.3615,4.3615,4.3615,4.3615,4.3615,4.3615,4.3615,4.3615,4.3615,4.3615,4.3615,4.3615,4.3615,4.3615,4.3615,4.3615,4.3615,4.3615,4.3615,4.3615,4.3615,4.3615,4.3615,4.3615,4.3615,4.3615,4.3615,4.3615,4.3672,4.3837,4.4423,4.5259,4.6045,4.7114,4.7868,4.7885,4.7951,4.7968,4.7968,4.7968,4.7984,4.7984,4.7984,4.7984,4.7984,4.8001,4.8001,4.8001,4.8001,4.8001,4.8001,4.8001,4.8001,4.8001,4.8001,4.8001,4.8001,4.8001,4.8001,4.8001,4.8001,4.8001,4.8001,4.8001,4.8001,4.8001,4.8001,4.8001,4.8001,4.8001,4.8001,4.8001,4.8001,4.8001,4.8001,4.8001,4.8001]},{"header":{"parameterUnit":"m.s-1","parameterCategory":1,"la1":31.0,"la2":29.5877,"lo1":-88.7671,"lo2":-86.6584,"dy":0.0162,"dx":0.0185,"nx":115,"ny":88,"refTime":"2023-05-29T18:00:00:Z","depth":0,"parameterNumber":3,"parameterNumberName":"V-component_of_WINDS"},"data":[0.0,0.0,0.0,0.0,0.0,0.0,0.0,0.0,0.0,0.0,0.0,0.0,0.0,0.0,0.0,0.0,0.0,0.0,0.0,0.0,0.0,0.0,0.0,0.0,0.0,0.0,0.0,0.0,0.0,0.0,0.0,0.0,0.0,0.0,0.0,0.0,0.0,0.0,0.0,0.0,0.0,0.0,0.0,0.0,0.0,0.0,0.0,0.0,0.0,0.0,0.0,0.0,0.0,0.0,0.0,0.0,0.0,0.0,0.0,0.0,0.0,0.0,0.0,0.0,0.0,0.0,0.0,0.0,0.0,0.0,0.0,0.0,0.0,0.0,0.0,0.0,0.0,0.0,0.0,0.0,0.0,0.0,0.0,0.0,0.0,0.0,0.0,0.0,0.0,0.0,0.0,0.0,0.0,0.0,0.0,0.0,0.0,0.0,0.0,0.0,0.0,0.0,0.0,0.0,0.0,0.0,0.0,0.0,0.0,0.0,0.0,0.0,0.0,0.0,0.0,0.0,0.0,0.0,0.0,0.0,0.0,0.0,0.0,0.0,0.0,0.0,0.0,0.0,0.0,0.0,0.0,0.0,0.0,0.0,0.0,0.0,0.0,0.0,0.0,0.0,0.0,0.0,0.0,0.0,0.0,0.0,0.0,0.0,0.0,0.0,0.0,0.0,0.0,0.0,0.0,0.0,0.0,0.0,0.0,0.0,0.0,0.0,0.0,0.0,0.0,0.0,0.0,0.0,0.0,0.0,0.0,0.0,0.0,0.0,0.0,0.0,0.0,0.0,0.0,0.0,0.0,0.0,0.0,0.0,0.0,0.0,0.0,0.0,0.0,0.0,0.0,0.0,0.0,0.0,0.0,0.0,0.0,0.0,0.0,0.0,0.0,0.0,0.0,0.0,0.0,0.0,0.0,0.0,0.0,0.0,0.0,0.0,0.0,0.0,0.0,0.0,0.0,0.0,0.0,0.0,0.0,0.0,0.0,0.0,0.0,0.0,0.0,0.0,0.0,0.0,0.0,0.0,0.0,0.0,0.0,0.0,0.0,0.0,0.0,0.0,0.0,0.0,0.0,0.0,0.0,0.0,0.0,0.0,0.0,0.0,0.0,0.0,0.0,0.0,0.0,0.0,0.0,0.0,0.0,0.0,0.0,0.0,0.0,0.0,0.0,0.0,0.0,0.0,0.0,0.0,0.0,0.0,0.0,0.0,0.0,0.0,0.0,0.0,0.0,0.0,0.0,0.0,0.0,0.0,0.0,0.0,0.0,0.0,0.0,0.0,0.0,0.0,0.0,0.0,0.0,0.0,0.0,0.0,0.0,0.0,0.0,0.0,0.0,0.0,0.0,0.0,0.0,0.0,0.0,0.0,0.0,0.0,0.0,0.0,0.0,0.0,0.0,0.0,0.0,0.0,0.0,0.0,0.0,0.0,0.0,0.0,0.0,0.0,0.0,0.0,0.0,0.0,0.0,0.0,0.0,0.0,0.0,0.0,0.0,0.0,0.0,0.0,0.0,0.0,0.0,0.0,0.0,0.0,0.0,0.0,0.0,0.0,0.0,0.0,0.0,0.0,0.0,0.0,0.0,0.0,0.0,0.0,0.0,0.0,0.0,0.0,0.0,0.0,0.0,0.0,0.0,0.0,0.0,0.0,0.0,0.0,0.0,0.0,0.0,0.0,0.0,0.0,0.0,0.0,0.0,0.0,0.0,0.0,0.0,0.0,0.0,0.0,0.0,0.0,0.0,0.0,0.0,0.0,0.0,0.0,0.0,0.0,0.0,0.0,0.0,0.0,0.0,0.0,0.0,0.0,0.0,0.0,0.0,0.0,0.0,0.0,0.0,0.0,0.0,0.0,0.0,0.0,0.0,0.0,0.0,0.0,0.0,0.0,0.0,0.0,0.0,0.0,0.0,0.0,0.0,0.0,0.0,0.0,0.0,0.0,0.0,0.0,0.0,0.0,0.0,0.0,0.0,0.0,0.0,0.0,0.0,0.0,0.0,0.0,0.0,0.0,0.0,0.0,0.0,0.0,0.0,0.0,0.0,0.0,0.0,0.0,0.0,0.0,0.0,0.0,0.0,0.0,0.0,0.0,0.0,0.0,0.0,0.0,0.0,0.0,0.0,0.0,0.0,0.0,0.0,0.0,0.0,0.0,0.0,0.0,0.0,0.0,0.0,0.0,0.0,0.0,0.0,0.0,0.0,0.0,0.0,0.0,0.0,0.0,0.0,0.0,0.0,0.0,0.0,0.0,0.0,0.0,0.0,0.0,0.0,0.0,0.0,0.0,0.0,0.0,0.0,0.0,0.0,0.0,0.0,0.0,0.0,0.0,0.0,0.0,0.0,0.0,0.0,0.0,0.0,0.0,0.0,0.0,0.0,0.0,0.0,0.0,0.0,0.0,0.0,0.0,0.0,0.0,0.0,0.0,0.0,0.0,0.0,0.0,0.0,0.0,0.0,0.0,0.0,0.0,0.0,0.0,0.0,0.0,0.0,0.0,0.0,0.0,0.0,0.0,0.0,0.0,0.0,0.0,0.0,0.0,0.0,0.0,0.0,0.0,0.0,0.0,0.0,0.0,0.0,0.0,0.0,0.0,0.0,0.0,0.0,0.0,0.0,0.0,0.0,0.0,0.0,0.0,0.0,0.0,0.0,0.0,0.0,0.0,0.0,0.0,0.0,0.0,0.0,0.0,0.0,0.0,0.0,0.0,0.0,0.0,0.0,0.0,0.0,0.0,0.0,0.0,0.0,0.0,0.0,0.0,0.0,0.0,0.0,0.0,0.0,0.0,0.0,0.0,0.0,0.0,0.0,0.0,0.0,0.0,0.0,0.0,0.0,0.0,0.0,0.0,0.0,0.0,0.0,0.0,0.0,0.0,0.0,0.0,0.0,0.0,0.0,0.0,0.0,0.0,0.0,0.0,0.0,0.0,0.0,0.0,0.0,0.0,0.0,0.0,0.0,0.0,0.0,0.0,0.0,0.0,0.0,0.0,0.0,0.0,0.0,0.0,0.0,0.0,0.0,0.0,0.0,0.0,0.0,0.0,0.0,0.0,0.0,0.0,0.0,0.0,0.0,0.0,0.0,0.0,0.0,0.0,0.0,0.0,0.0,0.0,0.0,0.0,0.0,0.0,0.0,0.0,0.0,0.0,0.0,0.0,0.0,0.0,0.0,0.0,0.0,0.0,0.0,0.0,0.0,0.0,0.0,0.0,0.0,0.0,0.0,0.0,0.0,0.0,0.0,0.0,0.0,0.0,0.0,0.0,0.0,0.0,0.0,0.0,0.0,0.0,0.0,0.0,0.0,0.0,0.0,0.0,0.0,0.0,0.0,0.0,0.0,0.0,0.0,0.0,0.0,0.0,0.0,0.0,0.0,0.0,0.0,0.0,0.0,0.0,0.0,0.0,0.0,0.0,0.0,0.0,0.0,0.0,0.0,0.0,0.0,0.0,0.0,0.0,0.0,0.0,0.0,0.0,0.0,0.0,0.0,0.0,0.0,0.0,0.0,0.0,0.0,0.0,0.0,0.0,0.0,0.0,0.0,0.0,0.0,0.0,0.0,0.0,0.0,0.0,0.0,0.0,0.0,0.0,0.0,0.0,0.0,0.0,0.0,0.0,0.0,0.0,0.0,0.0,0.0,0.0,0.0,0.0,0.0,0.0,0.0,0.0,0.0,0.0,0.0,0.0,0.0,0.0,0.0,0.0,0.0,0.0,0.0,0.0,0.0,0.0,0.0,0.0,0.0,0.0,0.0,0.0,0.0,0.0,0.0,0.0,0.0,0.0,0.0,0.0,0.0,0.0,0.0,0.0,0.0,0.0,0.0,0.0,0.0,0.0,0.0,0.0,0.0,0.0,0.0,0.0,0.0,0.0,0.0,0.0,0.0,0.0,0.0,0.0,0.0,0.0,0.0,0.0,0.0,0.0,0.0,0.0,0.0,0.0,0.0,0.0,0.0,0.0,0.0,0.0,0.0,0.0,0.0,0.0,0.0,0.0,0.0,0.0,0.0,0.0,0.0,0.0,0.0,0.0,0.0,0.0,0.0,0.0,0.0,0.0,0.0,0.0,0.0,0.0,0.0,0.0,0.0,0.0,0.0,0.0,0.0,0.0,0.0,0.0,0.0,0.0,0.0,0.0,0.0,0.0,0.0,0.0,0.0,0.0,0.0,0.0,0.0,0.0,0.0,0.0,0.0,0.0,0.0,0.0,0.0,0.0,0.0,0.0,0.0,0.0,0.0,0.0,0.0,0.0,0.0,0.0,0.9594,0.0,0.0,0.0,0.0,0.0,0.0,0.0,0.0,0.0,0.0,0.0,0.0,0.0,0.0,0.0,0.0,0.0,0.0,0.0,0.0,0.0,0.0,0.0,0.0,0.0,0.0,0.0,0.0,0.0,0.0,0.0,0.0,0.0,0.0,0.0,0.0,0.0,0.0,0.0,0.0,0.0,0.0,0.0,0.0,0.0,0.0,0.0,0.0,0.0,0.0,0.0,0.0,0.0,0.0,0.0,0.0,0.0,0.0,0.0,0.0,0.0,0.0,0.0,0.0,0.0,0.0,0.0,0.0,0.0,0.0,0.0,0.0,0.0,0.0,0.0,0.0,0.0,0.0,0.0,0.0,0.0,0.0,0.0,0.0,0.0,0.0,0.0,0.0,0.0,0.0,0.0,0.0,0.0,0.0,0.0,0.0,0.0,0.0,0.0,0.0,0.0,0.0,0.0,0.0,0.0,0.0,0.0,0.0,0.0,0.0,0.9607,0.9607,0.9607,0.9607,0.9607,0.0,0.0,0.0,0.0,0.0,0.0,0.0,0.0,0.0,0.0,0.0,0.0,0.0,0.0,0.0,0.0,0.0,0.0,0.0,0.0,0.0,0.0,0.0,0.0,0.0,0.0,0.0,0.0,0.0,0.0,0.0,0.0,0.0,0.0,0.0,0.0,0.0,0.0,0.0,0.0,0.0,0.0,0.0,0.0,0.0,0.0,0.0,0.0,0.0,0.0,0.0,0.0,0.0,0.0,0.0,0.0,0.0,0.0,0.0,0.0,0.0,0.0,0.0,0.0,0.0,0.0,0.0,0.0,0.0,0.0,0.0,0.0,0.0,0.0,0.0,0.0,0.0,0.0,0.0,0.0,0.0,0.0,0.0,0.0,0.0,0.0,0.0,0.0,0.0,0.0,0.0,0.0,0.0,0.0,0.0,0.0,0.0,0.0,0.0,0.0,0.0,0.0,0.0,0.0,0.0,0.0,0.0,0.0,0.0,0.0,0.0,0.0,0.9607,0.9607,0.9607,0.0,0.0,0.0,0.0,0.0,0.0,0.0,0.0,0.0,0.0,0.0,0.0,0.0,0.0,0.0,0.0,0.0,0.0,0.0,0.0,0.0,0.0,0.0,0.0,0.0,0.0,0.0,0.0,0.0,0.0,0.0,0.0,0.0,0.0,0.0,0.0,0.0,0.0,0.0,0.0,0.0,0.0,0.0,0.0,0.0,0.0,0.0,0.0,0.0,0.0,0.0,0.0,0.0,0.0,0.0,0.0,0.0,0.0,0.0,0.0,0.0,0.0,0.0,0.0,0.0,0.0,0.0,0.0,0.0,0.0,0.0,0.0,0.0,0.0,0.0,0.0,0.0,0.0,0.0,0.0,0.0,0.0,0.0,0.0,0.0,0.0,0.0,0.0,0.0,0.0,0.0,0.0,0.0,0.0,0.0,0.0,0.0,0.0,0.0,0.0,0.0,0.0,0.0,0.0,0.0,0.0,0.0,0.0,0.0,0.0,0.9607,0.9607,0.9607,0.0,0.9607,0.0,0.0,0.0,0.0,0.0,0.0,0.0,0.0,0.0,0.0,0.0,0.0,0.0,0.0,0.0,0.0,0.0,0.0,0.0,0.0,0.0,0.0,0.0,0.0,0.0,0.0,0.0,0.0,0.0,0.0,0.0,0.0,0.0,0.0,0.0,0.0,0.0,0.0,0.0,0.0,0.0,0.0,0.0,0.0,0.0,0.0,0.0,0.0,0.0,0.0,0.0,0.0,0.0,0.0,0.0,0.0,0.0,0.0,0.0,0.0,0.0,0.0,0.0,0.0,0.0,0.0,0.0,0.0,0.0,0.0,0.0,0.0,0.0,0.0,0.0,0.0,0.0,0.0,0.0,0.0,0.0,0.0,0.0,0.0,0.0,0.0,0.0,0.0,0.0,0.0,0.0,0.0,0.0,0.0,0.0,0.0,0.0,0.0,0.0,0.0,0.0,0.0,0.0,0.0,0.0,0.0,0.0,0.0,0.0,0.0,0.9607,0.9607,0.9607,0.9607,0.0,0.0,0.0,0.0,0.0,0.0,0.0,0.0,0.0,0.0,0.0,0.0,0.0,0.0,0.0,0.0,0.0,0.0,0.0,0.0,0.0,0.0,0.0,0.0,0.0,0.0,0.0,0.0,0.0,0.0,0.0,0.0,0.0,0.0,0.0,0.0,0.0,0.0,0.0,0.0,0.0,0.0,0.0,0.0,0.0,0.0,0.0,0.0,0.0,0.0,0.0,0.0,0.0,0.0,0.0,0.0,0.0,0.0,0.0,0.0,0.0,0.0,0.0,0.0,0.0,0.0,0.0,0.0,0.0,0.0,0.0,0.0,0.0,0.0,0.0,0.0,0.0,0.0,0.0,0.0,0.0,0.0,0.0,0.0,0.0,0.0,0.0,0.0,0.0,0.0,0.0,0.0,0.0,0.0,0.0,0.0,0.0,0.0,0.0,0.0,0.0,0.0,0.0,0.0,0.0,0.0,0.0,0.0,0.0,0.0,0.9607,0.9607,0.9607,0.9607,0.9607,0.9607,0.0,0.0,0.0,0.0,0.0,0.0,0.0,0.0,0.0,0.0,0.0,0.0,0.0,0.0,0.0,0.0,0.0,0.0,0.0,0.0,0.0,0.0,0.0,0.0,0.0,0.0,0.0,0.0,0.0,0.0,0.0,0.0,0.0,0.0,0.0,0.0,0.0,0.0,0.0,0.0,0.0,0.0,0.0,0.0,0.0,0.0,0.0,0.0,0.0,0.0,0.0,0.0,0.0,0.0,0.0,0.0,0.0,0.0,0.0,0.0,0.0,0.0,0.0,0.0,0.0,0.0,0.0,0.0,0.0,0.0,0.0,0.0,0.0,0.0,0.0,0.0,0.0,0.0,0.0,0.0,0.0,0.0,0.0,0.0,0.0,0.0,0.0,0.0,0.0,0.0,0.0,0.0,0.0,0.0,0.0,0.0,0.0,0.0,0.0,0.0,0.0,0.0,0.0,0.0,0.0,0.0,0.0,0.0,0.9607,0.9607,0.9607,0.9607,0.9607,0.9607,0.0,0.0,0.0,0.0,0.0,0.0,0.0,0.0,0.0,0.0,0.0,0.0,0.0,0.0,0.0,0.0,0.0,0.0,0.0,0.0,0.0,0.0,0.0,0.0,0.0,0.0,0.0,0.0,0.0,0.0,0.0,0.0,0.0,0.0,0.0,0.0,0.0,0.0,0.0,0.0,0.0,0.0,0.0,0.0,0.0,0.0,0.0,0.0,0.0,0.0,0.0,0.0,0.0,0.0,0.0,0.0,0.0,0.0,0.0,0.0,0.0,0.0,0.0,0.0,0.0,0.0,0.0,0.0,0.0,0.0,0.0,0.0,0.0,0.0,0.0,0.0,0.0,0.0,0.0,0.0,0.0,0.0,0.0,0.0,0.0,0.0,0.0,0.0,0.0,0.0,0.0,0.0,0.0,0.0,0.0,0.0,0.0,0.0,0.0,0.0,0.0,0.0,0.0,0.0,0.0,0.0,0.0,0.0,0.0,0.9607,0.9607,0.9607,0.9607,0.9607,0.9607,0.0,0.0,0.0,0.0,0.0,0.0,0.0,0.0,0.0,0.0,0.0,0.0,0.0,0.0,0.0,0.0,0.0,0.0,0.0,0.0,0.0,0.0,0.0,0.0,0.0,0.0,0.0,0.0,0.0,0.0,0.0,0.0,0.0,0.0,0.0,0.0,0.0,0.0,0.0,0.0,0.0,0.0,0.0,0.0,0.0,0.0,0.0,0.0,0.0,0.0,0.0,0.0,0.0,0.0,0.0,0.0,0.0,0.0,0.0,0.0,0.0,0.0,0.0,0.0,0.0,0.0,0.0,0.0,0.0,0.0,0.0,0.0,0.0,0.0,0.0,0.0,0.0,0.0,0.0,0.0,0.0,0.0,0.0,0.0,0.0,0.0,0.0,0.0,0.0,0.0,0.0,0.0,0.0,0.0,0.0,0.0,0.0,0.0,0.0,0.0,0.0,0.0,0.0,0.0,0.0,0.0,0.0,0.0,0.0,0.9607,0.0,0.9607,0.9607,0.9607,0.9607,0.0,0.0,0.0,0.0,0.0,0.0,0.0,0.0,0.0,0.0,0.0,0.0,0.0,0.0,0.0,0.0,0.0,0.0,0.0,0.0,0.0,0.0,0.0,0.0,0.0,0.0,0.0,0.0,0.0,0.0,0.0,0.0,0.0,0.0,0.0,0.0,0.0,0.0,0.0,0.0,0.0,0.0,0.0,0.0,0.0,0.0,0.0,0.0,0.0,0.0,0.0,0.0,0.0,0.0,0.0,0.0,0.0,0.0,0.0,0.0,0.0,0.0,0.0,0.0,0.0,0.0,0.0,0.0,0.0,0.0,0.0,0.0,0.0,0.0,0.0,0.0,0.0,0.0,0.0,0.0,0.0,0.0,0.0,0.0,0.0,0.0,0.0,0.0,0.0,0.0,0.0,0.0,0.0,0.0,0.0,0.0,0.0,0.0,0.0,0.0,0.0,0.0,0.0,0.0,0.0,0.0,0.0,0.0,0.9616,0.9616,0.9636,0.9652,0.9622,0.9645,0.9623,0.0,0.0,0.0,0.0,0.0,0.0,0.0,0.0,0.0,0.0,0.0,0.0,0.0,0.0,0.0,0.0,0.0,0.0,0.0,0.0,0.0,0.0,0.0,0.0,0.0,0.0,0.0,0.0,0.0,0.0,0.0,0.0,0.0,0.0,0.0,0.0,0.0,0.0,0.0,0.0,0.0,0.0,0.0,0.0,0.0,0.0,0.0,0.0,0.0,0.0,0.0,0.0,0.0,0.0,0.0,0.0,0.0,0.0,0.0,0.0,0.0,0.0,0.0,0.0,0.0,0.0,0.0,0.0,0.0,0.0,0.0,0.0,0.0,0.0,0.0,0.0,0.0,0.0,0.0,0.0,0.0,0.0,0.0,0.0,0.0,0.0,0.0,0.0,0.0,0.0,0.0,0.0,0.0,0.0,0.0,0.0,0.0,0.0,0.0,0.0,0.0,0.0,0.0,0.0,0.0,0.0,0.0,0.0,0.0,0.9945,1.017,1.0294,1.028,1.0294,1.028,0.0,0.0,0.0,0.0,0.0,0.0,0.0,0.0,0.0,0.0,0.0,0.0,0.0,0.0,0.0,0.0,0.0,0.0,0.0,0.0,0.0,0.0,0.0,0.0,0.0,0.0,0.0,0.0,0.0,0.0,0.0,0.0,0.0,0.0,0.0,0.0,0.0,0.0,0.0,0.0,0.0,0.0,0.0,0.0,0.0,0.0,0.0,0.0,0.0,0.0,0.0,0.0,0.0,0.0,0.0,0.0,0.0,0.0,0.0,0.0,0.0,0.0,0.0,0.0,0.0,0.0,0.0,0.0,0.0,0.0,0.0,0.0,0.0,0.0,0.0,0.0,0.0,0.0,0.0,0.0,0.0,0.0,0.0,0.0,0.0,0.0,0.0,0.0,0.0,0.0,0.0,0.0,0.0,0.0,0.0,0.0,0.0,0.0,0.0,0.0,0.0,0.0,0.0,0.0,0.0,0.0,0.0,0.0,0.0,1.0499,1.0557,1.0587,1.0587,1.0587,1.0587,1.0587,0.0,0.0,0.0,0.0,0.0,0.0,0.0,0.0,0.0,0.0,0.0,0.0,0.0,0.0,0.0,0.0,0.0,0.0,0.0,0.0,0.0,0.0,0.0,0.0,0.0,0.0,0.0,0.0,0.0,0.0,0.0,0.0,0.0,0.0,0.0,0.0,0.0,0.0,0.0,0.0,0.0,0.0,0.0,0.0,0.0,0.0,0.0,0.0,0.0,0.0,0.0,0.0,0.0,0.0,0.0,0.0,0.0,0.0,0.0,0.0,0.0,0.0,0.0,0.0,0.0,0.0,0.0,0.0,0.0,0.0,0.0,0.0,0.0,0.0,0.0,0.0,0.0,0.0,0.0,0.0,0.0,0.0,0.0,0.0,0.0,0.0,0.0,0.0,0.0,0.0,0.0,0.0,0.0,0.0,0.0,0.0,0.0,0.0,0.0,0.0,0.0,0.0,0.0,0.0,0.0,0.0,0.0,0.0,1.1122,1.0828,1.066,1.0667,1.066,1.0653,0.0,0.0,0.0,0.0,0.0,0.0,0.0,0.0,0.0,0.0,0.0,0.0,0.0,0.0,0.0,0.0,0.0,0.0,0.0,0.0,0.0,0.0,0.0,0.0,0.0,0.0,0.0,0.0,0.0,0.0,0.0,0.0,0.0,0.0,0.0,0.0,0.0,0.0,0.0,0.0,0.0,0.0,0.0,0.0,0.0,0.0,0.0,0.0,0.0,0.0,0.0,0.0,0.0,0.0,0.0,0.0,0.0,0.0,0.0,0.0,0.0,0.0,0.0,0.0,0.0,0.0,0.0,0.0,0.0,0.0,0.0,0.0,0.0,0.0,0.0,0.0,0.0,0.0,0.0,0.0,0.0,0.0,0.0,0.0,0.0,0.0,0.0,0.0,0.0,0.0,0.0,0.0,0.0,0.0,0.0,0.0,0.0,0.0,0.0,0.0,0.0,0.0,0.0,0.0,0.0,0.0,0.0,0.0,0.0,1.1467,1.1379,1.1335,1.135,1.1342,1.138,0.0,0.0,0.0,0.0,0.0,0.0,0.0,0.0,0.0,0.0,0.0,0.0,0.0,0.0,0.0,0.0,0.0,0.0,0.0,0.0,0.0,0.0,0.0,0.0,0.0,0.0,0.0,0.0,0.0,0.0,0.0,0.0,0.0,0.0,0.0,0.0,0.0,0.0,0.0,0.0,0.0,0.0,0.0,0.0,0.0,0.0,0.0,0.0,0.0,0.0,0.0,0.0,0.0,0.0,0.0,0.0,0.0,0.0,0.0,0.0,0.0,0.0,0.0,0.0,0.0,0.0,0.0,0.0,0.0,0.0,0.0,0.0,0.0,0.0,0.0,0.0,0.0,0.0,0.0,0.0,0.0,0.0,0.0,0.0,0.0,0.0,0.0,0.0,0.0,0.0,0.0,0.0,0.0,0.0,0.0,0.0,0.0,0.0,0.0,0.0,0.0,0.0,0.0,0.0,0.0,0.0,0.0,0.0,1.1771,1.17,1.163,1.1599,1.1599,1.1646,1.1716,0.0,0.0,0.0,0.0,0.0,0.0,0.0,0.0,0.0,0.0,0.0,0.0,0.0,0.0,0.0,0.0,0.0,0.0,0.0,0.0,0.0,0.0,0.0,0.0,0.0,0.0,0.0,0.0,0.0,0.0,0.0,0.0,0.0,0.0,0.0,0.0,0.0,0.0,0.0,0.0,0.0,0.0,0.0,0.0,0.0,0.0,0.0,0.0,0.0,0.0,0.0,0.0,0.0,0.0,0.0,0.0,0.0,0.0,0.0,0.0,0.0,0.0,0.0,0.0,0.0,0.0,0.0,0.0,0.0,0.0,0.0,0.0,0.0,0.0,0.0,0.0,0.0,0.0,0.0,0.0,0.0,0.0,0.0,0.0,0.0,0.0,0.0,0.0,0.0,0.0,0.0,0.0,0.0,0.0,0.0,0.0,0.0,0.0,0.0,0.0,0.0,0.0,0.0,0.0,0.0,0.0,0.0,0.0,1.1973,1.1973,1.1856,1.1794,1.1794,1.1817,1.1833,0.0,0.0,0.0,0.0,0.0,0.0,0.0,0.0,0.0,0.0,0.0,0.0,0.0,0.0,0.0,0.0,0.0,0.0,0.0,0.0,0.0,0.0,0.0,0.0,0.0,0.0,0.0,0.0,0.0,0.0,0.0,0.0,0.0,0.0,0.0,0.0,0.0,0.0,0.0,0.0,0.0,0.0,0.0,0.0,0.0,0.0,0.0,0.0,0.0,0.0,0.0,0.0,0.0,0.0,0.0,0.0,0.0,0.0,0.0,0.0,0.0,0.0,0.0,0.0,0.0,0.0,0.0,0.0,0.0,0.0,0.0,0.0,0.0,0.0,0.0,0.0,0.0,0.0,0.0,0.0,0.0,0.0,0.0,0.0,0.0,0.0,0.0,0.0,0.0,0.0,0.0,0.0,0.0,0.0,0.0,0.0,0.0,0.0,0.0,0.0,0.0,0.0,0.0,0.0,0.0,0.0,0.0,0.0,1.3025,1.3123,1.3108,1.3093,1.3094,1.2413,1.2096,0.0,0.0,0.0,0.0,0.0,0.0,0.0,0.0,0.0,0.0,0.0,0.0,0.0,0.0,0.0,0.0,0.0,0.0,0.0,0.0,0.0,0.0,0.0,0.0,0.0,0.0,0.0,0.0,0.0,0.0,0.0,0.0,0.0,0.0,0.0,0.0,0.0,0.0,0.0,0.0,0.0,0.0,0.0,0.0,0.0,0.0,0.0,0.0,1.1599,0.0,0.0,0.0,0.0,0.0,0.0,0.0,0.0,0.0,0.0,0.0,0.0,0.0,0.0,0.0,0.0,0.0,0.0,0.0,0.0,0.0,0.0,0.0,0.0,0.0,0.0,0.0,0.0,0.0,0.0,0.0,0.0,0.0,0.0,0.0,0.0,0.0,0.0,0.0,0.0,0.0,0.0,0.0,0.0,0.0,0.0,0.0,0.0,0.0,0.0,0.0,0.0,0.0,0.0,0.0,0.0,0.0,0.0,0.0,1.3698,1.3915,1.4049,1.401,1.3776,1.3459,1.3144,0.0,0.0,0.0,0.0,0.0,0.0,0.0,0.0,0.0,0.0,0.0,0.0,0.0,0.0,0.0,0.0,0.0,0.0,0.0,0.0,0.0,0.0,0.0,0.0,0.0,0.0,0.0,0.0,0.0,0.0,0.0,0.0,0.0,0.0,0.0,0.0,0.0,0.0,0.0,0.0,0.0,0.0,0.0,0.0,0.0,0.0,0.0,0.0,0.0,0.0,0.0,0.0,0.0,0.0,0.0,0.0,0.0,0.0,0.0,0.0,0.0,0.0,0.0,0.0,0.0,0.0,0.0,0.0,0.0,0.0,0.0,0.0,0.0,0.0,0.0,0.0,0.0,0.0,0.0,0.0,0.0,0.0,0.0,0.0,0.0,0.0,0.0,0.0,0.0,0.0,0.0,0.0,0.0,0.0,0.0,0.0,0.0,0.0,0.0,0.0,0.0,0.0,0.0,0.0,0.0,0.0,0.0,1.3889,1.429,1.4738,1.4977,1.4906,1.4508,1.4713,1.4518,1.3878,0.0,0.0,0.0,0.0,0.0,0.0,0.0,0.0,0.0,0.0,0.0,0.0,0.0,0.0,0.0,0.0,0.0,0.0,0.0,0.0,0.0,0.0,0.0,0.0,0.0,0.0,0.0,0.0,0.0,0.0,0.0,0.0,0.0,0.0,0.0,0.0,0.0,0.0,1.1599,1.1599,0.0,0.0,0.0,0.0,0.0,0.0,0.0,0.0,1.1882,0.0,0.0,0.0,0.0,0.0,0.0,0.0,0.0,0.0,0.0,0.0,0.0,0.0,0.0,0.0,0.0,0.0,0.0,0.0,0.0,0.0,0.0,0.0,0.0,0.0,0.0,0.0,0.0,0.0,0.0,0.0,0.0,0.0,0.0,0.0,0.0,0.0,0.0,0.0,0.0,0.0,0.0,0.0,0.0,0.0,0.0,0.0,0.0,0.0,0.0,0.0,0.0,0.0,0.0,0.0,0.0,1.4378,1.473,1.5367,1.6295,1.6364,1.6357,1.6273,1.6004,1.5722,1.5411,0.0,0.0,0.0,0.0,0.0,0.0,0.0,0.0,0.0,0.0,0.0,0.0,0.0,0.0,0.0,0.0,0.0,0.0,0.0,0.0,0.0,0.0,0.0,0.0,0.0,0.0,0.0,0.0,0.0,0.0,0.0,0.0,0.0,0.0,0.0,0.0,0.0,0.0,0.0,1.1599,1.1599,0.0,0.0,0.0,0.0,0.0,0.0,0.0,0.0,1.2245,0.0,0.0,0.0,0.0,0.0,0.0,0.0,0.0,0.0,0.0,0.0,0.0,0.0,0.0,0.0,0.0,0.0,0.0,0.0,0.0,0.0,0.0,0.0,0.0,0.0,0.0,0.0,0.0,0.0,0.0,0.0,0.0,0.0,0.0,0.0,0.0,0.0,0.0,0.0,0.0,0.0,0.0,0.0,0.0,0.0,0.0,0.0,0.0,0.0,0.0,0.0,0.0,0.0,0.0,0.0,1.4561,1.5011,1.5814,1.701,1.7269,1.7279,1.707,1.6648,1.6222,0.0,0.0,0.0,0.0,0.0,0.0,0.0,0.0,0.0,0.0,0.0,0.0,0.0,0.0,0.0,0.0,0.0,0.0,0.0,0.0,0.0,0.0,0.0,0.0,0.0,0.0,0.0,0.0,0.0,0.0,0.0,0.0,0.0,0.0,0.0,0.0,0.0,0.0,0.0,0.0,1.1794,1.1883,1.2036,0.0,0.0,0.0,0.0,0.0,0.0,1.2603,1.2459,0.0,0.0,0.0,0.0,0.0,0.0,0.0,0.0,0.0,0.0,0.0,0.0,0.0,0.0,0.0,0.0,0.0,0.0,0.0,0.0,0.0,0.0,0.0,0.0,0.0,0.0,0.0,0.0,0.0,0.0,0.0,0.0,0.0,0.0,0.0,0.0,0.0,0.0,0.0,0.0,0.0,0.0,0.0,0.0,0.0,0.0,0.0,0.0,0.0,0.0,0.0,0.0,0.0,0.0,0.0,1.474,1.534,1.623,1.7467,1.7833,1.7852,1.7518,1.7082,1.6564,0.0,0.0,0.0,0.0,0.0,0.0,0.0,0.0,0.0,0.0,0.0,0.0,0.0,0.0,0.0,0.0,0.0,0.0,0.0,0.0,0.0,0.0,0.0,0.0,0.0,0.0,0.0,0.0,0.0,0.0,0.0,0.0,0.0,0.0,0.0,0.0,0.0,0.0,0.0,0.0,0.0,1.212,1.2449,1.2517,0.0,0.0,0.0,0.0,1.3042,1.2883,0.0,0.0,0.0,0.0,0.0,0.0,0.0,0.0,0.0,0.0,0.0,0.0,0.0,0.0,0.0,0.0,0.0,0.0,0.0,0.0,0.0,0.0,0.0,0.0,0.0,0.0,0.0,0.0,0.0,0.0,0.0,0.0,0.0,0.0,0.0,0.0,0.0,0.0,0.0,0.0,0.0,0.0,0.0,0.0,0.0,0.0,0.0,0.0,0.0,0.0,0.0,0.0,0.0,0.0,0.0,0.0,1.5407,1.6264,1.7117,1.7886,1.798,1.797,1.7921,1.7529,1.7083,0.0,0.0,0.0,0.0,0.0,0.0,0.0,0.0,0.0,0.0,0.0,0.0,0.0,0.0,0.0,0.0,0.0,0.0,0.0,0.0,0.0,0.0,0.0,0.0,0.0,0.0,0.0,0.0,0.0,0.0,0.0,0.0,0.0,0.0,0.0,0.0,0.0,0.0,0.0,0.0,0.0,1.2127,1.2441,1.2517,1.2595,0.0,0.0,1.305,1.3398,1.342,0.0,0.0,0.0,0.0,0.0,0.0,0.0,0.0,0.0,0.0,0.0,0.0,0.0,0.0,0.0,0.0,0.0,0.0,0.0,0.0,0.0,0.0,0.0,0.0,0.0,0.0,0.0,0.0,0.0,0.0,0.0,0.0,0.0,0.0,0.0,0.0,0.0,0.0,0.0,0.0,0.0,0.0,0.0,0.0,0.0,0.0,0.0,0.0,0.0,0.0,0.0,0.0,0.0,0.0,0.0,1.4749,1.5658,1.6396,1.7192,1.7971,1.8008,1.8008,1.8008,1.7607,1.7186,0.0,0.0,0.0,0.0,0.0,0.0,0.0,0.0,0.0,0.0,0.0,0.0,0.0,0.0,0.0,0.0,0.0,0.0,0.0,0.0,0.0,0.0,0.0,0.0,0.0,0.0,0.0,0.0,0.0,0.0,0.0,0.0,0.0,0.0,0.0,0.0,0.0,0.0,0.0,0.0,0.0,0.0,1.3001,1.3057,0.0,0.0,0.0,1.334,1.3488,0.0,0.0,0.0,0.0,0.0,0.0,0.0,0.0,0.0,0.0,0.0,0.0,0.0,0.0,0.0,0.0,0.0,0.0,0.0,0.0,0.0,0.0,0.0,0.0,0.0,0.0,0.0,0.0,0.0,0.0,0.0,0.0,0.0,0.0,0.0,0.0,0.0,0.0,0.0,0.0,0.0,0.0,0.0,0.0,0.0,0.0,0.0,0.0,0.0,0.0,0.0,0.0,0.0,0.0,0.0,0.0,0.0,1.6064,1.6703,1.734,1.7981,1.8008,1.8008,1.7998,1.7695,0.0,0.0,0.0,0.0,0.0,0.0,0.0,0.0,0.0,0.0,0.0,0.0,0.0,0.0,0.0,0.0,0.0,0.0,0.0,0.0,0.0,0.0,0.0,0.0,0.0,0.0,0.0,1.2164,0.0,0.0,0.0,0.0,0.0,0.0,0.0,0.0,0.0,0.0,0.0,0.0,0.0,0.0,1.2925,1.3491,1.3545,1.3492,0.0,0.0,1.3492,1.3492,1.3492,1.3438,0.0,0.0,0.0,0.0,0.0,0.0,0.0,0.0,0.0,0.0,0.0,0.0,0.0,0.0,0.0,0.0,0.0,0.0,0.0,0.0,0.0,0.0,0.0,0.0,0.0,0.0,0.0,0.0,0.0,0.0,0.0,0.0,0.0,0.0,0.0,0.0,0.0,0.0,0.0,0.0,0.0,0.0,0.0,0.0,0.0,0.0,0.0,0.0,0.0,0.0,0.0,0.0,0.0,0.0,1.6184,1.6811,1.7541,1.7936,1.8008,1.8008,1.8008,1.8008,1.798,1.7764,0.0,0.0,0.0,0.0,0.0,0.0,0.0,0.0,0.0,0.0,0.0,0.0,0.0,0.0,0.0,0.0,0.0,0.0,0.0,0.0,0.0,0.0,0.0,0.0,0.0,0.0,0.0,0.0,0.0,0.0,0.0,0.0,0.0,0.0,0.0,0.0,0.0,0.0,0.0,0.0,0.0,1.3376,1.3736,1.3626,1.3492,0.0,1.3492,1.3492,1.3492,1.3492,1.3548,1.3715,0.0,0.0,0.0,0.0,0.0,0.0,0.0,0.0,0.0,0.0,0.0,0.0,0.0,0.0,0.0,0.0,0.0,0.0,0.0,0.0,0.0,0.0,0.0,0.0,0.0,0.0,0.0,0.0,0.0,0.0,0.0,0.0,0.0,0.0,0.0,0.0,0.0,0.0,0.0,0.0,0.0,0.0,0.0,0.0,0.0,0.0,0.0,0.0,0.0,0.0,0.0,0.0,0.0,1.673,1.7212,1.7943,1.8262,1.8185,1.8059,1.8008,1.8008,1.8008,1.7794,0.0,0.0,0.0,0.0,0.0,0.0,0.0,0.0,0.0,0.0,0.0,0.0,0.0,0.0,0.0,0.0,0.0,0.0,0.0,0.0,0.0,0.0,0.0,0.0,0.0,0.0,0.0,0.0,1.3389,1.3284,1.2664,0.0,0.0,0.0,0.0,0.0,0.0,0.0,0.0,0.0,0.0,1.346,1.392,1.371,0.0,0.0,1.3492,1.3535,1.3663,1.3681,1.3781,1.4116,1.3905,0.0,0.0,0.0,0.0,0.0,0.0,0.0,0.0,0.0,0.0,0.0,0.0,0.0,0.0,0.0,0.0,0.0,0.0,0.0,0.0,0.0,0.0,0.0,0.0,0.0,0.0,0.0,1.2598,0.0,0.0,0.0,0.0,0.0,0.0,0.0,0.0,0.0,0.0,0.0,0.0,0.0,0.0,0.0,0.0,0.0,0.0,0.0,0.0,0.0,0.0,0.0,0.0,1.7079,1.7688,1.8196,1.8354,1.822,1.8067,1.8008,1.8008,1.8008,1.7853,0.0,0.0,0.0,0.0,0.0,0.0,0.0,0.0,0.0,0.0,0.0,0.0,0.0,0.0,0.0,0.0,0.0,0.0,0.0,0.0,0.0,0.0,0.0,0.0,0.0,0.0,0.0,0.0,1.3631,1.343,1.3169,0.0,0.0,0.0,0.0,0.0,0.0,0.0,0.0,0.0,0.0,1.3894,1.4207,1.4065,1.3888,1.3831,1.384,1.3888,1.4095,1.4087,1.419,1.4658,0.0,0.0,0.0,0.0,0.0,0.0,0.0,0.0,0.0,0.0,0.0,0.0,0.0,0.0,0.0,0.0,0.0,0.0,0.0,0.0,0.0,0.0,0.0,0.0,0.0,0.0,0.0,1.2614,0.0,0.0,1.2775,0.0,0.0,0.0,0.0,0.0,0.0,0.0,0.0,0.0,0.0,0.0,0.0,0.0,0.0,0.0,0.0,0.0,0.0,0.0,0.0,0.0,0.0,1.7324,1.8352,1.832,1.822,1.8035,1.8008,1.8008,1.8008,1.8008,1.799,1.798,0.0,0.0,0.0,0.0,0.0,0.0,0.0,0.0,0.0,0.0,0.0,0.0,0.0,0.0,0.0,0.0,0.0,0.0,0.0,0.0,0.0,0.0,0.0,0.0,0.0,0.0,1.4135,1.3696,1.3541,0.0,0.0,0.0,0.0,0.0,0.0,0.0,0.0,0.0,1.4392,1.4673,1.481,1.4639,1.475,1.4802,1.4591,1.458,1.4647,1.4839,1.4724,1.4784,0.0,0.0,0.0,0.0,0.0,0.0,0.0,0.0,0.0,0.0,0.0,0.0,0.0,0.0,0.0,0.0,0.0,0.0,0.0,0.0,0.0,0.0,0.0,0.0,0.0,0.0,0.0,1.3248,1.3146,0.0,0.0,0.0,0.0,0.0,0.0,0.0,0.0,0.0,0.0,0.0,1.4296,1.4371,0.0,0.0,0.0,0.0,0.0,0.0,0.0,0.0,0.0,0.0,0.0,0.0,1.8015,1.8568,1.8502,1.8364,1.8274,1.8094,1.8008,1.8008,1.8008,1.8008,1.8008,0.0,0.0,0.0,0.0,0.0,0.0,0.0,0.0,0.0,0.0,0.0,0.0,0.0,0.0,0.0,0.0,0.0,0.0,0.0,0.0,0.0,0.0,0.0,0.0,0.0,1.4723,0.0,0.0,0.0,0.0,0.0,0.0,0.0,0.0,0.0,0.0,1.4417,1.4831,1.5452,1.5401,1.541,1.5694,1.5605,1.5353,0.0,0.0,0.0,0.0,0.0,0.0,0.0,0.0,0.0,0.0,0.0,0.0,0.0,0.0,1.7644,1.635,1.6135,1.6214,1.6337,0.0,0.0,0.0,0.0,0.0,0.0,0.0,0.0,0.0,0.0,0.0,0.0,0.0,0.0,1.376,1.3583,1.3655,0.0,0.0,0.0,0.0,0.0,0.0,0.0,0.0,1.4505,1.4639,1.4782,1.4858,1.5043,1.5388,1.5784,1.6048,0.0,0.0,0.0,0.0,0.0,0.0,0.0,0.0,1.8414,1.8809,1.8687,1.8543,1.8391,1.8195,1.8076,1.8008,1.8008,1.8008,1.8008,1.7752,1.7546,0.0,0.0,0.0,0.0,0.0,0.0,0.0,0.0,0.0,0.0,0.0,0.0,0.0,0.0,0.0,0.0,0.0,0.0,0.0,0.0,0.0,0.0,0.0,1.5044,0.0,0.0,0.0,0.0,0.0,0.0,0.0,0.0,0.0,1.4727,1.4985,1.5406,1.6019,1.6048,1.6115,1.6453,0.0,0.0,0.0,0.0,0.0,0.0,0.0,1.742,1.7989,1.836,1.8673,1.8948,1.9195,1.9477,1.9768,0.0,0.0,1.7952,1.7686,1.7721,1.7846,1.7871,1.7879,1.7871,1.8126,1.8404,0.0,0.0,0.0,0.0,1.4683,0.0,0.0,0.0,1.4429,1.4247,0.0,1.4139,0.0,0.0,0.0,0.0,1.4717,1.4701,0.0,0.0,1.5163,1.5342,1.5542,1.5747,1.6122,1.6629,1.6859,1.734,1.7955,1.7098,1.6748,0.0,0.0,0.0,0.0,0.0,1.8545,1.912,1.8965,1.8718,1.8486,1.839,1.8243,1.8046,1.8029,1.8027,1.8008,1.799,1.7822,1.7456,1.7419,0.0,0.0,0.0,0.0,0.0,0.0,0.0,0.0,0.0,0.0,0.0,0.0,0.0,0.0,0.0,0.0,0.0,0.0,0.0,0.0,1.5033,0.0,0.0,0.0,0.0,0.0,0.0,0.0,0.0,0.0,1.5624,1.5008,1.5622,1.615,1.6193,0.0,0.0,0.0,0.0,1.7562,1.7542,1.7728,1.7933,1.8106,1.8223,1.8462,1.8977,0.0,0.0,1.9898,1.9961,2.0054,2.0207,2.0275,2.0188,1.9986,1.9839,1.9819,1.9847,1.9798,1.9889,1.9899,1.9788,1.9861,1.5375,0.0,0.0,0.0,0.0,1.4962,1.5028,1.4985,1.5119,1.5002,1.468,1.474,0.0,0.0,0.0,0.0,0.0,0.0,1.53,1.5774,1.6061,1.6218,1.6281,1.6635,1.7107,1.7683,1.8017,1.8519,1.9138,1.9231,1.8728,1.7678,0.0,0.0,0.0,0.0,1.947,1.9722,1.9777,1.9737,1.9621,1.9364,1.8972,1.8441,1.8422,1.8294,1.8009,1.8008,1.7942,1.7832,1.7832,0.0,0.0,0.0,0.0,0.0,0.0,0.0,0.0,0.0,0.0,0.0,0.0,0.0,0.0,0.0,0.0,0.0,0.0,0.0,1.525,1.5606,1.5859,0.0,0.0,0.0,0.0,0.0,0.0,0.0,0.0,0.0,1.7397,1.7135,1.7149,0.0,0.0,1.8296,1.8567,1.8829,1.8893,1.8607,1.8992,0.0,1.9177,1.959,2.0004,2.0309,2.0651,2.0954,2.1198,2.1245,2.1273,2.134,2.135,2.1321,2.1233,2.07,2.0302,2.027,2.0251,2.026,2.0261,2.0515,2.0753,1.6484,1.6007,1.5605,1.5382,1.5272,1.5382,1.5436,1.5446,1.5558,1.5497,1.5325,1.5394,1.5309,1.5086,1.507,0.0,0.0,0.0,1.6263,1.6696,1.739,1.7544,1.7278,1.7658,1.8156,1.8698,1.9297,1.9696,1.9911,2.0242,1.9903,1.8915,0.0,1.9075,1.9079,1.9724,2.0074,2.0155,2.0169,2.0114,2.002,1.9661,1.9277,1.8907,1.887,1.8692,1.8264,1.8235,1.8157,1.8009,1.8008,1.7943,0.0,0.0,0.0,0.0,0.0,0.0,0.0,0.0,0.0,0.0,0.0,1.5172,1.5096,0.0,0.0,0.0,1.5403,1.5418,1.578,1.6035,0.0,0.0,0.0,0.0,0.0,0.0,0.0,1.8202,1.8357,1.861,1.9029,1.8908,1.877,1.8803,1.9175,1.957,1.9902,0.0,2.0314,2.0063,2.0406,2.0656,2.0545,2.0915,2.1332,2.1649,2.1964,2.2209,2.2327,2.2356,2.2366,2.2356,2.2366,2.2356,2.2346,2.1881,2.1436,2.1281,2.1384,2.1508,2.1508,2.1736,2.1923,1.7793,1.7702,1.6471,1.606,1.6201,1.6024,1.5918,1.59,1.5926,1.5891,1.59,1.6078,1.6175,1.6193,1.621,0.0,1.6974,1.7278,1.7496,1.7658,1.89,1.9084,1.8433,1.882,1.9274,1.979,2.0544,2.077,2.0527,2.0507,2.0498,2.0525,2.0507,2.0476,2.0413,2.0435,2.0465,2.0465,2.0327,2.0159,2.0007,1.9605,1.9384,1.9354,1.9345,1.9131,1.8685,1.8626,1.8422,1.8068,1.8029,1.8084,1.8276,0.0,0.0,0.0,0.0,0.0,0.0,0.0,0.0,0.0,0.0,0.0,0.0,0.0,0.0,1.6699,1.6412,0.0,1.6413,1.6483,0.0,0.0,0.0,1.7945,1.8434,1.8907,1.926,1.9462,0.0,0.0,2.0112,2.0737,2.0789,1.9822,2.0319,2.0828,2.0999,2.1428,2.1711,2.1642,2.1867,2.2001,2.1953,2.2116,2.2371,2.2747,2.3093,2.3122,2.3142,2.3153,2.3173,2.3132,2.3184,2.3163,2.3184,2.3122,2.3122,2.2656,2.2863,2.3132,2.306,2.307,2.307,1.7895,1.7979,1.7409,1.7209,1.7237,1.7126,1.7006,1.6877,1.6868,1.6784,1.6644,1.6682,1.6793,1.6942,1.7145,1.7375,1.7615,1.8173,1.8539,1.8776,1.9606,2.0069,2.0179,1.9991,2.0345,2.115,2.0993,2.1101,2.1457,2.1467,2.1467,2.1467,2.1467,2.1105,2.0435,2.0745,2.0921,2.093,2.1244,2.1233,2.0893,2.0503,2.0117,1.9766,1.9746,1.9561,1.9159,1.8791,1.8567,1.846,1.8166,1.8093,1.8286,1.7861,0.0,0.0,0.0,0.0,0.0,0.0,0.0,0.0,0.0,1.7054,1.7198,0.0,1.758,0.0,1.7323,1.7423,1.7523,1.8081,0.0,0.0,1.8601,1.9166,1.9311,1.968,2.0035,2.0285,2.0719,2.1168,2.1634,2.2118,2.2432,2.23,2.2191,2.2128,2.2209,2.2411,2.2584,2.2604,2.2747,2.289,2.2869,2.2941,2.3012,2.3093,2.3174,2.3194,2.3194,2.3194,2.3194,2.3194,2.3194,2.3194,2.3215,2.3463,2.3681,2.3556,2.338,2.3194,2.3194,2.3205,2.3205,1.8401,1.8468,1.8112,1.8005,1.8075,1.77,1.7418,1.7213,1.7325,1.7296,1.7164,1.7268,1.7353,1.7475,1.7437,1.7746,1.8378,1.9038,1.9568,2.0047,2.0992,2.1379,2.1243,2.1215,2.1376,2.1743,2.166,2.1798,2.2109,2.2325,2.2419,2.2418,2.2428,2.2159,2.1673,2.1497,2.1406,2.1406,2.1483,2.1388,2.108,2.0751,2.0459,2.0234,2.0215,2.0,1.958,1.9308,1.9006,1.8608,1.8479,1.8391,1.8389,1.8241,1.8134,0.0,0.0,0.0,0.0,0.0,0.0,0.0,0.0,0.0,0.0,0.0,1.8472,1.8299,1.8342,1.8427,1.8553,1.8986,1.914,1.8929,1.9571,2.0094,2.0249,2.0846,2.1278,2.142,2.1926,2.2344,2.2631,2.3042,2.3402,2.3515,2.3484,2.338,2.3247,2.3412,2.3587,2.3503,2.3576,2.3649,2.3649,2.3732,2.3774,2.3784,2.3763,2.3784,2.3774,2.3795,2.3774,2.3774,2.3774,2.3774,2.3795,2.397,2.4167,2.4126,2.397,2.3805,2.3784,2.3784,2.3784,1.9195,1.9156,1.8823,1.8773,1.888,1.825,1.7741,1.7361,1.7558,1.7614,1.7577,1.7805,1.7909,1.7899,1.7784,1.8264,1.9236,2.0102,2.0799,2.1412,2.2626,2.2839,2.2222,2.2459,2.2422,2.2147,2.2436,2.2584,2.2594,2.3008,2.3194,2.3194,2.3194,2.3194,2.3163,2.2386,2.1974,2.1983,2.1599,2.1317,2.1073,2.0859,2.0693,2.0634,2.0615,2.041,2.0019,1.9942,1.9561,1.8857,1.8917,1.8912,1.8723,1.8829,1.8791,0.0,1.8512,0.0,0.0,0.0,0.0,0.0,0.0,0.0,0.0,1.9169,1.9411,1.959,1.9419,1.9393,1.957,1.9653,1.981,2.0081,2.0553,2.0984,2.1366,2.2097,2.2593,2.2584,2.2997,2.3277,2.3308,2.3691,2.3981,2.3991,2.4197,2.4259,2.4074,2.4229,2.4371,2.425,2.4249,2.418,2.42,2.4338,2.4445,2.4476,2.4435,2.4507,2.4466,2.4456,2.4476,2.4476,2.4446,2.4466,2.4507,2.4487,2.4487,2.4477,2.4445,2.4435,2.4435,2.4435,2.4507,2.0229,2.0208,2.0125,2.0135,2.0138,2.0012,1.928,1.8155,1.7995,1.7916,1.7945,1.836,1.8529,1.8635,1.9928,2.0436,2.0404,2.2236,2.2957,2.2769,2.3702,2.4226,2.4362,2.3794,2.3667,2.3854,2.3348,2.307,2.3059,2.3143,2.3194,2.3194,2.3194,2.3194,2.3194,0.0,0.0,0.0,2.2695,2.2361,2.1956,2.159,2.1243,2.0848,2.0693,0.0,2.0459,2.0098,1.9909,1.99,1.9618,0.0,0.0,0.0,0.0,0.0,0.0,0.0,0.0,0.0,0.0,0.0,1.9985,1.9889,1.9622,1.9855,2.019,2.0573,2.0596,2.0571,2.0608,2.1056,2.1313,2.1231,2.1752,2.2308,2.2739,2.2976,2.3049,2.308,2.3484,2.3774,2.3795,2.4126,2.4384,2.4374,2.4435,2.4466,2.4394,2.4446,2.4475,2.4443,2.4433,2.4433,2.4433,2.4475,2.4507,2.4507,2.4507,2.4507,2.4507,2.4507,2.4507,2.4507,2.4507,2.4507,2.4507,2.4507,2.4507,2.4507,2.4507,2.4507,2.4507,2.4507,2.4507,2.0437,2.0342,2.0351,2.031,0.0,2.0205,1.9802,1.9147,1.9219,1.9168,1.9094,1.9084,1.9094,1.9144,2.0017,2.0698,2.125,2.2433,2.3233,2.3754,2.3985,2.4225,2.4403,2.3787,2.3606,2.3797,2.3626,2.3556,2.3556,2.3753,2.3836,2.3846,2.3857,2.3836,2.3846,2.3846,2.3629,2.3194,2.3002,2.2777,2.2543,2.2019,2.158,2.1253,2.0927,0.0,0.0,0.0,0.0,0.0,0.0,0.0,0.0,2.0029,2.0003,2.0089,1.987,1.986,2.0067,2.0098,2.0191,2.0383,2.062,2.066,2.045,2.0576,2.0842,2.1293,2.1354,2.1444,2.169,2.1975,2.2198,2.2331,2.2652,2.2946,2.3163,2.3411,2.3546,2.3587,2.3929,2.4198,2.4209,2.4353,2.4487,2.4507,2.4507,2.4507,2.4507,2.4507,2.4507,2.4507,2.4507,2.4507,2.4507,2.4507,2.4507,2.4507,2.4507,2.4507,2.4507,2.4507,2.4507,2.4507,2.4507,2.4507,2.4507,2.4507,2.4507,2.4507,2.4507,2.4507,2.4507,2.4507,2.4507,2.0613,2.0462,2.042,2.0334,2.0166,2.0102,2.0082,2.0095,2.0259,0.0,0.0,1.9717,1.9633,1.9759,2.0025,2.0849,2.2049,2.2458,2.3288,2.4402,2.4162,2.4052,2.4032,2.3738,2.3575,2.3565,2.3857,2.4012,2.4022,2.4343,2.4507,2.4507,2.4507,2.4507,2.4507,2.4507,2.4135,2.3453,2.3268,2.3145,2.3053,2.2483,2.204,2.171,2.1302,2.0966,2.0722,2.0702,2.0612,2.0445,2.0595,2.0621,2.0504,2.0508,2.0528,2.0507,2.0444,2.0443,2.0507,2.0537,2.0568,2.064,2.1094,2.1322,2.1239,2.1301,2.1508,2.1881,2.1984,2.2191,2.2583,2.2615,2.2811,2.3277,2.3329,2.3339,2.3453,2.3764,2.4002,2.4053,2.4301,2.4497,2.4497,2.4487,2.4507,2.4528,2.459,2.4684,2.4704,2.4632,2.4507,2.4507,2.4507,2.4518,2.4621,2.4663,2.4652,2.4807,2.4787,2.4745,2.4745,2.4745,2.4745,2.4839,2.4756,2.4798,2.4756,2.4807,2.4756,2.4735,2.4745,2.4756,2.4745,2.4745,2.4725,2.1522,2.1487,2.1307,2.1218,2.1154,2.0938,2.086,2.0775,1.9999,1.9749,1.9931,1.9821,2.0109,2.0781,2.208,2.2794,2.3076,2.422,2.4661,2.4513,2.484,2.5009,2.5009,2.5072,2.5019,2.4904,2.4575,2.4415,2.4436,2.4466,2.4507,2.4507,2.4507,2.4507,2.4507,2.4507,2.4435,2.4311,2.4279,2.4114,2.3763,2.3442,2.292,2.2147,2.1888,2.1548,2.1148,2.1128,2.1174,2.1315,2.1333,2.1427,2.1554,2.1209,2.0993,2.0982,2.062,2.058,2.0961,2.0992,2.1168,2.1581,2.2025,2.2139,2.1756,2.2066,2.2335,2.2418,2.2729,2.3018,2.309,2.3111,2.3297,2.3712,2.3795,2.3929,2.4229,2.4332,2.4384,2.4384,2.4466,2.4507,2.4538,2.4538,2.4559,2.4601,2.489,2.5222,2.5409,2.4994,2.4559,2.4507,2.4507,2.4673,2.4993,2.5097,2.5242,2.5647,2.5648,2.5596,2.5585,2.5585,2.5596,2.5679,2.5595,2.5638,2.5638,2.5689,2.5616,2.5607,2.5586,2.5617,2.5596,2.5617,2.5398,2.164,2.1549,2.1437,2.1468,2.154,2.1329,2.143,2.1686,2.099,2.0542,2.0353,2.0561,2.0846,2.1268,2.2443,2.3231,2.3711,2.4213,2.4605,2.4871,2.4839,2.4818,2.4828,2.4881,2.4882,2.4796,2.4594,2.4507,2.4507,2.4507,2.4507,2.4507,2.4507,2.4507,2.4507,2.4507,2.4507,2.4507,2.4507,2.4404,2.4218,2.3886,2.3443,2.291,2.2615,2.2291,2.1969,2.1718,2.1665,2.188,2.1625,2.1588,2.1778,2.1591,2.1477,2.1467,2.1271,2.126,2.1467,2.1715,2.1952,2.218,2.2625,2.279,2.2573,2.2759,2.2893,2.2873,2.3101,2.3298,2.3546,2.3577,2.3743,2.4198,2.4219,2.4301,2.4466,2.4507,2.4507,2.4507,2.4507,2.46,2.4859,2.4869,2.5004,2.5212,2.547,2.57,2.5876,2.5565,2.5253,2.5264,2.5253,2.5336,2.5544,2.5574,2.5678,2.5898,2.5908,2.5908,2.5908,2.5918,2.5929,2.5908,2.5918,2.5908,2.5929,2.5908,2.5908,2.5908,2.5908,2.5908,2.5908,2.5908,2.5731,2.145,2.1313,2.1257,2.1304,2.1363,2.1215,2.1551,2.2122,2.1759,2.1436,2.1177,2.1523,2.1791,2.1961,2.2685,2.3462,2.4102,2.4036,2.4347,2.4956,2.4658,2.4507,2.4507,2.4507,2.4507,2.4507,2.4507,2.4507,2.4507,2.4507,2.4507,2.4507,2.4507,2.4507,2.4507,2.4507,2.4507,2.4507,2.4507,2.4507,2.4487,2.4188,2.3897,2.3586,2.3299,2.3012,2.2747,2.2392,2.2249,2.2388,2.1978,2.179,2.1943,2.185,2.1788,2.1788,2.1788,2.185,2.1983,2.2388,2.2666,2.2676,2.309,2.336,2.337,2.3443,2.3463,2.338,2.3463,2.366,2.396,2.4033,2.4157,2.4466,2.4507,2.4487,2.4497,2.458,2.4663,2.4652,2.4735,2.4994,2.5253,2.5356,2.5544,2.5939,2.6075,2.6084,2.6177,2.6208,2.6208,2.6167,2.6053,2.5939,2.6033,2.6042,2.6115,2.6178,2.6261,2.6301,2.6291,2.625,2.6239,2.6291,2.626,2.6301,2.6239,2.625,2.6292,2.6323,2.6344,2.6281,2.6301,2.6301,2.6093,2.1053,2.1008,2.0857,2.0631,2.0484,2.0439,2.0848,2.1468,2.1436,2.175,2.2216,2.2531,2.2928,2.3379,2.3593,2.3981,2.4443,2.4443,2.4497,2.4561,2.4529,2.4507,2.4507,2.4507,2.4507,2.4507,2.4507,2.4507,2.4507,2.4507,2.4507,2.4507,2.4507,2.4507,2.4507,2.4507,2.4507,2.4507,2.4507,2.4507,2.4507,2.4477,2.426,2.3867,2.3826,2.3598,2.3185,2.3102,2.3071,2.3071,2.2647,2.2409,2.2388,2.2045,2.1799,2.1819,2.1819,2.1983,2.2418,2.2873,2.3142,2.3173,2.3556,2.3836,2.3857,2.4146,2.4198,2.3971,2.4167,2.4353,2.4446,2.4435,2.4435,2.4476,2.4539,2.4507,2.458,2.489,2.5138,2.5128,2.5439,2.5804,2.5815,2.5865,2.6042,2.6479,2.6541,2.6643,2.6957,2.7018,2.704,2.6945,2.6488,2.6188,2.6437,2.6541,2.6665,2.6997,2.7143,2.7059,2.7007,2.7049,2.7154,2.6904,2.7049,2.7028,2.7069,2.7185,2.7123,2.6988,2.7019,2.7121,2.7163,2.709,2.6821,2.093,2.0815,2.0736,2.0643,2.0541,2.0532,2.0927,2.1548,2.1447,2.193,2.2787,2.3108,2.3352,2.356,2.4013,2.4336,2.4507,2.4507,2.4507,2.4507,2.4507,2.4507,2.4507,2.4507,2.4507,2.4507,2.4507,2.4507,2.4507,2.4507,2.4507,2.4507,2.4507,2.4507,2.4507,2.4507,2.4507,2.4507,2.4507,2.4507,2.4507,2.4507,2.4425,2.427,2.426,2.4177,2.396,2.3753,2.3608,2.3587,2.3153,2.2904,2.2904,2.2738,2.2625,2.2635,2.2635,2.2697,2.2904,2.3349,2.3619,2.3619,2.4012,2.4249,2.426,2.4404,2.4414,2.4312,2.4415,2.4507,2.4507,2.4507,2.4507,2.4538,2.4745,2.4911,2.4931,2.5325,2.5616,2.5627,2.5783,2.6032,2.6281,2.6562,2.6778,2.6987,2.7019,2.7112,2.7289,2.732,2.732,2.7256,2.6935,2.6831,2.6976,2.7007,2.7101,2.7247,2.732,2.732,2.732,2.732,2.7309,2.732,2.732,2.732,2.7268,2.732,2.732,2.732,2.732,2.732,2.732,2.732,2.708,2.0716,2.0609,2.0598,2.0578,2.0586,2.0586,2.1045,2.17,2.1597,2.2161,2.3217,2.3638,2.3838,2.3898,2.4308,2.4507,2.4507,2.4507,2.4507,2.4507,2.4507,2.4507,2.4507,2.4507,2.4569,2.4694,2.4843,2.4894,2.486,2.4735,2.4693,2.4683,2.458,2.4507,2.4507,2.4507,2.4507,2.4507,2.4507,2.4507,2.4507,2.4507,2.4507,2.4507,2.4507,2.4507,2.4497,2.4219,2.4064,2.4053,2.3639,2.338,2.3391,2.3277,2.3194,2.3205,2.3328,2.3391,2.3381,2.3815,2.4074,2.4095,2.4342,2.4507,2.4507,2.4507,2.4507,2.4486,2.46,2.4673,2.4507,2.4611,2.4683,2.4724,2.5107,2.5388,2.5408,2.5814,2.6106,2.6094,2.6271,2.6395,2.6737,2.7049,2.7268,2.7278,2.7299,2.732,2.732,2.732,2.732,2.732,2.7299,2.7299,2.732,2.7278,2.732,2.732,2.732,2.732,2.732,2.732,2.732,2.732,2.732,2.732,2.732,2.732,2.732,2.732,2.732,2.732,2.732,2.732,2.732,2.0326,2.0334,2.0312,2.0391,2.0354,2.0371,2.0926,2.1832,2.1844,2.2465,2.3447,2.4226,2.4623,2.4602,2.4593,2.4528,2.4528,2.4569,2.459,2.459,2.457,2.4528,2.4507,2.4507,2.4756,2.5181,2.557,2.5758,2.5764,2.5366,2.5158,2.5137,2.4787,2.4538,2.458,2.4569,2.4507,2.4559,2.4518,2.4507,2.4507,2.4507,2.4507,2.4507,2.4507,2.4507,2.4497,2.4476,2.4466,2.4477,2.4084,2.3867,2.3836,2.3473,2.3256,2.3297,2.3639,2.3857,2.3908,2.4229,2.4446,2.4456,2.4466,2.4507,2.4507,2.4549,2.4559,2.4539,2.4942,2.5015,2.4714,2.4962,2.5159,2.519,2.5574,2.5846,2.5876,2.6281,2.6551,2.6623,2.6883,2.7092,2.7215,2.7266,2.7309,2.732,2.732,2.732,2.732,2.732,2.732,2.732,2.732,2.732,2.732,2.732,2.732,2.732,2.732,2.732,2.732,2.732,2.732,2.732,2.732,2.732,2.732,2.732,2.732,2.732,2.732,2.732,2.732,2.732,2.732,2.0446,2.0706,2.0917,2.0991,2.1002,2.1011,2.1229,2.1575,2.1566,2.2073,2.2952,2.373,2.4324,2.4788,2.5221,2.5399,2.541,2.5377,2.5399,2.5399,2.5399,2.5399,2.5366,2.5171,2.5265,2.5649,2.6042,2.6104,2.5899,2.5732,2.5647,2.5648,2.547,2.5388,2.5358,2.5097,2.4952,2.491,2.4673,2.4507,2.4528,2.4507,2.4507,2.4507,2.4507,2.4507,2.4507,2.4507,2.4507,2.4507,2.4353,2.4291,2.427,2.4125,2.4022,2.4043,2.4187,2.4291,2.4301,2.4425,2.4507,2.4507,2.4507,2.4518,2.4559,2.4755,2.4952,2.5024,2.5367,2.5523,2.5493,2.5576,2.5637,2.5709,2.6063,2.6333,2.6426,2.6759,2.7038,2.7059,2.7226,2.7309,2.732,2.732,2.732,2.732,2.732,2.732,2.732,2.732,2.732,2.732,2.732,2.732,2.732,2.732,2.732,2.732,2.732,2.732,2.732,2.732,2.732,2.732,2.732,2.732,2.732,2.732,2.732,2.732,2.732,2.732,2.732,2.732,2.732,2.0817,2.1074,2.1302,2.1393,2.1393,2.1393,2.1478,2.1573,2.159,2.1976,2.27,2.3643,2.4368,2.4959,2.5885,2.6354,2.6323,2.6053,2.5908,2.5908,2.5908,2.5908,2.5885,2.5786,2.5859,2.6157,2.6514,2.6566,2.6344,2.6198,2.6136,2.6126,2.5979,2.5908,2.5856,2.5575,2.5418,2.5367,2.5119,2.4974,2.4931,2.4964,2.487,2.4756,2.4724,2.4642,2.4518,2.4507,2.4507,2.4507,2.4507,2.4507,2.4507,2.4507,2.4507,2.4507,2.4497,2.4507,2.4507,2.4507,2.4507,2.4518,2.4652,2.4735,2.4755,2.5138,2.5387,2.5522,2.5845,2.6126,2.6156,2.626,2.6281,2.624,2.6551,2.681,2.6852,2.7101,2.7278,2.7289,2.7299,2.732,2.732,2.732,2.732,2.732,2.732,2.732,2.732,2.732,2.732,2.732,2.732,2.732,2.732,2.732,2.732,2.732,2.732,2.732,2.732,2.732,2.732,2.732,2.732,2.732,2.732,2.732,2.732,2.732,2.732,2.732,2.732,2.732,2.732,2.1405,2.141,2.1422,2.149,2.1516,2.1513,2.167,2.1974,2.2016,2.2286,2.2944,2.4202,2.4898,2.5317,2.6543,2.7225,2.7038,2.6396,2.6063,2.6053,2.6022,2.6022,2.6043,2.6296,2.6461,2.6613,2.7049,2.7269,2.7163,2.68,2.6592,2.652,2.623,2.6095,2.596,2.5959,2.5897,2.5865,2.5815,2.5815,2.5897,2.5793,2.5585,2.5242,2.52,2.5025,2.4601,2.4528,2.4507,2.4507,2.4507,2.4507,2.4507,2.4507,2.4507,2.4507,2.4507,2.4507,2.4528,2.4559,2.4601,2.4693,2.4973,2.52,2.5252,2.5615,2.5908,2.597,2.6323,2.659,2.6664,2.6924,2.7019,2.6739,2.6988,2.7204,2.7246,2.7287,2.732,2.732,2.732,2.732,2.732,2.732,2.732,2.732,2.732,2.732,2.732,2.732,2.732,2.732,2.732,2.732,2.732,2.732,2.732,2.732,2.732,2.732,2.732,2.732,2.732,2.732,2.732,2.732,2.732,2.732,2.732,2.732,2.732,2.732,2.732,2.732,2.732,2.1807,2.1841,2.2114,2.2217,2.2242,2.2217,2.2307,2.2422,2.2418,2.2855,2.3697,2.4525,2.5492,2.6442,2.7131,2.732,2.7289,2.6976,2.6862,2.6853,2.683,2.6819,2.6864,2.6965,2.7047,2.7092,2.7215,2.732,2.7289,2.7142,2.708,2.705,2.6935,2.6873,2.68,2.6562,2.6385,2.6354,2.6053,2.5908,2.5908,2.5918,2.5835,2.5699,2.5678,2.5595,2.5462,2.4849,2.4518,2.4518,2.4507,2.4507,2.4507,2.4507,2.4507,2.4507,2.4507,2.4673,2.4931,2.4983,2.5139,2.5399,2.5595,2.5657,2.572,2.6115,2.6375,2.6427,2.6812,2.708,2.7101,2.7194,2.7226,2.7112,2.7226,2.732,2.732,2.732,2.732,2.732,2.732,2.732,2.732,2.732,2.732,2.732,2.732,2.732,2.732,2.732,2.732,2.732,2.732,2.732,2.732,2.732,2.732,2.732,2.732,2.732,2.732,2.732,2.732,2.732,2.732,2.732,2.732,2.732,2.732,2.732,2.732,2.732,2.732,2.732,2.732,2.2213,2.2264,2.25,2.2615,2.2615,2.2615,2.2615,2.2615,2.2615,2.2971,2.3618,2.4509,2.5543,2.6602,2.711,2.7308,2.732,2.732,2.732,2.732,2.732,2.732,2.732,2.732,2.732,2.732,2.732,2.732,2.732,2.732,2.7309,2.7309,2.732,2.7299,2.7289,2.7018,2.6874,2.6799,2.6582,2.6415,2.6415,2.6417,2.6322,2.6188,2.6156,2.6075,2.5887,2.5305,2.4931,2.4755,2.46,2.4507,2.4507,2.4663,2.4744,2.4786,2.4953,2.5181,2.5429,2.5471,2.5586,2.5856,2.6053,2.6135,2.6239,2.6593,2.6841,2.6926,2.7123,2.732,2.7309,2.732,2.732,2.7309,2.7309,2.732,2.732,2.732,2.732,2.732,2.732,2.732,2.732,2.732,2.732,2.732,2.732,2.732,2.732,2.732,2.732,2.732,2.732,2.732,2.732,2.732,2.732,2.732,2.732,2.732,2.732,2.732,2.732,2.732,2.732,2.732,2.732,2.732,2.732,2.732,2.732,2.732,2.732,2.732,2.732,2.2607,2.2615,2.2615,2.2615,2.2615,2.2615,2.2615,2.2615,2.2615,2.2637,2.2985,2.4257,2.5302,2.5985,2.6945,2.732,2.732,2.732,2.732,2.732,2.732,2.732,2.732,2.732,2.732,2.732,2.732,2.732,2.732,2.732,2.732,2.732,2.732,2.732,2.7299,2.7287,2.7258,2.7215,2.7225,2.7206,2.7204,2.7225,2.7049,2.6677,2.6623,2.6467,2.6156,2.5948,2.5678,2.5252,2.4891,2.4725,2.4704,2.5004,2.5253,2.5253,2.5658,2.5814,2.5908,2.5949,2.6012,2.6147,2.6448,2.6645,2.6685,2.6976,2.7216,2.7226,2.7289,2.732,2.732,2.732,2.732,2.732,2.732,2.732,2.732,2.732,2.732,2.732,2.732,2.732,2.732,2.732,2.732,2.732,2.732,2.732,2.732,2.732,2.732,2.732,2.732,2.732,2.732,2.732,2.732,2.732,2.732,2.732,2.732,2.732,2.732,2.732,2.732,2.732,2.732,2.732,2.732,2.732,2.732,2.732,2.732,2.732,2.732,2.2615,2.2615,2.2615,2.2615,2.2615,2.2615,2.2615,2.2615,2.2615,2.2614,2.2948,2.4236,2.5625,2.6839,2.7132,2.732,2.732,2.732,2.732,2.732,2.732,2.732,2.732,2.732,2.732,2.732,2.732,2.732,2.732,2.732,2.732,2.732,2.732,2.732,2.732,2.732,2.732,2.732,2.732,2.732,2.732,2.732,2.7246,2.7142,2.7101,2.7038,2.6893,2.6593,2.6198,2.5773,2.5616,2.5545,2.5482,2.5627,2.5721,2.5752,2.5834,2.6074,2.6343,2.6427,2.6572,2.6905,2.6976,2.7123,2.7121,2.7225,2.732,2.732,2.732,2.732,2.732,2.732,2.732,2.732,2.732,2.732,2.732,2.732,2.732,2.732,2.732,2.732,2.732,2.732,2.732,2.732,2.732,2.732,2.732,2.732,2.732,2.732,2.732,2.732,2.732,2.732,2.732,2.732,2.732,2.732,2.732,2.732,2.732,2.732,2.732,2.732,2.732,2.732,2.732,2.732,2.732,2.732,2.732,2.732,2.732,2.2615,2.2615,2.2615,2.2615,2.2615,2.2615,2.2615,2.2615,2.2607,2.2619,2.2938,2.4211,2.5781,2.7208,2.7314,2.732,2.732,2.732,2.732,2.732,2.732,2.732,2.732,2.732,2.732,2.732,2.732,2.732,2.732,2.732,2.732,2.732,2.732,2.732,2.732,2.732,2.732,2.732,2.732,2.732,2.732,2.732,2.7309,2.7309,2.732,2.732,2.7268,2.7028,2.6603,2.6085,2.5908,2.5908,2.5929,2.6105,2.6199,2.6198,2.6364,2.6623,2.681,2.6905,2.7018,2.7237,2.732,2.732,2.7299,2.732,2.732,2.732,2.732,2.732,2.732,2.732,2.732,2.732,2.732,2.732,2.732,2.732,2.732,2.732,2.732,2.732,2.732,2.732,2.732,2.732,2.732,2.732,2.732,2.732,2.732,2.732,2.732,2.732,2.732,2.732,2.732,2.732,2.732,2.732,2.732,2.732,2.732,2.732,2.732,2.732,2.732,2.732,2.732,2.732,2.732,2.732,2.732,2.732,2.732,2.2615,2.2615,2.2615,2.2615,2.2615,2.2615,2.2615,2.2615,2.2615,2.2612,2.2944,2.4218,2.5642,2.7123,2.7182,2.732,2.732,2.732,2.732,2.732,2.732,2.732,2.732,2.732,2.732,2.732,2.732,2.732,2.732,2.732,2.732,2.732,2.732,2.732,2.732,2.732,2.732,2.732,2.732,2.732,2.732,2.732,2.732,2.732,2.732,2.732,2.732,2.7225,2.6904,2.6105,2.6031,2.6136,2.6167,2.6488,2.6633,2.6717,2.6966,2.7194,2.7277,2.7247,2.7278,2.732,2.732,2.732,2.732,2.732,2.732,2.732,2.732,2.732,2.732,2.732,2.732,2.732,2.732,2.732,2.732,2.732,2.732,2.732,2.732,2.732,2.732,2.732,2.732,2.732,2.732,2.732,2.732,2.732,2.732,2.732,2.732,2.732,2.732,2.732,2.732,2.732,2.732,2.732,2.732,2.732,2.732,2.732,2.732,2.732,2.732,2.732,2.732,2.732,2.732,2.732,2.732,2.732,2.732,2.2615,2.2615,2.2615,2.2615,2.2615,2.2615,2.2615,2.2615,2.2615,2.2608,2.295,2.4205,2.5294,2.6125,2.688,2.732,2.7308,2.732,2.732,2.732,2.732,2.732,2.732,2.732,2.732,2.732,2.732,2.732,2.732,2.732,2.732,2.732,2.732,2.732,2.732,2.732,2.732,2.732,2.732,2.732,2.732,2.732,2.732,2.732,2.732,2.732,2.732,2.732,2.7206,2.7061,2.6967,2.6893,2.6924,2.7028,2.709,2.7133,2.7206,2.732,2.732,2.732,2.732,2.732,2.732,2.732,2.732,2.732,2.732,2.732,2.732,2.732,2.732,2.732,2.732,2.732,2.732,2.732,2.732,2.732,2.732,2.732,2.732,2.732,2.732,2.732,2.732,2.732,2.732,2.732,2.732,2.732,2.732,2.732,2.732,2.732,2.732,2.732,2.732,2.732,2.732,2.732,2.732,2.732,2.732,2.732,2.732,2.732,2.732,2.732,2.732,2.732,2.732,2.732,2.732,2.732,2.732,2.2615,2.2615,2.2615,2.2615,2.2615,2.2615,2.2615,2.2615,2.2615,2.2614,2.2841,2.3865,2.4815,2.571,2.6414,2.6894,2.7262,2.732,2.732,2.732,2.732,2.732,2.732,2.732,2.732,2.732,2.732,2.732,2.732,2.732,2.732,2.732,2.732,2.732,2.732,2.732,2.732,2.732,2.732,2.732,2.732,2.732,2.732,2.732,2.732,2.732,2.732,2.732,2.732,2.732,2.732,2.732,2.732,2.732,2.732,2.732,2.732,2.732,2.732,2.732,2.732,2.732,2.732,2.732,2.732,2.732,2.732,2.732,2.732,2.732,2.732,2.732,2.732,2.732,2.732,2.732,2.732,2.732,2.732,2.732,2.732,2.732,2.732,2.732,2.732,2.732,2.732,2.732,2.732,2.732,2.732,2.732,2.732,2.732,2.732,2.732,2.732,2.732,2.732,2.732,2.732,2.732,2.732,2.732,2.732,2.732,2.732,2.732,2.732,2.732,2.732,2.732,2.732,2.732,2.732,2.2615,2.2615,2.2615,2.2615,2.2615,2.2615,2.2615,2.2615,2.2615,2.2619,2.2758,2.3375,2.4449,2.5449,2.5973,2.6568,2.7131,2.732,2.732,2.732,2.732,2.732,2.732,2.732,2.732,2.732,2.732,2.732,2.732,2.732,2.732,2.732,2.732,2.732,2.732,2.732,2.732,2.732,2.732,2.732,2.732,2.732,2.732,2.732,2.732,2.732,2.732,2.732,2.732,2.732,2.732,2.732,2.732,2.732,2.732,2.732,2.732,2.732,2.732,2.732,2.732,2.732,2.732,2.732,2.732,2.732,2.732,2.732,2.732,2.732,2.732,2.732,2.732,2.732,2.732,2.732,2.732,2.732,2.732,2.732,2.732,2.732,2.732,2.732,2.732,2.732,2.732,2.732,2.732,2.732,2.732,2.732,2.732,2.732,2.732,2.732,2.732,2.732,2.732,2.732,2.732,2.732,2.732,2.732,2.732,2.732,2.732,2.732,2.732,2.732,2.732,2.732,2.732,2.732,2.732,2.2615,2.2615,2.2615,2.2615,2.2615,2.2615,2.2615,2.2615,2.2615,2.2615,2.2707,2.3363,2.4125,2.5008,2.581,2.6524,2.7131,2.732,2.732,2.732,2.732,2.732,2.732,2.732,2.732,2.732,2.732,2.732,2.732,2.732,2.732,2.732,2.732,2.732,2.732,2.732,2.732,2.732,2.732,2.732,2.732,2.732,2.732,2.732,2.732,2.732,2.732,2.732,2.732,2.732,2.732,2.732,2.732,2.732,2.732,2.732,2.732,2.732,2.732,2.732,2.732,2.732,2.732,2.732,2.732,2.732,2.732,2.732,2.732,2.732,2.732,2.732,2.732,2.732,2.732,2.732,2.732,2.732,2.732,2.732,2.732,2.732,2.732,2.732,2.732,2.732,2.732,2.732,2.732,2.732,2.732,2.732,2.732,2.732,2.732,2.732,2.732,2.732,2.732,2.732,2.732,2.732,2.732,2.732,2.732,2.732,2.732,2.732,2.732,2.732,2.732,2.732,2.732,2.732,2.732,2.2615,2.2615,2.2615,2.2615,2.2615,2.2615,2.2615,2.2615,2.2615,2.2615,2.2695,2.3,2.3553,2.4338,2.5123,2.6117,2.7071,2.732,2.732,2.732,2.732,2.732,2.732,2.732,2.732,2.732,2.732,2.732,2.732,2.732,2.732,2.732,2.732,2.732,2.732,2.732,2.732,2.732,2.732,2.732,2.732,2.732,2.732,2.732,2.732,2.732,2.732,2.732,2.732,2.732,2.732,2.732,2.732,2.732,2.732,2.732,2.732,2.732,2.732,2.732,2.732,2.732,2.732,2.732,2.732,2.732,2.732,2.732,2.732,2.732,2.732,2.732,2.732,2.732,2.732,2.732,2.732,2.732,2.732,2.732,2.732,2.732,2.732,2.732,2.732,2.732,2.732,2.732,2.732,2.732,2.732,2.732,2.732,2.732,2.732,2.732,2.732,2.732,2.732,2.732,2.732,2.732,2.732,2.732,2.732,2.732,2.732,2.732,2.732,2.732,2.732,2.732,2.732,2.732,2.732,2.2615,2.2615,2.2615,2.2615,2.2615,2.2615,2.2615,2.2615,2.2615,2.2615,2.2615,2.2669,2.305,2.3827,2.4817,2.596,2.7272,2.732,2.732,2.732,2.732,2.732,2.732,2.732,2.732,2.732,2.732,2.732,2.732,2.732,2.732,2.732,2.732,2.732,2.732,2.732,2.732,2.732,2.732,2.732,2.732,2.732,2.732,2.732,2.732,2.732,2.732,2.732,2.732,2.732,2.732,2.732,2.732,2.732,2.732,2.732,2.732,2.732,2.732,2.732,2.732,2.732,2.732,2.732,2.732,2.732,2.732,2.732,2.732,2.732,2.732,2.732,2.732,2.732,2.732,2.732,2.732,2.732,2.732,2.732,2.732,2.732,2.732,2.732,2.732,2.732,2.732,2.732,2.732,2.732,2.732,2.732,2.732,2.732,2.732,2.732,2.732,2.732,2.732,2.732,2.732,2.732,2.732,2.732,2.732,2.732,2.732,2.732,2.732,2.732,2.732,2.732,2.732,2.732,2.732,2.2615,2.2615,2.2615,2.2615,2.2615,2.2615,2.2615,2.2615,2.2615,2.2615,2.2615,2.2691,2.3084,2.4026,2.5316,2.6426,2.7083,2.732,2.732,2.732,2.732,2.732,2.732,2.732,2.732,2.732,2.732,2.732,2.732,2.732,2.732,2.732,2.732,2.732,2.732,2.732,2.732,2.732,2.732,2.732,2.732,2.732,2.732,2.732,2.732,2.732,2.732,2.732,2.732,2.732,2.732,2.732,2.732,2.732,2.732,2.732,2.732,2.732,2.732,2.732,2.732,2.732,2.732,2.732,2.732,2.732,2.732,2.732,2.732,2.732,2.732,2.732,2.732,2.732,2.732,2.732,2.732,2.732,2.732,2.732,2.732,2.732,2.732,2.732,2.732,2.732,2.732,2.732,2.732,2.732,2.732,2.732,2.732,2.732,2.732,2.732,2.732,2.732,2.732,2.732,2.732,2.732,2.732,2.732,2.732,2.732,2.732,2.732,2.732,2.732,2.732,2.732,2.732,2.732,2.732,2.2615,2.2615,2.2615,2.2615,2.2615,2.2615,2.2615,2.2615,2.2615,2.2615,2.2707,2.3063,2.3877,2.4986,2.5897,2.6524,2.7167,2.732,2.732,2.732,2.732,2.732,2.732,2.732,2.732,2.732,2.732,2.732,2.732,2.732,2.732,2.732,2.732,2.732,2.732,2.732,2.732,2.732,2.732,2.732,2.732,2.732,2.732,2.732,2.732,2.732,2.732,2.732,2.732,2.732,2.732,2.732,2.732,2.732,2.732,2.732,2.732,2.732,2.732,2.732,2.732,2.732,2.732,2.732,2.732,2.732,2.732,2.732,2.732,2.732,2.732,2.732,2.732,2.732,2.732,2.732,2.732,2.732,2.732,2.732,2.732,2.732,2.732,2.732,2.732,2.732,2.732,2.732,2.732,2.732,2.732,2.732,2.732,2.732,2.732,2.732,2.732,2.732,2.732,2.732,2.732,2.732,2.732,2.732,2.732,2.732,2.732,2.732,2.732,2.732,2.732,2.732,2.732,2.732,2.733,2.2615,2.2615,2.2615,2.2615,2.2615,2.2615,2.2615,2.2615,2.2615,2.2615,2.2795,2.3366,2.4569,2.5812,2.6125,2.6534,2.7296,2.732,2.732,2.732,2.732,2.732,2.732,2.732,2.732,2.732,2.732,2.732,2.732,2.732,2.732,2.732,2.732,2.732,2.732,2.732,2.732,2.732,2.732,2.732,2.732,2.732,2.732,2.732,2.732,2.732,2.732,2.732,2.732,2.732,2.732,2.732,2.732,2.732,2.732,2.732,2.732,2.732,2.732,2.732,2.732,2.732,2.732,2.732,2.732,2.732,2.732,2.732,2.732,2.732,2.732,2.732,2.732,2.732,2.732,2.732,2.732,2.732,2.732,2.732,2.732,2.732,2.732,2.732,2.732,2.732,2.732,2.732,2.732,2.732,2.732,2.732,2.732,2.732,2.732,2.732,2.732,2.732,2.732,2.732,2.732,2.732,2.732,2.732,2.732,2.732,2.732,2.732,2.732,2.732,2.732,2.732,2.732,2.733,2.7411,2.2615,2.2615,2.2615,2.2615,2.2615,2.2615,2.2615,2.2615,2.2615,2.2632,2.282,2.3466,2.4692,2.58,2.6257,2.663,2.7286,2.732,2.732,2.732,2.732,2.732,2.732,2.732,2.732,2.732,2.732,2.732,2.732,2.732,2.732,2.732,2.732,2.732,2.732,2.732,2.732,2.732,2.732,2.732,2.732,2.732,2.732,2.732,2.732,2.732,2.732,2.732,2.732,2.732,2.732,2.732,2.732,2.732,2.732,2.732,2.732,2.732,2.732,2.732,2.732,2.732,2.732,2.732,2.732,2.732,2.732,2.732,2.732,2.732,2.732,2.732,2.732,2.732,2.732,2.732,2.732,2.732,2.732,2.732,2.732,2.732,2.732,2.732,2.732,2.732,2.732,2.732,2.732,2.732,2.732,2.732,2.732,2.732,2.732,2.732,2.732,2.732,2.732,2.732,2.732,2.732,2.732,2.732,2.732,2.732,2.732,2.732,2.732,2.732,2.732,2.732,2.736,2.7422,2.7564,2.2615,2.2615,2.2615,2.2615,2.2615,2.2615,2.2615,2.2615,2.2615,2.2883,2.33,2.4106,2.505,2.5982,2.6678,2.6977,2.7286,2.732,2.732,2.732,2.732,2.732,2.732,2.732,2.732,2.732,2.732,2.732,2.732,2.732,2.732,2.732,2.732,2.732,2.732,2.732,2.732,2.732,2.732,2.732,2.732,2.732,2.732,2.732,2.732,2.732,2.732,2.732,2.732,2.732,2.732,2.732,2.732,2.732,2.732,2.732,2.732,2.732,2.732,2.732,2.732,2.732,2.732,2.732,2.732,2.732,2.732,2.732,2.732,2.732,2.732,2.732,2.732,2.732,2.732,2.732,2.732,2.732,2.732,2.732,2.732,2.732,2.732,2.732,2.732,2.732,2.732,2.732,2.732,2.732,2.732,2.732,2.732,2.732,2.732,2.732,2.732,2.732,2.732,2.732,2.732,2.732,2.732,2.732,2.732,2.732,2.732,2.732,2.732,2.732,2.732,2.732,2.7391,2.7513,2.7779,2.2487,2.2607,2.2615,2.2615,2.2615,2.2615,2.2615,2.2615,2.2615,2.3013,2.3728,2.4328,2.516,2.6042,2.6594,2.7095,2.7214,2.732,2.732,2.732,2.732,2.732,2.732,2.732,2.732,2.732,2.732,2.732,2.732,2.732,2.732,2.732,2.732,2.732,2.732,2.732,2.732,2.732,2.732,2.732,2.732,2.732,2.732,2.732,2.732,2.732,2.732,2.732,2.732,2.732,2.732,2.732,2.732,2.732,2.732,2.732,2.732,2.732,2.732,2.732,2.732,2.732,2.732,2.732,2.732,2.732,2.732,2.732,2.732,2.732,2.732,2.732,2.732,2.732,2.732,2.732,2.732,2.732,2.732,2.732,2.732,2.732,2.732,2.732,2.7339,2.734,2.732,2.732,2.732,2.732,2.732,2.732,2.732,2.732,2.732,2.733,2.7329,2.732,2.732,2.732,2.732,2.7361,2.7351,2.732,2.732,2.732,2.733,2.734,2.733,2.732,2.733,2.736,2.7574,2.7748,2.8078,2.221,2.2598,2.256,2.2572,2.2538,2.2585,2.2585,2.2555,2.2564,2.2923,2.35,2.3766,2.4646,2.5776,2.6175,2.6678,2.7226,2.732,2.732,2.732,2.732,2.732,2.732,2.732,2.732,2.732,2.732,2.732,2.732,2.732,2.732,2.732,2.732,2.732,2.732,2.732,2.732,2.732,2.732,2.732,2.732,2.732,2.732,2.732,2.732,2.732,2.732,2.732,2.732,2.732,2.732,2.732,2.732,2.732,2.732,2.732,2.732,2.732,2.732,2.732,2.732,2.732,2.732,2.732,2.732,2.732,2.732,2.732,2.732,2.732,2.732,2.732,2.732,2.732,2.732,2.732,2.732,2.732,2.732,2.732,2.732,2.732,2.732,2.733,2.736,2.7349,2.733,2.732,2.734,2.732,2.7308,2.732,2.733,2.7432,2.7432,2.738,2.736,2.734,2.7443,2.7608,2.7608,2.765,2.7577,2.7422,2.7536,2.7731,2.7557,2.7372,2.7474,2.7586,2.7431,2.7472,2.7717,2.8057,2.8438,2.1384,2.1802,2.1802,2.1802,2.1892,2.2384,2.2453,2.2234,2.2221,2.2345,2.2719,2.3308,2.4239,2.5172,2.5921,2.6486,2.719,2.732,2.732,2.732,2.732,2.732,2.732,2.732,2.732,2.732,2.732,2.732,2.732,2.732,2.732,2.732,2.732,2.732,2.732,2.732,2.732,2.732,2.732,2.732,2.732,2.732,2.732,2.732,2.732,2.732,2.732,2.732,2.732,2.732,2.732,2.732,2.732,2.732,2.732,2.732,2.732,2.732,2.732,2.732,2.732,2.732,2.732,2.732,2.732,2.732,2.732,2.732,2.732,2.732,2.732,2.732,2.732,2.732,2.732,2.732,2.732,2.732,2.732,2.732,2.732,2.7329,2.7349,2.7638,2.7721,2.7648,2.7627,2.7484,2.7465,2.736,2.7318,2.732,2.7339,2.7493,2.7574,2.7667,2.7843,2.7957,2.8092,2.8257,2.8216,2.8031,2.8061,2.804,2.8112,2.8175,2.8019,2.7895,2.7883,2.7871,2.7831,2.7812,2.7995,2.845,2.8967,2.0752,2.1162,2.1341,2.1393,2.147,2.1969,2.2029,2.1795,2.1811,2.1835,2.2092,2.2814,2.3687,2.4561,2.5375,2.6392,2.7202,2.732,2.732,2.732,2.732,2.732,2.732,2.732,2.732,2.732,2.732,2.732,2.732,2.732,2.732,2.732,2.732,2.732,2.732,2.732,2.732,2.732,2.732,2.732,2.732,2.732,2.732,2.732,2.732,2.732,2.732,2.732,2.732,2.732,2.732,2.732,2.732,2.732,2.732,2.732,2.732,2.732,2.732,2.732,2.732,2.732,2.732,2.732,2.732,2.732,2.732,2.732,2.732,2.732,2.732,2.732,2.732,2.732,2.732,2.732,2.732,2.732,2.732,2.732,2.7361,2.737,2.7545,2.7885,2.8173,2.8059,2.7967,2.7845,2.7733,2.7659,2.7627,2.7648,2.771,2.7926,2.8069,2.8119,2.8315,2.8551,2.8657,2.8729,2.8553,2.8349,2.8502,2.8616,2.8512,2.8473,2.8522,2.8469,2.8365,2.8355,2.8419,2.8398,2.8388,2.8791,2.9319,2.0285,2.0711,2.1176,2.1345,2.1338,2.135,2.1359,2.1396,2.1444,2.1566,2.1778,2.2033,2.3034,2.4106,2.4729,2.5843,2.7061,2.7286,2.732,2.732,2.732,2.732,2.732,2.732,2.732,2.732,2.732,2.732,2.732,2.732,2.732,2.732,2.732,2.732,2.732,2.732,2.732,2.732,2.732,2.732,2.732,2.732,2.732,2.732,2.732,2.732,2.732,2.732,2.732,2.732,2.732,2.732,2.732,2.732,2.732,2.732,2.732,2.732,2.732,2.732,2.732,2.732,2.732,2.732,2.732,2.732,2.732,2.732,2.732,2.732,2.732,2.732,2.732,2.732,2.732,2.732,2.732,2.732,2.732,2.734,2.7391,2.7534,2.7935,2.8262,2.8636,2.8659,2.8628,2.8731,2.8599,2.8297,2.8276,2.8253,2.8359,2.8493,2.8584,2.8616,2.8812,2.906,2.8988,2.8998,2.8822,2.8802,2.8988,2.9029,2.8812,2.875,2.8822,2.881,2.8748,2.8789,2.8905,2.8936,2.8905,2.9125,2.9549,1.9464,1.9961,2.0412,2.0629,2.0609,2.0617,2.0763,2.1061,2.1503,2.1591,2.1218,2.2273,2.3302,2.4235,2.4717,2.5889,2.6774,2.732,2.732,2.732,2.732,2.732,2.732,2.732,2.732,2.732,2.732,2.732,2.732,2.732,2.732,2.732,2.732,2.732,2.732,2.732,2.732,2.732,2.732,2.732,2.732,2.732,2.732,2.732,2.732,2.732,2.732,2.732,2.732,2.732,2.732,2.732,2.732,2.732,2.732,2.732,2.732,2.732,2.732,2.732,2.732,2.732,2.732,2.732,2.732,2.732,2.732,2.732,2.733,2.733,2.7391,2.7422,2.7474,2.7524,2.7524,2.7546,2.7546,2.7546,2.7546,2.7598,2.765,2.8009,2.8386,2.8791,2.9112,2.9197,2.929,2.9404,2.9363,2.9029,2.8874,2.8864,2.8864,2.897,2.9063,2.9104,2.9332,2.9518,2.9425,2.9402,2.9453,2.9497,2.9559,2.9508,2.9342,2.9216,2.9143,2.9164,2.9236,2.9288,2.9381,2.9415,2.9466,2.9591,2.9694,1.8827,1.9302,1.9577,1.9825,1.9999,2.0019,2.0266,2.0729,2.1395,2.1634,2.1862,2.2631,2.3763,2.5032,2.5252,2.5904,2.7214,2.732,2.732,2.732,2.732,2.732,2.732,2.732,2.732,2.732,2.732,2.732,2.732,2.732,2.732,2.732,2.732,2.732,2.732,2.732,2.732,2.732,2.732,2.732,2.732,2.732,2.732,2.732,2.732,2.732,2.732,2.732,2.732,2.732,2.732,2.732,2.732,2.732,2.732,2.732,2.732,2.732,2.732,2.732,2.732,2.732,2.732,2.732,2.732,2.732,2.732,2.732,2.7329,2.736,2.7474,2.7576,2.7688,2.7822,2.7833,2.7843,2.7843,2.7843,2.7886,2.7938,2.8185,2.8545,2.8926,2.9309,2.958,2.9622,2.9673,2.9746,2.9735,2.9547,2.9435,2.9415,2.9373,2.9373,2.9456,2.9518,2.9653,2.9777,2.9798,2.9829,2.9994,2.9953,2.9818,2.986,2.9911,2.9746,2.9505,2.9691,2.9785,2.9774,2.9715,2.9715,2.9725,2.9798,2.9891,1.8353,1.877,1.8847,1.9234,1.9589,1.9691,1.9959,2.0382,2.1212,2.1998,2.2736,2.3049,2.4183,2.5316,2.5453,2.6005,2.6911,2.7225,2.732,2.732,2.732,2.732,2.732,2.732,2.732,2.732,2.732,2.732,2.732,2.732,2.732,2.732,2.732,2.732,2.732,2.732,2.732,2.732,2.732,2.732,2.732,2.732,2.732,2.732,2.732,2.732,2.732,2.732,2.732,2.732,2.732,2.732,2.732,2.732,2.732,2.732,2.732,2.732,2.732,2.732,2.732,2.732,2.732,2.732,2.732,2.732,2.732,2.736,2.7391,2.7553,2.7698,2.7914,2.809,2.8193,2.8235,2.8245,2.8245,2.8276,2.8349,2.8442,2.868,2.904,2.9332,2.9684,2.9766,2.9924,2.9966,2.9994,2.9963,2.987,2.9829,2.9798,2.9735,2.9673,2.9756,2.9818,2.9891,2.9984,2.9994,2.9994,2.9994,2.9994,2.9994,2.9994,2.9994,2.9994,2.9911,2.9984,2.9984,2.9953,2.9911,2.9963,2.9984,2.9973,2.9973,1.8149,1.8346,1.9084,1.95,1.9646,1.9996,2.0167,2.0408,2.1628,2.2032,2.2097,2.3171,2.4084,2.4835,2.5385,2.6,2.6658,2.7173,2.7289,2.732,2.732,2.732,2.732,2.732,2.732,2.732,2.732,2.732,2.732,2.732,2.732,2.732,2.732,2.732,2.732,2.732,2.732,2.732,2.732,2.732,2.732,2.732,2.732,2.732,2.732,2.732,2.732,2.732,2.732,2.732,2.732,2.732,2.732,2.732,2.732,2.732,2.732,2.732,2.732,2.732,2.732,2.732,2.732,2.732,2.732,2.732,2.7339,2.7389,2.7533,2.7738,2.7984,2.8253,2.8512,2.8605,2.8688,2.8675,2.8678,2.875,2.8833,2.9009,2.9226,2.9466,2.9735,2.987,2.9963,2.9994,2.9984,2.9994,2.9994,2.9942,2.9932,2.9911,2.9932,2.9932,2.9994,2.9994,2.9994,2.9994,2.9994,2.9994,2.9994,2.9994,2.9994,2.9994,2.9994,2.9994,2.9994,2.9994,2.9994,2.9994,2.9994,2.9994,2.9994,2.9984,2.9994,1.7889,1.8149,1.8693,1.8946,1.9015,1.9428,1.992,2.0625,2.1828,2.238,2.2497,2.3599,2.4359,2.4659,2.5355,2.5913,2.6588,2.709,2.7268,2.732,2.732,2.732,2.732,2.7296,2.732,2.732,2.732,2.732,2.732,2.732,2.732,2.732,2.732,2.732,2.732,2.732,2.732,2.732,2.732,2.732,2.732,2.732,2.732,2.732,2.732,2.732,2.732,2.732,2.732,2.732,2.732,2.732,2.732,2.732,2.732,2.732,2.732,2.732,2.732,2.732,2.732,2.732,2.732,2.732,2.732,2.732,2.732,2.7391,2.7665,2.7891,2.8326,2.8636,2.905,2.929,2.9363,2.9404,2.9394,2.9425,2.9477,2.9549,2.9673,2.9715,2.9911,2.9922,2.9994,2.9994,2.9994,2.9994,2.9994,2.9994,2.9994,2.9994,2.9994,2.9994,2.9994,2.9994,2.9994,2.9994,2.9994,2.9994,2.9994,2.9994,2.9994,2.9994,2.9994,2.9994,2.9994,2.9994,2.9994,2.9994,2.9994,2.9994,2.9994,2.9994,2.9994,1.759,1.7994,1.8087,1.811,1.8214,1.8781,1.9554,2.0571,2.1895,2.2787,2.3255,2.4045,2.4723,2.516,2.57,2.6115,2.656,2.7049,2.7246,2.732,2.732,2.7248,2.7225,2.7236,2.7213,2.7213,2.7213,2.7272,2.732,2.732,2.732,2.732,2.732,2.732,2.732,2.732,2.732,2.732,2.732,2.732,2.732,2.732,2.732,2.732,2.732,2.732,2.732,2.732,2.732,2.732,2.732,2.732,2.732,2.732,2.732,2.732,2.732,2.732,2.732,2.732,2.732,2.732,2.732,2.732,2.732,2.732,2.732,2.7451,2.7738,2.8127,2.8574,2.9081,2.9528,2.9798,2.987,2.9922,2.9922,2.9922,2.9942,2.9963,2.9963,2.9963,2.9973,2.9994,2.9994,2.9994,2.9994,2.9994,2.9994,2.9994,2.9994,2.9994,2.9994,2.9994,2.9994,2.9994,2.9994,2.9994,2.9994,2.9994,2.9994,2.9994,2.9994,2.9994,2.9994,2.9994,2.9994,2.9994,2.9994,2.9994,2.9994,2.9994,2.9994,2.9994,2.9994,1.7361,1.7489,1.7905,1.8087,1.8272,1.9406,1.9942,2.0164,2.2037,2.2873,2.3082,2.3949,2.458,2.4683,2.5565,2.6022,2.6219,2.6817,2.7191,2.732,2.7202,2.7107,2.7034,2.6986,2.6984,2.7008,2.7046,2.7129,2.7284,2.732,2.732,2.732,2.732,2.732,2.732,2.732,2.732,2.732,2.732,2.732,2.732,2.732,2.732,2.732,2.732,2.732,2.732,2.732,2.732,2.732,2.732,2.732,2.732,2.732,2.732,2.732,2.732,2.732,2.732,2.732,2.732,2.732,2.732,2.732,2.732,2.732,2.7339,2.7443,2.7759,2.8264,2.8737,2.9422,2.9911,2.9922,2.9963,2.9973,2.9973,2.9973,2.9984,2.9984,2.9984,2.9984,2.9984,2.9994,2.9994,2.9994,2.9994,2.9994,2.9994,2.9994,2.9994,2.9994,2.9994,2.9994,2.9994,2.9994,2.9994,2.9994,2.9994,2.9994,2.9994,2.9994,2.9994,2.9994,2.9994,2.9994,2.9994,2.9994,2.9994,2.9994,2.9994,2.9994,2.9994,2.9994,2.9994]}]]